LiveATC.Net - Listen to live air traffic control over the Internet!
Airport/ARTCC Code
Frequency Search
(e.g., 124.400, 128.75)
Site-wide search
 


Browse Feeds
Top 50 Feeds
HF Oceanic Feeds
Coverage Map
Bad Weather Areas

LiveATC FAQ

Increase Coverage

Contact LiveATC.net
Press Inquiries

LiveATC on iPhone
LiveATC on Android

LiveATC Mobile
(Mobile browser)

ATC Audio Archives
Interesting Recordings

LiveATC Forums

Home Page
About LiveATC.net


Terms of Use
Privacy Policy

AIRMETs/SIGMETs

FAA Airport Status
NAS Status
Arrival Demand


Server Software By:
Icecast.org
Liquidsoap

Select an area of interest:
U.S. Feeds: Class B Airports | Class C Airports | Class D/Other Airports | ARTCC (Centers)
International Feeds: Canada | Europe | Oceania | Asia | South America | North/Central America | Africa
Misc Feeds: HF Feeds
Search by ICAO/IATA airport code:   (e.g., kbos, kjfk, lax, eham, etc.)


Currently Available Live Feeds: 3107
Status Updated: Wed Jul 24 2024 22:41:04 UTC


NOTICE

Unauthorized use prohibited. See LiveATC.net Terms of Service

International Airport Feeds

 

EETN ATIS (Archives)
Tallinn, Estonia

Feed Status: UP
Listen in your browser - HTML5 player(in browser, HTML5)
Click here to listen with your own player(launches your MP3 player)

EETN 242220Z VRB01KT 9999 BCFG NSC 17/17 Q1011

EETN Flight Activity (Flightaware)

Listeners: 0 out of 2173 total

Tallinn ATIS: 124.880

EETN Radar (Archives)
Tallinn, Estonia

Feed Status: UP
Listen in your browser - HTML5 player(in browser, HTML5)
Click here to listen with your own player(launches your MP3 player)

EETN 242220Z VRB01KT 9999 BCFG NSC 17/17 Q1011

EETN Flight Activity (Flightaware)

Listeners: 0 out of 2173 total

Tallinn Radar: 127.905

EETN Tower (Archives)
Tallinn, Estonia

Feed Status: UP
Listen in your browser - HTML5 player(in browser, HTML5)
Click here to listen with your own player(launches your MP3 player)

EETN 242220Z VRB01KT 9999 BCFG NSC 17/17 Q1011

EETN Flight Activity (Flightaware)

Listeners: 0 out of 2173 total

Tallinn Tower: 135.905

EFHK Approach (Archives)
Vantaa, Finland

Feed Status: UP
Listen in your browser - HTML5 player(in browser, HTML5)
Click here to listen with your own player(launches your MP3 player)

EFHK 242220Z 07004KT 050V120 9999 FEW040 17/16 Q1011 NOSIG

EFHK Flight Activity (Flightaware)

Listeners: 0 out of 2173 total

Helsinki Approach: 119.100

EFHK Approach (Archives)
Vantaa, Finland

Feed Status: UP
Listen in your browser - HTML5 player(in browser, HTML5)
Click here to listen with your own player(launches your MP3 player)

EFHK 242220Z 07004KT 050V120 9999 FEW040 17/16 Q1011 NOSIG

EFHK Flight Activity (Flightaware)

Listeners: 0 out of 2173 total

Helsinki Arrival: 119.900

EFHK Tower (22L/04R 15/33) (Archives)
Vantaa, Finland

Feed Status: UP
Listen in your browser - HTML5 player(in browser, HTML5)
Click here to listen with your own player(launches your MP3 player)

EFHK 242220Z 07004KT 050V120 9999 FEW040 17/16 Q1011 NOSIG

EFHK Flight Activity (Flightaware)

Listeners: 1 out of 2173 total

Vantaa Tower (22L/04R 15/33): 118.600

EFHK Tower (22R/04L) (Archives)
Vantaa, Finland

Feed Status: UP
Listen in your browser - HTML5 player(in browser, HTML5)
Click here to listen with your own player(launches your MP3 player)

EFHK 242220Z 07004KT 050V120 9999 FEW040 17/16 Q1011 NOSIG

EFHK Flight Activity (Flightaware)

Listeners: 2 out of 2173 total

Vantaa Tower (22R/04L): 118.850

EFJY Tower (Archives)
Jyvaskyla, Finland

Feed Status: UP
Listen in your browser - HTML5 player(in browser, HTML5)
Click here to listen with your own player(launches your MP3 player)

EFJY 242220Z AUTO 35001KT CAVOK 17/15 Q1012

EFJY Flight Activity (Flightaware)

Listeners: 0 out of 2173 total

Jyvaskyla Tower: 118.000
Jyvaskyla Tower: 119.700

Dutch Mil Radar (Archives)
Amsterdam, Netherlands

Feed Status: UP
Listen in your browser - HTML5 player(in browser, HTML5)
Click here to listen with your own player(launches your MP3 player)

EHLE 242225Z AUTO 11002KT 9999 NSC 13/12 Q1018

EHLE Flight Activity (Flightaware)

Listeners: 2 out of 2173 total

Approach: 124.530
Dutch Mil Flight Info: 264.325
Dutch Mil Radar: 128.355
Dutch Mil Radar: 132.350

EHAM App/Dep
Amsterdam, Netherlands

Feed Status: DOWN
Offline since: 2024-07-15 19:36:21 UTC

EHAM 242225Z 13002KT CAVOK 15/12 Q1018 NOSIG

Amsterdam Radar ACC: 118.805
Amsterdam Radar ACC: 120.555
Amsterdam Radar ACC: 127.780
Schiphol Approach: 131.155
Schiphol Approach/Departure: 118.080
Schiphol Approach/Departure: 119.055
Schiphol Approach/Departure: 121.205
Schiphol Arrival: 118.405
Schiphol Arrival: 126.680

EHAM Ground
Amsterdam, Netherlands

Feed Status: DOWN
Offline since: 2024-07-15 19:36:21 UTC

EHAM 242225Z 13002KT CAVOK 15/12 Q1018 NOSIG

Schiphol Ground: 121.560
Schiphol Ground: 121.590
Schiphol Ground (North): 121.805
Schiphol Ground (South): 121.705
Schiphol Ground (West): 121.905

EHAM Tower
Amsterdam, Netherlands

Feed Status: DOWN
Offline since: 2024-07-15 19:36:21 UTC

EHAM 242225Z 13002KT CAVOK 15/12 Q1018 NOSIG

Schiphol Tower (secondary): 118.105
Schiphol Tower Main 06/24: 135.110
Schiphol Tower Main 18L/36R - 22/04: 119.230
Schiphol Tower West 18R/36L: 118.280

EHBK Gnd/Twr/App (Archives)
Beek, Netherlands

Feed Status: UP
Listen in your browser - HTML5 player(in browser, HTML5)
Click here to listen with your own player(launches your MP3 player)

EHBK 242225Z AUTO VRB02KT 9999 NSC 17/13 Q1019

EHBK Flight Activity (Flightaware)

Listeners: 0 out of 2173 total

Beek Approach: 120.205
Beek Approach: 123.980
Beek Ground: 121.830
Beek Tower: 119.480
Beek Tower: 119.705

EHEH Approach #1 (Archives)
Eindhoven, Netherlands

Feed Status: UP
Listen in your browser - HTML5 player(in browser, HTML5)
Click here to listen with your own player(launches your MP3 player)

EHEH 242225Z AUTO 22001KT 9999 OVC230 13/12 Q1018 BLU

EHEH Flight Activity (Flightaware)

Listeners: 1 out of 2173 total

DutchMil Info: 132.355
DutchMil Info UHF: 341.600
DutchMil RAPCON South: 123.180
Eindhoven Arrival: 125.530
Eindhoven Arrival (UHF): 265.975
Emergency/Guard: 121.500
Rapcon South UHF: 388.525
Volkel Arrival UHF: 291.200

EHEH ATIS
Eindhoven, Netherlands

Feed Status: DOWN
Offline since: 2024-03-18 19:35:21 UTC

EHEH 242225Z AUTO 22001KT 9999 OVC230 13/12 Q1018 BLU

Eindhoven ATIS: 126.030

EHEH Ground #2
Eindhoven, Netherlands

Feed Status: DOWN
Offline since: 2024-03-17 21:50:05 UTC

EHEH 242225Z AUTO 22001KT 9999 OVC230 13/12 Q1018 BLU

Eindhoven Ground: 121.930

EHEH Ground #3 (Archives)
Eindhoven, Netherlands

Feed Status: UP
Listen in your browser - HTML5 player(in browser, HTML5)
Click here to listen with your own player(launches your MP3 player)

EHEH 242225Z AUTO 22001KT 9999 OVC230 13/12 Q1018 BLU

EHEH Flight Activity (Flightaware)

Listeners: 0 out of 2173 total

Eindhoven Ground: 121.930

EHEH Tower #1 (Archives)
Eindhoven, Netherlands

Feed Status: UP
Listen in your browser - HTML5 player(in browser, HTML5)
Click here to listen with your own player(launches your MP3 player)

EHEH 242225Z AUTO 22001KT 9999 OVC230 13/12 Q1018 BLU

EHEH Flight Activity (Flightaware)

Listeners: 1 out of 2173 total

Eindhoven Tower: 131.005
Eindhoven Tower (UHF): 241.550
Generic Tower: 122.100
Generic Tower (UHF): 257.800
Volkel Tower: 136.080
Volkel Tower (UHF): 291.100

EHEH Tower #2 (Archives)
Eindhoven, Netherlands

Feed Status: UP
Listen in your browser - HTML5 player(in browser, HTML5)
Click here to listen with your own player(launches your MP3 player)

EHEH 242225Z AUTO 22001KT 9999 OVC230 13/12 Q1018 BLU

EHEH Flight Activity (Flightaware)

Listeners: 0 out of 2173 total

Eindhoven Tower: 131.005

EHEH Tower 122.1 (Archives)
Eindhoven, Netherlands

Feed Status: UP
Listen in your browser - HTML5 player(in browser, HTML5)
Click here to listen with your own player(launches your MP3 player)

EHEH 242225Z AUTO 22001KT 9999 OVC230 13/12 Q1018 BLU

EHEH Flight Activity (Flightaware)

Listeners: 0 out of 2173 total

Generic Tower: 122.100

EHGG Approach (Archives)
Groningen, Netherlands

Feed Status: UP
Listen in your browser - HTML5 player(in browser, HTML5)
Click here to listen with your own player(launches your MP3 player)

EHGG 242225Z AUTO 22001KT 9999 NCD 09/09 Q1018

EHGG Flight Activity (Flightaware)

Listeners: 0 out of 2173 total

Eelde Approach: 120.305

EHGG ATIS (Archives)
Groningen, Netherlands

Feed Status: UP
Listen in your browser - HTML5 player(in browser, HTML5)
Click here to listen with your own player(launches your MP3 player)

EHGG 242225Z AUTO 22001KT 9999 NCD 09/09 Q1018

EHGG Flight Activity (Flightaware)

Listeners: 1 out of 2173 total

Groningen ATIS: 133.555

EHGG Ground (Archives)
Groningen, Netherlands

Feed Status: UP
Listen in your browser - HTML5 player(in browser, HTML5)
Click here to listen with your own player(launches your MP3 player)

EHGG 242225Z AUTO 22001KT 9999 NCD 09/09 Q1018

EHGG Flight Activity (Flightaware)

Listeners: 0 out of 2173 total

Eelde Clearance Delivery/Ground: 121.705

EHGG Guard/Emergency (Archives)
Groningen, Netherlands

Feed Status: UP
Listen in your browser - HTML5 player(in browser, HTML5)
Click here to listen with your own player(launches your MP3 player)

EHGG 242225Z AUTO 22001KT 9999 NCD 09/09 Q1018

EHGG Flight Activity (Flightaware)

Listeners: 0 out of 2173 total

Emergency/Guard: 121.500

EHGG Tower (Archives)
Groningen, Netherlands

Feed Status: UP
Listen in your browser - HTML5 player(in browser, HTML5)
Click here to listen with your own player(launches your MP3 player)

EHGG 242225Z AUTO 22001KT 9999 NCD 09/09 Q1018

EHGG Flight Activity (Flightaware)

Listeners: 1 out of 2173 total

Eelde Tower: 118.705

EHGG Twr/App (Secondary) (Archives)
Groningen, Netherlands

Feed Status: UP
Listen in your browser - HTML5 player(in browser, HTML5)
Click here to listen with your own player(launches your MP3 player)

EHGG 242225Z AUTO 22001KT 9999 NCD 09/09 Q1018

EHGG Flight Activity (Flightaware)

Listeners: 0 out of 2173 total

Eelde Tower/App (Backup): 119.705

MUAC/Eurocontrol (EHGG Area) (Archives)
Groningen, Netherlands

Feed Status: UP
Listen in your browser - HTML5 player(in browser, HTML5)
Click here to listen with your own player(launches your MP3 player)

EHGG 242225Z AUTO 22001KT 9999 NCD 09/09 Q1018

EHGG Flight Activity (Flightaware)

Listeners: 0 out of 2173 total

MUAC Holstein High Sector: 132.775
MUAC Holstein Sector: 120.9333
MUAC Javer High Sector: 134.700
MUAC Jever Sector: 136.4666

EHGR Area Gliders (Archives)
Breda, Netherlands

Feed Status: UP
Listen in your browser - HTML5 player(in browser, HTML5)
Click here to listen with your own player(launches your MP3 player)

EHGR 242225Z AUTO 20001KT 9999 OVC220 12/12 Q1018 BLU

EHGR Flight Activity (Flightaware)

Listeners: 0 out of 2173 total

EHGR Area Gliders: 125.380

EHGR Gnd/Twr/App/Mil
Breda, Netherlands

Feed Status: DOWN
Offline since: 2024-06-25 20:43:22 UTC

EHGR 242225Z AUTO 20001KT 9999 OVC220 12/12 Q1018 BLU

Arrival: 123.580
Dutch Mil Radar: 132.350
Gilze Rijen Ground: 123.330
Gilze Rijen Tower: 125.330

EHGR Tower (Archives)
Breda, Netherlands

Feed Status: UP
Listen in your browser - HTML5 player(in browser, HTML5)
Click here to listen with your own player(launches your MP3 player)

EHGR 242225Z AUTO 20001KT 9999 OVC220 12/12 Q1018 BLU

EHGR Flight Activity (Flightaware)

Listeners: 0 out of 2173 total

Gilze Rijen Tower: 125.330

EHHV CTAF (Archives)
Hilversum, Netherlands

Feed Status: UP
Listen in your browser - HTML5 player(in browser, HTML5)
Click here to listen with your own player(launches your MP3 player)

EHHV Flight Activity (Flightaware)

Listeners: 0 out of 2173 total

Hilversum Radio: 131.030

EHKD ATIS (Archives)
Den Helder, Netherlands

Feed Status: UP
Listen in your browser - HTML5 player(in browser, HTML5)
Click here to listen with your own player(launches your MP3 player)

EHKD 242225Z AUTO 15004KT 9999 NCD 14/12 Q1018 BLU

EHKD Flight Activity (Flightaware)

Listeners: 0 out of 2173 total

De Kooy ATIS: 133.015

EHKD Ground/Tower (Archives)
Den Helder, Netherlands

Feed Status: UP
Listen in your browser - HTML5 player(in browser, HTML5)
Click here to listen with your own player(launches your MP3 player)

EHKD 242225Z AUTO 15004KT 9999 NCD 14/12 Q1018 BLU

EHKD Flight Activity (Flightaware)

Listeners: 0 out of 2173 total

De Kooy Ground: 121.730
De Kooy Tower: 120.130

Approach/Dutch Mil Radar (Archives)
Lelystad, Netherlands

Feed Status: UP
Listen in your browser - HTML5 player(in browser, HTML5)
Click here to listen with your own player(launches your MP3 player)

EHLE 242225Z AUTO 11002KT 9999 NSC 13/12 Q1018

EHLE Flight Activity (Flightaware)

Listeners: 2 out of 2173 total

Approach: 124.530
Dutch Mil Flight Info: 264.325
Dutch Mil Radar: 128.355
Dutch Mil Radar: 132.350

EHLE App/Dep (Archives)
Lelystad, Netherlands

Feed Status: UP
Listen in your browser - HTML5 player(in browser, HTML5)
Click here to listen with your own player(launches your MP3 player)

EHLE 242225Z AUTO 11002KT 9999 NSC 13/12 Q1018

EHLE Flight Activity (Flightaware)

Listeners: 0 out of 2173 total

Lelystad Approach: 134.530

EHLE Clearance Delivery (Archives)
Lelystad, Netherlands

Feed Status: UP
Listen in your browser - HTML5 player(in browser, HTML5)
Click here to listen with your own player(launches your MP3 player)

EHLE 242225Z AUTO 11002KT 9999 NSC 13/12 Q1018

EHLE Flight Activity (Flightaware)

Listeners: 0 out of 2173 total

Lelystad Clearance Delivery: 123.680

EHLE FIC (Archives)
Lelystad, Netherlands

Feed Status: UP
Listen in your browser - HTML5 player(in browser, HTML5)
Click here to listen with your own player(launches your MP3 player)

EHLE 242225Z AUTO 11002KT 9999 NSC 13/12 Q1018

EHLE Flight Activity (Flightaware)

Listeners: 0 out of 2173 total

FIC Amsterdam Information: 124.300

EHLE Tower (Archives)
Lelystad, Netherlands

Feed Status: UP
Listen in your browser - HTML5 player(in browser, HTML5)
Click here to listen with your own player(launches your MP3 player)

EHLE 242225Z AUTO 11002KT 9999 NSC 13/12 Q1018

EHLE Flight Activity (Flightaware)

Listeners: 0 out of 2173 total

Lelystad Tower: 135.180
Lelystad Tower: 123.830

EHMM CTAF (Archives)
Middenmeer, Netherlands

Feed Status: UP
Listen in your browser - HTML5 player(in browser, HTML5)
Click here to listen with your own player(launches your MP3 player)

EHMM Flight Activity (Flightaware)

Listeners: 0 out of 2173 total

Middenmeer CTAF: 123.425

EHMZ (Archives)
Middelburg, Netherlands

Feed Status: UP
Listen in your browser - HTML5 player(in browser, HTML5)
Click here to listen with your own player(launches your MP3 player)

EHMZ Flight Activity (Flightaware)

Listeners: 0 out of 2173 total

Midden-Zeeland Radio: 119.255

EHRD Approach (Archives)
Rotterdam, Netherlands

Feed Status: UP
Listen in your browser - HTML5 player(in browser, HTML5)
Click here to listen with your own player(launches your MP3 player)

EHRD 242225Z AUTO VRB02KT 9999 NSC 15/12 Q1018 NOSIG

EHRD Flight Activity (Flightaware)

Listeners: 1 out of 2173 total

Rotterdam Approach: 122.990
Rotterdam Approach: 124.535
Rotterdam Approach: 281.050

EHRD Clearance Delivery (Archives)
Rotterdam, Netherlands

Feed Status: UP
Listen in your browser - HTML5 player(in browser, HTML5)
Click here to listen with your own player(launches your MP3 player)

EHRD 242225Z AUTO VRB02KT 9999 NSC 15/12 Q1018 NOSIG

EHRD Flight Activity (Flightaware)

Listeners: 0 out of 2173 total

Rotterdam Del/Gnd: 122.180

EHRD Del/Twr (Archives)
Rotterdam, Netherlands

Feed Status: UP
Listen in your browser - HTML5 player(in browser, HTML5)
Click here to listen with your own player(launches your MP3 player)

EHRD 242225Z AUTO VRB02KT 9999 NSC 15/12 Q1018 NOSIG

EHRD Flight Activity (Flightaware)

Listeners: 1 out of 2173 total

Rotterdam Del/Gnd: 122.180
Rotterdam Tower: 118.205

EHRD Gnd/Twr/App (Archives)
Rotterdam, Netherlands

Feed Status: UP
Listen in your browser - HTML5 player(in browser, HTML5)
Click here to listen with your own player(launches your MP3 player)

EHRD 242225Z AUTO VRB02KT 9999 NSC 15/12 Q1018 NOSIG

EHRD Flight Activity (Flightaware)

Listeners: 1 out of 2173 total

Adam Info: 124.300
Regional Guard: 119.705
Rotterdam Approach: 127.025
Rotterdam Del/Gnd: 122.180
Rotterdam Tower: 118.205
SAR: 123.100
SAR: 282.800

EHRD Tower (Archives)
Rotterdam, Netherlands

Feed Status: UP
Listen in your browser - HTML5 player(in browser, HTML5)
Click here to listen with your own player(launches your MP3 player)

EHRD 242225Z AUTO VRB02KT 9999 NSC 15/12 Q1018 NOSIG

EHRD Flight Activity (Flightaware)

Listeners: 2 out of 2173 total

Rotterdam Tower: 118.205
Rotterdam Tower: 362.300

EHTX Radio (Archives)
De Cocksdorp, Netherlands

Feed Status: UP
Listen in your browser - HTML5 player(in browser, HTML5)
Click here to listen with your own player(launches your MP3 player)

EHTX Flight Activity (Flightaware)

Listeners: 0 out of 2173 total

Texel Radio (Ground/Tower): 119.305

EICK Gnd/Twr/App/Dep (Archives)
Cork, Ireland

Feed Status: UP
Listen in your browser - HTML5 player(in browser, HTML5)
Click here to listen with your own player(launches your MP3 player)

EICK 242200Z 23007KT 9999 BKN005 15/14 Q1012 NOSIG

EICK Flight Activity (Flightaware)

Listeners: 0 out of 2173 total

Cork Approach: 119.900
Cork Ground: 121.850
Cork Tower: 119.300

EIDW Gnd/Twr/App/Centre (Archives)
Dublin, Ireland

Feed Status: UP
Listen in your browser - HTML5 player(in browser, HTML5)
Click here to listen with your own player(launches your MP3 player)

EIDW 242200Z 25006KT 210V290 9999 FEW006 SCT010 BKN014 18/17 Q1010 TEMPO BKN012

EIDW Flight Activity (Flightaware)

Listeners: 6 out of 2173 total

Dublin Approach: 121.100
Dublin Centre: 132.575
Dublin Ground (North): 125.880
Dublin Ground (South): 121.800
Dublin Tower (North): 124.680
Dublin Tower (South): 118.600

EIDW London Control (North Sea) (Archives)
Dublin, Ireland

Feed Status: UP
Listen in your browser - HTML5 player(in browser, HTML5)
Click here to listen with your own player(launches your MP3 player)

EIDW 242200Z 25006KT 210V290 9999 FEW006 SCT010 BKN014 18/17 Q1010 TEMPO BKN012

EIDW Flight Activity (Flightaware)

Listeners: 0 out of 2173 total

London Control (West Drayton/North Sea): 133.700

EIDW Scottish Control (STAFA) (Archives)
Dublin, Ireland

Feed Status: UP
Listen in your browser - HTML5 player(in browser, HTML5)
Click here to listen with your own player(launches your MP3 player)

EIDW 242200Z 25006KT 210V290 9999 FEW006 SCT010 BKN014 18/17 Q1010 TEMPO BKN012

EIDW Flight Activity (Flightaware)

Listeners: 0 out of 2173 total

Scottish Control (STAFA): 134.425

EIDW Tower (North/South)/App (Archives)
Dublin, Ireland

Feed Status: UP
Listen in your browser - HTML5 player(in browser, HTML5)
Click here to listen with your own player(launches your MP3 player)

EIDW 242200Z 25006KT 210V290 9999 FEW006 SCT010 BKN014 18/17 Q1010 TEMPO BKN012

EIDW Flight Activity (Flightaware)

Listeners: 3 out of 2173 total

Dublin Approach: 121.100
Dublin Approach (Final): 119.930
Dublin Tower (North): 124.680
Dublin Tower (South): 118.600

EIKN Gnd/Twr/App (Archives)
Charlestown, Ireland

Feed Status: UP
Listen in your browser - HTML5 player(in browser, HTML5)
Click here to listen with your own player(launches your MP3 player)

EIKN 241630Z 21012KT 180V240 9999 BKN007 BKN013 17/16 Q1010 TEMPO 4000 -RADZ

EIKN Flight Activity (Flightaware)

Listeners: 0 out of 2173 total

Connaught Ground: 121.900
Connaught Tower: 130.700
Shannon Low Level: 119.075

EINN Shannon Control High (East)
Shannon, Ireland

Feed Status: DOWN
Offline since: 2024-07-17 09:12:21 UTC

EINN 242200Z 25011KT 9999 FEW007 BKN008 16/14 Q1012 NOSIG

Shannon Clearance (Oceanic only): 127.900
Shannon Control: 134.260
Shannon Control: 134.630
Shannon Control: 135.230
Shannon Control: 135.600
Shannon Control: 136.255
Shannon Control (BABAN/DEVOL Sector): 132.150

EINN Shannon Control High (West/Coastal)
Shannon, Ireland

Feed Status: DOWN
Offline since: 2024-07-17 09:12:21 UTC

EINN 242200Z 25011KT 9999 FEW007 BKN008 16/14 Q1012 NOSIG

Shannon Control: 131.150
Shannon Control: 125.880
Shannon Control: 120.040
Shannon Control: 122.980
Shannon Control: 127.130
Shannon Control: 129.665
Shannon Control: 133.360

EINN Shannon Control Low
Shannon, Ireland

Feed Status: DOWN
Offline since: 2024-07-17 09:12:21 UTC

EINN 242200Z 25011KT 9999 FEW007 BKN008 16/14 Q1012 NOSIG

Shannon Control (Low): 119.080
Shannon Control Low: 124.700

EINN Twr/App #1 (Archives)
Shannon, Ireland

Feed Status: UP
Listen in your browser - HTML5 player(in browser, HTML5)
Click here to listen with your own player(launches your MP3 player)

EINN 242200Z 25011KT 9999 FEW007 BKN008 16/14 Q1012 NOSIG

EINN Flight Activity (Flightaware)

Listeners: 0 out of 2173 total

Aer Lingus Ops: 131.500
Service Air Ops: 131.450
Shannon Approach Radar: 121.400
Shannon Control: Misc
Shannon Ground: 121.800
Shannon Tower: 118.700
Sig Ops (Pre-Clearance): 131.590

ENAL Twr/App (Archives)
Alesund, Norway

Feed Status: UP
Listen in your browser - HTML5 player(in browser, HTML5)
Click here to listen with your own player(launches your MP3 player)

ENAL 242220Z AUTO 05011KT 9999 FEW170/// 14/11 Q1012

ENAL Flight Activity (Flightaware)

Listeners: 0 out of 2173 total

More Approach: 129.325
More Approach: 119.350
Vigra Tower: 118.100

ENAT Twr/App/Control (Archives)
Alta, Norway

Feed Status: UP
Listen in your browser - HTML5 player(in browser, HTML5)
Click here to listen with your own player(launches your MP3 player)

ENAT 242220Z AUTO 30009KT 9999 OVC017/// 13/11 Q1017 RMK WIND 700FT 32010KT

ENAT Flight Activity (Flightaware)

Listeners: 0 out of 2173 total

Alta Tower (to boat, Harbour Channel 12): 156.600
Alta Tower (to vehicle): 462.400
Alta Tower/Approach: 120.400
Norway Control: 126.700

ENBO Approach
Bodo, Norway

Feed Status: DOWN
Offline since: 2024-07-22 18:34:05 UTC

ENBO 242220Z 33004KT 9999 BKN049 14/10 Q1016

Bodo Approach: 119.700

ENBO Tower
Bodo, Norway

Feed Status: DOWN
Offline since: 2024-07-22 18:33:39 UTC

ENBO 242220Z 33004KT 9999 BKN049 14/10 Q1016

Bodo Tower: 118.100

ENCN Tower/Approach (Archives)
Kristiansand, Norway

Feed Status: UP
Listen in your browser - HTML5 player(in browser, HTML5)
Click here to listen with your own player(launches your MP3 player)

ENCN 242220Z AUTO 04003KT 9999 NCD 15/14 Q1013

ENCN Flight Activity (Flightaware)

Listeners: 2 out of 2173 total

Kjevik Tower: 118.100
Kjevik Tower/Approach: 119.950

ENGM App/Polaris ACC (Archives)
Honefoss, Norway

Feed Status: UP
Listen in your browser - HTML5 player(in browser, HTML5)
Click here to listen with your own player(launches your MP3 player)

ENEG Flight Activity (Flightaware)

Listeners: 1 out of 2173 total

ENEG Tower: 122.700
Polaris ACC Sector 13: 134.925
Polaris ACC Sector 18: 125.700
Polaris ACC Sector 3: 125.050
Polaris ACC Sector 5: 127.250
Polaris ACC Sector 7: 124.775
Polaris ACC Sector 8: 134.350

ENEV Twr/App/ACC (Archives)
Evenes, Norway

Feed Status: UP
Listen in your browser - HTML5 player(in browser, HTML5)
Click here to listen with your own player(launches your MP3 player)

ENEV 242220Z 36006KT 9999 FEW025 SCT030 BKN058 13/11 Q1017 RMK WIND 1400FT 02012KT

ENEV Flight Activity (Flightaware)

Listeners: 0 out of 2173 total

Evenes Approach: 120.100
Evenes Tower: 118.000
Norway ACC (Bodo Sector 25): 126.450

ENGK Info
Arendal, Norway

Feed Status: DOWN
Offline since: 2024-07-24 21:18:04 UTC

ENGK 241420Z 21004KT 170V260 4500 BR BKN003 06/06 Q1015

Gullknapp Info: 129.900

ENGM App/Polaris ACC (Archives)
Oslo, Norway

Feed Status: UP
Listen in your browser - HTML5 player(in browser, HTML5)
Click here to listen with your own player(launches your MP3 player)

ENEG Flight Activity (Flightaware)

Listeners: 1 out of 2173 total

ENEG Tower: 122.700
Polaris ACC Sector 13: 134.925
Polaris ACC Sector 18: 125.700
Polaris ACC Sector 3: 125.050
Polaris ACC Sector 5: 127.250
Polaris ACC Sector 7: 124.775
Polaris ACC Sector 8: 134.350

ENGM Tower (Archives)
Oslo, Norway

Feed Status: UP
Listen in your browser - HTML5 player(in browser, HTML5)
Click here to listen with your own player(launches your MP3 player)

ENGM 242220Z 36008KT 340V040 9999 FEW015 BKN020 OVC032 14/11 Q1013

ENGM Flight Activity (Flightaware)

Listeners: 0 out of 2173 total

Oslo Tower (East): 120.100
Oslo Tower (West): 118.300

ENHD Tower (Archives)
Haugesund, Norway

Feed Status: UP
Listen in your browser - HTML5 player(in browser, HTML5)
Click here to listen with your own player(launches your MP3 player)

ENHD 242220Z AUTO 30006KT 9999 BKN019/// 14/11 Q1014

ENHD Flight Activity (Flightaware)

Listeners: 0 out of 2173 total

Karmoy Tower: 120.500

ENJB CTAF (Archives)
Tonsberg, Norway

Feed Status: UP
Listen in your browser - HTML5 player(in browser, HTML5)
Click here to listen with your own player(launches your MP3 player)

ENTO 242220Z 32003KT CAVOK 14/13 Q1013

ENTO Flight Activity (Flightaware)

Listeners: 0 out of 2173 total

Jarlsberg CTAF: 122.300

ENKJ CTAF/RDO/Guard (Archives)
Kjeller, Norway

Feed Status: UP
Listen in your browser - HTML5 player(in browser, HTML5)
Click here to listen with your own player(launches your MP3 player)

ENKJ Flight Activity (Flightaware)

Listeners: 0 out of 2173 total

Emergency/Guard: 121.500
Kjeller RDO: 119.100
Kjeller UNICOM: 123.500

ENKR/ENVD Twr/App (Archives)
Kirkenes, Norway

Feed Status: UP
Listen in your browser - HTML5 player(in browser, HTML5)
Click here to listen with your own player(launches your MP3 player)

ENKR 242220Z 08012KT 9999 FEW002 SCT006 12/11 Q1015 RMK WIND 731FT 10012KT

ENKR Flight Activity (Flightaware)

Listeners: 0 out of 2173 total

Kirkenes/Vadso Tower/Approach: 120.350

ENOR Sector 8 (Archives)
Moss, Norway

Feed Status: UP
Listen in your browser - HTML5 player(in browser, HTML5)
Click here to listen with your own player(launches your MP3 player)

ENOR Flight Activity (Flightaware)

Listeners: 0 out of 2173 total

Norway Center (FIR) Sector 8: 118.875

ENRY Tower (Archives)
Moss, Norway

Feed Status: UP
Listen in your browser - HTML5 player(in browser, HTML5)
Click here to listen with your own player(launches your MP3 player)

ENRY 242220Z AUTO 35004KT 9999 FEW150/// 15/12 Q1013

ENRY Flight Activity (Flightaware)

Listeners: 0 out of 2173 total

Rygge Tower: 119.500

ENTC Tower/App (Archives)
Langnes, Norway

Feed Status: UP
Listen in your browser - HTML5 player(in browser, HTML5)
Click here to listen with your own player(launches your MP3 player)

ENTC 242220Z 02009KT 9999 FEW020 SCT035 BKN049 12/09 Q1017 RMK WIND 2600FT 05004KT

ENTC Flight Activity (Flightaware)

Listeners: 1 out of 2173 total

Langnes Tower: 118.300
Langnes VDF (Approach): 123.750

ENTO App/Dep (Archives)
Sandefjord, Norway

Feed Status: UP
Listen in your browser - HTML5 player(in browser, HTML5)
Click here to listen with your own player(launches your MP3 player)

ENTO 242220Z 32003KT CAVOK 14/13 Q1013

ENTO Flight Activity (Flightaware)

Listeners: 0 out of 2173 total

Sandefjord Approach (TMA): 134.050

ENTO Control Sector 4 (Archives)
Sandefjord, Norway

Feed Status: UP
Listen in your browser - HTML5 player(in browser, HTML5)
Click here to listen with your own player(launches your MP3 player)

ENTO 242220Z 32003KT CAVOK 14/13 Q1013

ENTO Flight Activity (Flightaware)

Listeners: 0 out of 2173 total

Norway control Sector 4: 118.875

ENTO Tower (Archives)
Sandefjord, Norway

Feed Status: UP
Listen in your browser - HTML5 player(in browser, HTML5)
Click here to listen with your own player(launches your MP3 player)

ENTO 242220Z 32003KT CAVOK 14/13 Q1013

ENTO Flight Activity (Flightaware)

Listeners: 0 out of 2173 total

Sandefjord Tower: 118.650

ENTO Tower/App (Archives)
Sandefjord, Norway

Feed Status: UP
Listen in your browser - HTML5 player(in browser, HTML5)
Click here to listen with your own player(launches your MP3 player)

ENTO 242220Z 32003KT CAVOK 14/13 Q1013

ENTO Flight Activity (Flightaware)

Listeners: 0 out of 2173 total

ENJB Tonsberg Airport - Jarlsberg - CTAF: 122.300
Farris Approach (TCA): 134.050
Sandefjord Tower: 118.650

ENTO Twr/App (Archives)
Sandefjord, Norway

Feed Status: UP
Listen in your browser - HTML5 player(in browser, HTML5)
Click here to listen with your own player(launches your MP3 player)

ENTO 242220Z 32003KT CAVOK 14/13 Q1013

ENTO Flight Activity (Flightaware)

Listeners: 0 out of 2173 total

Sandefjord Approach (TMA): 134.050
Sandefjord Tower: 118.650

ENVA Gnd/Twr/App (Archives)
Trondheim, Norway

Feed Status: UP
Listen in your browser - HTML5 player(in browser, HTML5)
Click here to listen with your own player(launches your MP3 player)

ENVA 242220Z 08004KT CAVOK 13/11 Q1015 RMK WIND 670FT 03003KT

ENVA Flight Activity (Flightaware)

Listeners: 2 out of 2173 total

Trondheim Approach: 118.600
Trondheim Ground: 121.600
Trondheim Tower: 119.400

ENKR/ENVD Twr/App (Archives)
Vadso, Norway

Feed Status: UP
Listen in your browser - HTML5 player(in browser, HTML5)
Click here to listen with your own player(launches your MP3 player)

ENKR 242220Z 08012KT 9999 FEW002 SCT006 12/11 Q1015 RMK WIND 731FT 10012KT

ENKR Flight Activity (Flightaware)

Listeners: 0 out of 2173 total

Kirkenes/Vadso Tower/Approach: 120.350

ENZV Gnd/Twr/App (Archives)
Stavanger, Norway

Feed Status: UP
Listen in your browser - HTML5 player(in browser, HTML5)
Click here to listen with your own player(launches your MP3 player)

ENZV 242220Z 00000KT 9999 FEW018 14/11 Q1014

ENZV Flight Activity (Flightaware)

Listeners: 3 out of 2173 total

Sola Approach/Departure: 119.600
Sola Ground: 121.750
Sola Tower: 118.350

EPKK Tower/App (Archives)
Krakow, Poland

Feed Status: UP
Listen in your browser - HTML5 player(in browser, HTML5)
Click here to listen with your own player(launches your MP3 player)

EPKK 242200Z 20005KT 9999 FEW032 BKN059 16/15 Q1014

EPKK Flight Activity (Flightaware)

Listeners: 3 out of 2173 total

Krakow Approach: 121.075
Krakow Approach: 123.255
Krakow Tower: 123.255

EPKR CTAF (Archives)
Krosno, Poland

Feed Status: UP
Listen in your browser - HTML5 player(in browser, HTML5)
Click here to listen with your own player(launches your MP3 player)

EPKR Flight Activity (Flightaware)

Listeners: 0 out of 2173 total

Krosno CTAF: 119.555

EPKR Krakow Info (Archives)
Krosno, Poland

Feed Status: UP
Listen in your browser - HTML5 player(in browser, HTML5)
Click here to listen with your own player(launches your MP3 player)

EPKR Flight Activity (Flightaware)

Listeners: 0 out of 2173 total

Krakow Info: 119.250
Krakow Info: 119.950

EPKT Del/Twr/App
Katowice, Poland

Feed Status: DOWN
Offline since: 2024-07-14 00:02:39 UTC

EPKT 242200Z VRB06KT 6000 MIFG FEW030 14/13 Q1015

Katowice Delivery: 121.800
Katowice Tower: 129.250
Krakow Approach: 135.400
Krakow Approach: 121.075

EPKT Delivery/Approach
Katowice, Poland

Feed Status: DOWN
Offline since: 2024-07-14 00:02:22 UTC

EPKT 242200Z VRB06KT 6000 MIFG FEW030 14/13 Q1015

Katowice Delivery: 121.800
Krakow Approach: 121.075

EPKT Tower/Approach
Katowice, Poland

Feed Status: DOWN
Offline since: 2024-07-14 00:02:22 UTC

EPKT 242200Z VRB06KT 6000 MIFG FEW030 14/13 Q1015

Katowice Tower: 129.250
Krakow Approach: 135.400

EPLB Tower (Archives)
Lublin, Poland

Feed Status: UP
Listen in your browser - HTML5 player(in browser, HTML5)
Click here to listen with your own player(launches your MP3 player)

EPLB 242200Z 28011KT 9999 FEW030CB 18/15 Q1011

EPLB Flight Activity (Flightaware)

Listeners: 0 out of 2173 total

Lublin Tower: 136.430

EPLL Tower (Archives)
Lodz, Poland

Feed Status: UP
Listen in your browser - HTML5 player(in browser, HTML5)
Click here to listen with your own player(launches your MP3 player)

EPLL 242200Z 24003KT CAVOK 15/15 Q1013

EPLL Flight Activity (Flightaware)

Listeners: 0 out of 2173 total

Lodz Tower: 124.230

EPLS CTAF/Radio (Archives)
Leszno, Poland

Feed Status: UP
Listen in your browser - HTML5 player(in browser, HTML5)
Click here to listen with your own player(launches your MP3 player)

EPLS Flight Activity (Flightaware)

Listeners: 0 out of 2173 total

Leszno Radio: 122.305

EPGR Radio (Archives)
Olsztyn, Poland

Feed Status: UP
Listen in your browser - HTML5 player(in browser, HTML5)
Click here to listen with your own player(launches your MP3 player)

EPOD Flight Activity (Flightaware)

Listeners: 0 out of 2173 total

EPGR - Gryzliny Radio: 119.055

EPOD FIS (Archives)
Olsztyn, Poland

Feed Status: UP
Listen in your browser - HTML5 player(in browser, HTML5)
Click here to listen with your own player(launches your MP3 player)

EPOD Flight Activity (Flightaware)

Listeners: 0 out of 2173 total

FIS Olsztyn Informacja: 118.775

EPOD Radio (Archives)
Olsztyn, Poland

Feed Status: UP
Listen in your browser - HTML5 player(in browser, HTML5)
Click here to listen with your own player(launches your MP3 player)

EPOD Flight Activity (Flightaware)

Listeners: 0 out of 2173 total

EPOD - Olsztyn Dajtki Radio: 124.480

EPPO Twr/App/FIS (Archives)
Poznan, Poland

Feed Status: UP
Listen in your browser - HTML5 player(in browser, HTML5)
Click here to listen with your own player(launches your MP3 player)

EPPO 242200Z 32004KT CAVOK 16/14 Q1015

EPPO Flight Activity (Flightaware)

Listeners: 0 out of 2173 total

Poznan Approach: 129.025
Poznan Approach: 127.225
Poznan FIS: 126.300
Poznan Tower: 119.975

EPWA Approach #1 (Archives)
Warsaw, Poland

Feed Status: UP
Listen in your browser - HTML5 player(in browser, HTML5)
Click here to listen with your own player(launches your MP3 player)

EPWA 242200Z 32006KT 9999 -SHRA BKN050CB 19/17 Q1012 NOSIG

EPWA Flight Activity (Flightaware)

Listeners: 4 out of 2173 total

Warsaw Approach: 128.805

EPWA Approach #2 (Archives)
Warsaw, Poland

Feed Status: UP
Listen in your browser - HTML5 player(in browser, HTML5)
Click here to listen with your own player(launches your MP3 player)

EPWA 242200Z 32006KT 9999 -SHRA BKN050CB 19/17 Q1012 NOSIG

EPWA Flight Activity (Flightaware)

Listeners: 1 out of 2173 total

Warsaw Approach: 125.055

EPWA Ground (Archives)
Warsaw, Poland

Feed Status: UP
Listen in your browser - HTML5 player(in browser, HTML5)
Click here to listen with your own player(launches your MP3 player)

EPWA 242200Z 32006KT 9999 -SHRA BKN050CB 19/17 Q1012 NOSIG

EPWA Flight Activity (Flightaware)

Listeners: 1 out of 2173 total

Warsaw Ground: 121.900

EPWA Tower (Archives)
Warsaw, Poland

Feed Status: UP
Listen in your browser - HTML5 player(in browser, HTML5)
Click here to listen with your own player(launches your MP3 player)

EPWA 242200Z 32006KT 9999 -SHRA BKN050CB 19/17 Q1012 NOSIG

EPWA Flight Activity (Flightaware)

Listeners: 0 out of 2173 total

Warsaw Tower: 118.300

ESGG Approach (Archives)
Gothenburg, Sweden

Feed Status: UP
Listen in your browser - HTML5 player(in browser, HTML5)
Click here to listen with your own player(launches your MP3 player)

ESGG 242220Z 24006KT 9999 SCT006 BKN034 14/14 Q1012

ESGG Flight Activity (Flightaware)

Listeners: 0 out of 2173 total

Goteborg Control: 124.205

ESGG Tower (Archives)
Gothenburg, Sweden

Feed Status: UP
Listen in your browser - HTML5 player(in browser, HTML5)
Click here to listen with your own player(launches your MP3 player)

ESGG 242220Z 24006KT 9999 SCT006 BKN034 14/14 Q1012

ESGG Flight Activity (Flightaware)

Listeners: 0 out of 2173 total

Landvetter Tower: 121.680

ESGG Twr/App (Archives)
Gothenburg, Sweden

Feed Status: UP
Listen in your browser - HTML5 player(in browser, HTML5)
Click here to listen with your own player(launches your MP3 player)

ESGG 242220Z 24006KT 9999 SCT006 BKN034 14/14 Q1012

ESGG Flight Activity (Flightaware)

Listeners: 1 out of 2173 total

Goteborg Control: 124.205
Landvetter Tower: 121.680

ESMQ Tower (Archives)
Kalmar, Sweden

Feed Status: UP
Listen in your browser - HTML5 player(in browser, HTML5)
Click here to listen with your own player(launches your MP3 player)

ESMQ 242220Z AUTO 25003KT 4300 NCD 12/12 Q1011

ESMQ Flight Activity (Flightaware)

Listeners: 0 out of 2173 total

Kalmar Tower: 130.805

ESMS Radar (Archives)
Svedala, Sweden

Feed Status: UP
Listen in your browser - HTML5 player(in browser, HTML5)
Click here to listen with your own player(launches your MP3 player)

ESMS 242220Z 29006KT 9999 FEW034 16/12 Q1014

ESMS Flight Activity (Flightaware)

Listeners: 1 out of 2173 total

Sweden Control (Sector L, Malmo): 134.980

ESMS Tower
Svedala, Sweden

Feed Status: DOWN
Offline since: 2024-01-05 09:18:39 UTC

ESMS 242220Z 29006KT 9999 FEW034 16/12 Q1014

Malmo Tower: 118.800

ESOE Tower/Control (Archives)
Orebro, Sweden

Feed Status: UP
Listen in your browser - HTML5 player(in browser, HTML5)
Click here to listen with your own player(launches your MP3 player)

ESOE 242220Z 36002KT 9999 MIFG SCT026 16/15 Q1010

ESOE Flight Activity (Flightaware)

Listeners: 0 out of 2173 total

Orebro Tower: 120.275
Orebro Tower: 120.280
Sweden Control: 131.125
Sweden Control (aircraft only): 131.125

ESPA Twr/Control (Archives)
Lulea, Sweden

Feed Status: UP
Listen in your browser - HTML5 player(in browser, HTML5)
Click here to listen with your own player(launches your MP3 player)

ESPA 242220Z AUTO 12002KT 9999 FEW130/// 19/17 Q1012

ESPA Flight Activity (Flightaware)

Listeners: 1 out of 2173 total

Emergency/Guard: 121.500
Kallax Control: 125.450
Kallax Tower: 128.200
Sweden Control North: 131.050

ESSB Tower (Archives)
Stockholm, Sweden

Feed Status: UP
Listen in your browser - HTML5 player(in browser, HTML5)
Click here to listen with your own player(launches your MP3 player)

ESSB 242220Z AUTO 13002KT 9999 NCD 16/14 Q1011

ESSB Flight Activity (Flightaware)

Listeners: 0 out of 2173 total

Bromma Tower: 118.105

ESSG Misc (Archives)
Ludvika, Sweden

Feed Status: UP
Listen in your browser - HTML5 player(in browser, HTML5)
Click here to listen with your own player(launches your MP3 player)

ESSG Flight Activity (Flightaware)

Listeners: 0 out of 2173 total

Borlange Tower: 127.305
Club Frequency: 123.375
Club Frequency: 123.450
Club Frequency: 123.425
Club Frequency: 123.525
Club Frequency: 123.350
Club Frequency: 123.300
Club Frequency: 123.200
Club Frequency: 123.550
Club Frequency: 123.600
Club Frequency: 123.650
Emergency/Guard: 121.500
Hagfors Airport: 122.230
Karlstad Airport: 119.455
Ludvika Club Freq: 123.150
Mora Airport: 119.055
Orebro Airport: 120.280
Orsa Club Frequency: 123.400
Orsa Club Frequency: 123.500
Scandinavian Mountains Airport: 124.460
Search and Rescue: 123.100
Sweden Control: 131.055
Sweden Control: 131.125
Sweden Control: 131.155
Sweden Control: 132.765
Sweden Control: 131.130
Sweden Control: 129.180
Sweden Control: 128.630
Sweden Control: 132.150
Torsby Airport: 122.055
Vasteras Control: 125.955

ESSL Twr/App/Control (Archives)
Linkoping, Sweden

Feed Status: UP
Listen in your browser - HTML5 player(in browser, HTML5)
Click here to listen with your own player(launches your MP3 player)

ESSL 242220Z AUTO 23003KT 9999 FEW018/// 15/15 Q1011

ESSL Flight Activity (Flightaware)

Listeners: 1 out of 2173 total

Emergency/Guard: 121.500
Linkoping Tower: 118.800
Linkoping Tower (Secondary): 123.400
Ostgota Control: 127.350
Ostgota Control: 126.400
Ostgota Control: 135.850
Ostgota Control: 132.950
Ostgota Control: 128.700
Ostgota Control (Malmen Sector): 133.100
Ostgota Control/Sweden Control: 118.400

ESSP Twr/App/Control (Archives)
Norrkoping, Sweden

Feed Status: UP
Listen in your browser - HTML5 player(in browser, HTML5)
Click here to listen with your own player(launches your MP3 player)

ESSP 242220Z AUTO 00000KT 0400 R09/P1500N R27/P1500D FG OVC005/// 13/13 Q1010

ESSP Flight Activity (Flightaware)

Listeners: 0 out of 2173 total

Kungsangen Tower: 120.355
Osgota Approach/Departure: 132.955
Sweden Control: 118.280
Sweden Control: 118.405
Sweden Control: 134.455

EVRA Approach (Archives)
Riga, Latvia

Feed Status: UP
Listen in your browser - HTML5 player(in browser, HTML5)
Click here to listen with your own player(launches your MP3 player)

EVRA 242220Z 24001KT CAVOK 19/18 Q1011 NOSIG

EVRA Flight Activity (Flightaware)

Listeners: 1 out of 2173 total

Riga Approach: 129.925

EVRA CTAF (Archives)
Riga, Latvia

Feed Status: UP
Listen in your browser - HTML5 player(in browser, HTML5)
Click here to listen with your own player(launches your MP3 player)

EVRA 242220Z 24001KT CAVOK 19/18 Q1011 NOSIG

EVRA Flight Activity (Flightaware)

Listeners: 0 out of 2173 total

Riga Approach (evenings): 134.850
Riga CTAF: 123.950

EVRA FIC (Archives)
Riga, Latvia

Feed Status: UP
Listen in your browser - HTML5 player(in browser, HTML5)
Click here to listen with your own player(launches your MP3 player)

EVRA 242220Z 24001KT CAVOK 19/18 Q1011 NOSIG

EVRA Flight Activity (Flightaware)

Listeners: 0 out of 2173 total

Riga FIC: 120.225

EVRA Tower/Guard (Archives)
Riga, Latvia

Feed Status: UP
Listen in your browser - HTML5 player(in browser, HTML5)
Click here to listen with your own player(launches your MP3 player)

EVRA 242220Z 24001KT CAVOK 19/18 Q1011 NOSIG

EVRA Flight Activity (Flightaware)

Listeners: 0 out of 2173 total

Emergency/Guard: 121.500
Riga Tower: 118.100

EYVI Twr/App/Misc (Archives)
Vilnius, Lithuania

Feed Status: UP
Listen in your browser - HTML5 player(in browser, HTML5)
Click here to listen with your own player(launches your MP3 player)

EYVI 242220Z VRB01KT 9999 SCT040CB 19/19 Q1011 NOSIG

EYVI Flight Activity (Flightaware)

Listeners: 1 out of 2173 total

Emergency / GUARD: 121.500
FlyLAL, AirBaltic transit services: 131.900
FlyLAL, AirBaltic transit services: 131.600
FlyLAL, AirBaltic transit services: 131.500
Kaunas Approach (EYKA): 124.200
Vilnius Approach: 120.700
Vilnius Control: 132.275
Vilnius Control: 133.425
Vilnius Control: 133.300
Vilnius FIS: 123.850
Vilnius Tower: 118.200
Zokniai A/G (mil): 122.775

FIMP Twr/App/Ctr #1 (Archives)
Plaine Magnien, Mauritius

Feed Status: UP
Listen in your browser - HTML5 player(in browser, HTML5)
Click here to listen with your own player(launches your MP3 player)

FIMP 242200Z 00000KT 9999 SCT017 20/17 Q1020


Listeners: 0 out of 2173 total

FIMP Approach: 119.100
FIMP Tower: 118.100
FMEE Approach/Departure: 127.200
Mauritius Centre: 129.300

FIMP Twr/App/Ctr #2 (Archives)
Plaine Magnien, Mauritius

Feed Status: UP
Listen in your browser - HTML5 player(in browser, HTML5)
Click here to listen with your own player(launches your MP3 player)

FIMP 242200Z 00000KT 9999 SCT017 20/17 Q1020


Listeners: 1 out of 2173 total

FIMP Approach: 119.100
FIMP Tower: 118.100
Mauritius Centre: 129.300

FMEE Tower (Archives)
Sainte-Marie, Reunion

Feed Status: UP
Listen in your browser - HTML5 player(in browser, HTML5)
Click here to listen with your own player(launches your MP3 player)

FMEE 242200Z AUTO 14011KT CAVOK 21/16 Q1019 NOSIG


Listeners: 1 out of 2173 total

Gillot Tower: 118.400

FMEP Info #1 (Archives)
Saint-Pierre, Reunion

Feed Status: UP
Listen in your browser - HTML5 player(in browser, HTML5)
Click here to listen with your own player(launches your MP3 player)

FMEP 242200Z AUTO 06006KT CAVOK 19/13 Q1019


Listeners: 0 out of 2173 total

Saint-Pierre Info: 122.400

FMEP Info #2 (Archives)
Saint-Pierre, Reunion

Feed Status: UP
Listen in your browser - HTML5 player(in browser, HTML5)
Click here to listen with your own player(launches your MP3 player)

FMEP 242200Z AUTO 06006KT CAVOK 19/13 Q1019


Listeners: 0 out of 2173 total

Saint-Pierre Info: 122.400

FMMI Twr/App/Center (Archives)
Antananarivo, Madagascar

Feed Status: UP
Listen in your browser - HTML5 player(in browser, HTML5)
Click here to listen with your own player(launches your MP3 player)

FMMI 242230Z VRB01KT 9999 FEW017 BKN020 13/13 Q1023 NOSIG


Listeners: 0 out of 2173 total

Ivato Approach: 125.700
Ivato Tower: 120.100
Tana Control: 128.900

GOBD Gnd/Twr/App
Dakar, Senegal

Feed Status: DOWN
Offline since: 2024-07-19 12:48:21 UTC

GOBD 242200Z VRB04KT 6000 -TSRA SCT010 FEW030CB 24/23 Q1016 NOSIG

Dakar Approach/Departure: 120.500
Dakar Ground: 121.800
Dakar Tower: 118.800

HAAB Approach (Archives)
Addis Ababa, Ethiopia

Feed Status: UP
Listen in your browser - HTML5 player(in browser, HTML5)
Click here to listen with your own player(launches your MP3 player)

HAAB 242200Z 36002KT 9999 BKN024 SCT057 16/15 Q1027


Listeners: 0 out of 2173 total

Bole Approach: 119.700

HAAB Tower (Archives)
Addis Ababa, Ethiopia

Feed Status: UP
Listen in your browser - HTML5 player(in browser, HTML5)
Click here to listen with your own player(launches your MP3 player)

HAAB 242200Z 36002KT 9999 BKN024 SCT057 16/15 Q1027


Listeners: 0 out of 2173 total

Bole Tower: 118.100

LBBG Twr/App (Archives)
Burgas, Bulgaria

Feed Status: UP
Listen in your browser - HTML5 player(in browser, HTML5)
Click here to listen with your own player(launches your MP3 player)

LBBG 242230Z AUTO VRB02KT 9999 FEW009/// 24/18 Q1007 NOSIG

LBBG Flight Activity (Flightaware)

Listeners: 0 out of 2173 total

Burgas Approach: 125.100
Burgas Tower: 118.000

LBPD Tower (Archives)
Plovdiv, Bulgaria

Feed Status: UP
Listen in your browser - HTML5 player(in browser, HTML5)
Click here to listen with your own player(launches your MP3 player)

LBSF 242230Z AUTO 29007KT 9999 FEW075/// 20/17 Q1012 NOSIG

LBSF Flight Activity (Flightaware)

Listeners: 1 out of 2173 total

Plovdiv Tower: 125.500
Plovdiv Tower: 133.600

LBSF ATIS
Sofia, Bulgaria

Feed Status: DOWN
Offline since: 2024-03-10 16:03:06 UTC

LBSF 242230Z AUTO 29007KT 9999 FEW075/// 20/17 Q1012 NOSIG

Sofia ATIS: 126.680

LBSF Sofia Control East
Sofia, Bulgaria

Feed Status: DOWN
Offline since: 2023-08-29 14:53:39 UTC

LBSF 242230Z AUTO 29007KT 9999 FEW075/// 20/17 Q1012 NOSIG

Sofia Control (East/Middle Sector): 129.100
Sofia Control (Varna Sector): 134.700

LBSF Twr/App #1
Sofia, Bulgaria

Feed Status: DOWN
Offline since: 2024-02-13 09:30:06 UTC

LBSF 242230Z AUTO 29007KT 9999 FEW075/// 20/17 Q1012 NOSIG

Sofia Approach: 123.700
Sofia Approach: 129.900
Sofia Tower: 118.100
Sofia Tower: 120.200

LBSF Twr/App #2 (Archives)
Sofia, Bulgaria

Feed Status: UP
Listen in your browser - HTML5 player(in browser, HTML5)
Click here to listen with your own player(launches your MP3 player)

LBSF 242230Z AUTO 29007KT 9999 FEW075/// 20/17 Q1012 NOSIG

LBSF Flight Activity (Flightaware)

Listeners: 1 out of 2173 total

Sofia Approach: 123.700
Sofia Tower: 118.100

LHBP Approach (Archives)
Budapest, Hungary

Feed Status: UP
Listen in your browser - HTML5 player(in browser, HTML5)
Click here to listen with your own player(launches your MP3 player)

LHBP 242230Z 31009KT CAVOK 19/12 Q1013 NOSIG

LHBP Flight Activity (Flightaware)

Listeners: 1 out of 2173 total

Budapest Approach: 122.975
Budapest Approach (Upper): 123.860

LHBP Approach (Director) (Archives)
Budapest, Hungary

Feed Status: UP
Listen in your browser - HTML5 player(in browser, HTML5)
Click here to listen with your own player(launches your MP3 player)

LHBP 242230Z 31009KT CAVOK 19/12 Q1013 NOSIG

LHBP Flight Activity (Flightaware)

Listeners: 0 out of 2173 total

Budapest Director: 119.510

LHBP ATIS (Archives)
Budapest, Hungary

Feed Status: UP
Listen in your browser - HTML5 player(in browser, HTML5)
Click here to listen with your own player(launches your MP3 player)

LHBP 242230Z 31009KT CAVOK 19/12 Q1013 NOSIG

LHBP Flight Activity (Flightaware)

Listeners: 0 out of 2173 total

Budapest ATIS: 132.380

LHBP Clearance Delivery (Archives)
Budapest, Hungary

Feed Status: UP
Listen in your browser - HTML5 player(in browser, HTML5)
Click here to listen with your own player(launches your MP3 player)

LHBP 242230Z 31009KT CAVOK 19/12 Q1013 NOSIG

LHBP Flight Activity (Flightaware)

Listeners: 0 out of 2173 total

Budapest Clearance Delivery: 134.540

LHBP Ground (Archives)
Budapest, Hungary

Feed Status: UP
Listen in your browser - HTML5 player(in browser, HTML5)
Click here to listen with your own player(launches your MP3 player)

LHBP 242230Z 31009KT CAVOK 19/12 Q1013 NOSIG

LHBP Flight Activity (Flightaware)

Listeners: 0 out of 2173 total

Budapest Ground: 121.910

LHBP Info (Archives)
Budapest, Hungary

Feed Status: UP
Listen in your browser - HTML5 player(in browser, HTML5)
Click here to listen with your own player(launches your MP3 player)

LHBP 242230Z 31009KT CAVOK 19/12 Q1013 NOSIG

LHBP Flight Activity (Flightaware)

Listeners: 0 out of 2173 total

Budapest Info: 119.350

LHBP Tower #2 (Archives)
Budapest, Hungary

Feed Status: UP
Listen in your browser - HTML5 player(in browser, HTML5)
Click here to listen with your own player(launches your MP3 player)

LHBP 242230Z 31009KT CAVOK 19/12 Q1013 NOSIG

LHBP Flight Activity (Flightaware)

Listeners: 4 out of 2173 total

Budapest Tower: 118.100

LHBP Tower (Backup) (Archives)
Budapest, Hungary

Feed Status: UP
Listen in your browser - HTML5 player(in browser, HTML5)
Click here to listen with your own player(launches your MP3 player)

LHBP 242230Z 31009KT CAVOK 19/12 Q1013 NOSIG

LHBP Flight Activity (Flightaware)

Listeners: 0 out of 2173 total


LHBP Twr/Info (Archives)
Budapest, Hungary

Feed Status: UP
Listen in your browser - HTML5 player(in browser, HTML5)
Click here to listen with your own player(launches your MP3 player)

LHBP 242230Z 31009KT CAVOK 19/12 Q1013 NOSIG

LHBP Flight Activity (Flightaware)

Listeners: 0 out of 2173 total

Budapest Info: 119.350
Budapest Tower: 118.100

LHCC Control (East/West) (Archives)
Budapest, Hungary

Feed Status: UP
Listen in your browser - HTML5 player(in browser, HTML5)
Click here to listen with your own player(launches your MP3 player)

LHBP 242230Z 31009KT CAVOK 19/12 Q1013 NOSIG

LHBP Flight Activity (Flightaware)

Listeners: 0 out of 2173 total

Budapest Control (East Low Sector): 120.375
Budapest Control (West Low Sector): 133.200

LHDC Info/Tower (Archives)
Debrecen, Hungary

Feed Status: UP
Listen in your browser - HTML5 player(in browser, HTML5)
Click here to listen with your own player(launches your MP3 player)

LHDC 242145Z AUTO VRB02KT CAVOK 17/15 Q1012 NOSIG

LHDC Flight Activity (Flightaware)

Listeners: 0 out of 2173 total

Debrecen Info/Tower: 125.900

LHFH CTAF
Farkashegy, Hungary

Feed Status: DOWN
Offline since: 2024-07-24 22:38:39 UTC

Farkashegy Info (CTAF): 125.610

HF VOLMET 5505 EINN (Archives)
Shannon, Ireland

Feed Status: UP
Listen in your browser - HTML5 player(in browser, HTML5)
Click here to listen with your own player(launches your MP3 player)

EINN 242200Z 25011KT 9999 FEW007 BKN008 16/14 Q1012 NOSIG

EINN Flight Activity (Flightaware)

Listeners: 0 out of 2173 total

Shannon VOLMET 5505: 5.505

LJLJ Info (Archives)
Ljubljana, Slovenia

Feed Status: UP
Listen in your browser - HTML5 player(in browser, HTML5)
Click here to listen with your own player(launches your MP3 player)

LJLJ 242200Z VRB01KT 9999 FEW060 SCT120 19/18 Q1016 NOSIG

LJLJ Flight Activity (Flightaware)

Listeners: 0 out of 2173 total

Ljubljana Info: 118.475

LJLJ Radar (Archives)
Ljubljana, Slovenia

Feed Status: UP
Listen in your browser - HTML5 player(in browser, HTML5)
Click here to listen with your own player(launches your MP3 player)

LJLJ 242200Z VRB01KT 9999 FEW060 SCT120 19/18 Q1016 NOSIG

LJLJ Flight Activity (Flightaware)

Listeners: 1 out of 2173 total

Ljubljana Approach: 135.275

LJLJ Tower (Archives)
Ljubljana, Slovenia

Feed Status: UP
Listen in your browser - HTML5 player(in browser, HTML5)
Click here to listen with your own player(launches your MP3 player)

LJLJ 242200Z VRB01KT 9999 FEW060 SCT120 19/18 Q1016 NOSIG

LJLJ Flight Activity (Flightaware)

Listeners: 1 out of 2173 total

Ljubljana Tower: 118.000

LJMB Tower (Archives)
Maribor, Slovenia

Feed Status: UP
Listen in your browser - HTML5 player(in browser, HTML5)
Click here to listen with your own player(launches your MP3 player)

LJMB 242200Z AUTO 33005KT 9999 NSC 18/14 Q1016

LJMB Flight Activity (Flightaware)

Listeners: 0 out of 2173 total

Maribor Tower/Approach: 119.200

LJMS CTAF
Murska Sobota, Slovenia

Feed Status: DOWN
Offline since: 2024-02-02 11:59:40 UTC

Murska Sobota Aerodrome Radio: 123.500

LJNM CTAF (Archives)
Novo Mesto, Slovenia

Feed Status: UP
Listen in your browser - HTML5 player(in browser, HTML5)
Click here to listen with your own player(launches your MP3 player)

LJNM Flight Activity (Flightaware)

Listeners: 0 out of 2173 total

Novo Mesto Aerodrome Radio: 123.505

LJPZ Tower (Archives)
Secovlje, Slovenia

Feed Status: UP
Listen in your browser - HTML5 player(in browser, HTML5)
Click here to listen with your own player(launches your MP3 player)

LJPZ 242200Z AUTO VRB02KT 9999 NSC 22/16 Q1012

LJPZ Flight Activity (Flightaware)

Listeners: 1 out of 2173 total

Portoroz Tower: 124.875

LKPM Tower (Archives)
Pribram, Czech Republic

Feed Status: UP
Listen in your browser - HTML5 player(in browser, HTML5)
Click here to listen with your own player(launches your MP3 player)

LKPM Flight Activity (Flightaware)

Listeners: 0 out of 2173 total

Pribram Tower: 118.755

LKTB Gnd/Twr/Radar (Archives)
Brno, Czech Republic

Feed Status: UP
Listen in your browser - HTML5 player(in browser, HTML5)
Click here to listen with your own player(launches your MP3 player)

LKTB 242200Z 35003KT 290V010 CAVOK 17/13 Q1016 NOSIG

LKTB Flight Activity (Flightaware)

Listeners: 1 out of 2173 total

Brno Ground: 125.430
Brno Handling: 131.800
Brno Tower: 119.605
Praha Radar (Approach): 127.350

LPBJ App/Dep (Archives)
Beja, Portugal

Feed Status: UP
Listen in your browser - HTML5 player(in browser, HTML5)
Click here to listen with your own player(launches your MP3 player)

LPBJ 242200Z 26008KT CAVOK 23/17 Q1015

LPBJ Flight Activity (Flightaware)

Listeners: 0 out of 2173 total

Beja Approach: 130.090

LPBJ Tower (Archives)
Beja, Portugal

Feed Status: UP
Listen in your browser - HTML5 player(in browser, HTML5)
Click here to listen with your own player(launches your MP3 player)

LPBJ 242200Z 26008KT CAVOK 23/17 Q1015

LPBJ Flight Activity (Flightaware)

Listeners: 0 out of 2173 total

Beja Tower: 130.415

LPEV CTAF (Archives)
Evora, Portugal

Feed Status: UP
Listen in your browser - HTML5 player(in browser, HTML5)
Click here to listen with your own player(launches your MP3 player)

LPEV Flight Activity (Flightaware)

Listeners: 0 out of 2173 total

Evora CTAF: 122.705

LPLA Twr/App (Archives)
Lajes, Portugal

Feed Status: UP
Listen in your browser - HTML5 player(in browser, HTML5)
Click here to listen with your own player(launches your MP3 player)

LPLA 242200Z /////KT 9999 FEW020 23/21 Q1025

LPLA Flight Activity (Flightaware)

Listeners: 0 out of 2173 total

Lajes Approach: 135.000
Lajes Tower: 122.100

LPMA Approach (Archives)
Madeira, Portugal

Feed Status: UP
Listen in your browser - HTML5 player(in browser, HTML5)
Click here to listen with your own player(launches your MP3 player)

LPMA 242200Z 01004KT 320V040 9999 FEW015 23/20 Q1018

LPMA Flight Activity (Flightaware)

Listeners: 1 out of 2173 total

Madeira Approach: 119.605

LPPD Approach (Archives)
Ponta Delgada, Portugal

Feed Status: UP
Listen in your browser - HTML5 player(in browser, HTML5)
Click here to listen with your own player(launches your MP3 player)

LPPD 242200Z 01004KT 9999 FEW018 22/18 Q1025

LPPD Flight Activity (Flightaware)

Listeners: 0 out of 2173 total

Ponta Delgada Approach: 119.400

LPPR Approach #1 (Archives)
Porto, Portugal

Feed Status: UP
Listen in your browser - HTML5 player(in browser, HTML5)
Click here to listen with your own player(launches your MP3 player)

LPPR 242200Z 21003KT CAVOK 17/16 Q1015

LPPR Flight Activity (Flightaware)

Listeners: 2 out of 2173 total

Porto Approach: 121.105

LPPT Approach (Archives)
Lisbon, Portugal

Feed Status: UP
Listen in your browser - HTML5 player(in browser, HTML5)
Click here to listen with your own player(launches your MP3 player)

LPPT 242200Z 31014KT 9999 FEW012 20/18 Q1015

LPPT Flight Activity (Flightaware)

Listeners: 7 out of 2173 total

Lisbon Approach: 119.105

LRBV Tower (Archives)
Brasov, Romania

Feed Status: UP
Listen in your browser - HTML5 player(in browser, HTML5)
Click here to listen with your own player(launches your MP3 player)

LRBV 242200Z AUTO VRB03KT 9999 NCD 16/15 Q1012

LRBV Flight Activity (Flightaware)

Listeners: 0 out of 2173 total

Brasov Tower: 118.630

LRCL Twr/App #1 (Archives)
Cluj-Napoca, Romania

Feed Status: UP
Listen in your browser - HTML5 player(in browser, HTML5)
Click here to listen with your own player(launches your MP3 player)

LRCL 242200Z 25005KT 210V280 9999 FEW056 20/15 Q1011

LRCL Flight Activity (Flightaware)

Listeners: 1 out of 2173 total

Cluj Approach: 126.425
Cluj Tower: 118.705
Napoc ACC: 127.075

LRCL Twr/App/ACC
Cluj-Napoca, Romania

Feed Status: DOWN
Offline since: 2024-07-24 21:08:40 UTC

LRCL 242200Z 25005KT 210V280 9999 FEW056 20/15 Q1011

Cluj Approach: 126.430
Cluj Approach: 127.275
Cluj Tower: 118.705
Napoc ACC: 127.075

LROP Ground
Bucharest, Romania

Feed Status: DOWN
Offline since: 2024-07-02 17:07:22 UTC

LROP 242200Z 17004KT CAVOK 20/20 Q1009 NOSIG

Bucharest Ground: 121.855

LROP Radar
Bucharest, Romania

Feed Status: DOWN
Offline since: 2024-07-02 17:07:06 UTC

LROP 242200Z 17004KT CAVOK 20/20 Q1009 NOSIG

Bucharest Radar (Arges Mid sector): 121.175
Bucharest Radar (Arges Top Sector): 123.265
Bucharest Radar (Lomos Top Sector): 132.865

LROP Tower/Approach
Bucharest, Romania

Feed Status: DOWN
Offline since: 2024-07-02 17:07:06 UTC

LROP 242200Z 17004KT CAVOK 20/20 Q1009 NOSIG

Bucharest Approach: 119.415
Bucharest Director: 127.155
Bucharest Tower: 118.805

LROP Twr/App/Radar
Bucharest, Romania

Feed Status: DOWN
Offline since: 2024-07-02 17:07:22 UTC

LROP 242200Z 17004KT CAVOK 20/20 Q1009 NOSIG

Bucharest Approach: 119.415
Bucharest Director: 127.155
Bucharest Radar (Arges Mid sector): 121.175
Bucharest Radar (Arges Top Sector): 123.265
Bucharest Radar (Lomos Top Sector): 132.865
Bucharest Tower: 118.805

LRSB Tower/CTAF (Archives)
Sibiu, Romania

Feed Status: UP
Listen in your browser - HTML5 player(in browser, HTML5)
Click here to listen with your own player(launches your MP3 player)

LRSB 242200Z 15002KT CAVOK 16/16 Q1011 NOSIG

LRSB Flight Activity (Flightaware)

Listeners: 0 out of 2173 total

Sibiu Tower: 121.305

LRTR Tower (Archives)
Timisoara, Romania

Feed Status: UP
Listen in your browser - HTML5 player(in browser, HTML5)
Click here to listen with your own player(launches your MP3 player)

LRTR 242200Z 04004KT 360V070 CAVOK 20/17 Q1011

LRTR Flight Activity (Flightaware)

Listeners: 0 out of 2173 total

ARAD Approach: 127.250
Timisoara Tower: 120.100

LSGG Arr/Dep (Archives)
Geneva, Switzerland

Feed Status: UP
Listen in your browser - HTML5 player(in browser, HTML5)
Click here to listen with your own player(launches your MP3 player)

LSGG 242220Z AUTO 35002KT CAVOK 19/14 Q1018 NOSIG

LSGG Flight Activity (Flightaware)

Listeners: 3 out of 2173 total

Geneva Arrival: 136.255
Geneva Departure: 119.530

LSGG Arrival (Archives)
Geneva, Switzerland

Feed Status: UP
Listen in your browser - HTML5 player(in browser, HTML5)
Click here to listen with your own player(launches your MP3 player)

LSGG 242220Z AUTO 35002KT CAVOK 19/14 Q1018 NOSIG

LSGG Flight Activity (Flightaware)

Listeners: 0 out of 2173 total

Geneva Arrival: 136.255

LSGG ATIS (Archives)
Geneva, Switzerland

Feed Status: UP
Listen in your browser - HTML5 player(in browser, HTML5)
Click here to listen with your own player(launches your MP3 player)

LSGG 242220Z AUTO 35002KT CAVOK 19/14 Q1018 NOSIG

LSGG Flight Activity (Flightaware)

Listeners: 0 out of 2173 total

Geneva ATIS: 135.575

LSGG Delta (VFR) (Archives)
Geneva, Switzerland

Feed Status: UP
Listen in your browser - HTML5 player(in browser, HTML5)
Click here to listen with your own player(launches your MP3 player)

LSGG 242220Z AUTO 35002KT CAVOK 19/14 Q1018 NOSIG

LSGG Flight Activity (Flightaware)

Listeners: 0 out of 2173 total

Geneva Delta (VFR): 119.175

LSGG Departure (Archives)
Geneva, Switzerland

Feed Status: UP
Listen in your browser - HTML5 player(in browser, HTML5)
Click here to listen with your own player(launches your MP3 player)

LSGG 242220Z AUTO 35002KT CAVOK 19/14 Q1018 NOSIG

LSGG Flight Activity (Flightaware)

Listeners: 0 out of 2173 total

Geneva Departure: 119.530

LSGG Glider (Archives)
Geneva, Switzerland

Feed Status: UP
Listen in your browser - HTML5 player(in browser, HTML5)
Click here to listen with your own player(launches your MP3 player)

LSGG 242220Z AUTO 35002KT CAVOK 19/14 Q1018 NOSIG

LSGG Flight Activity (Flightaware)

Listeners: 0 out of 2173 total

Geneva Glider: 124.750

LSGG Info (VFR) (Archives)
Geneva, Switzerland

Feed Status: UP
Listen in your browser - HTML5 player(in browser, HTML5)
Click here to listen with your own player(launches your MP3 player)

LSGG 242220Z AUTO 35002KT CAVOK 19/14 Q1018 NOSIG

LSGG Flight Activity (Flightaware)

Listeners: 0 out of 2173 total

Geneva Information (VFR): 126.350

LSGG Radar Ini N/E/S (Archives)
Geneva, Switzerland

Feed Status: UP
Listen in your browser - HTML5 player(in browser, HTML5)
Click here to listen with your own player(launches your MP3 player)

LSGG 242220Z AUTO 35002KT CAVOK 19/14 Q1018 NOSIG

LSGG Flight Activity (Flightaware)

Listeners: 0 out of 2173 total

Geneva Radar Initial East: 128.905
Geneva Radar Initial North: 134.030
Geneva Radar Initial South: 124.225

LSGG Radar Initial East (Archives)
Geneva, Switzerland

Feed Status: UP
Listen in your browser - HTML5 player(in browser, HTML5)
Click here to listen with your own player(launches your MP3 player)

LSGG 242220Z AUTO 35002KT CAVOK 19/14 Q1018 NOSIG

LSGG Flight Activity (Flightaware)

Listeners: 0 out of 2173 total

Geneva Radar Initial East: 128.905

LSGG Radar Initial North (Archives)
Geneva, Switzerland

Feed Status: UP
Listen in your browser - HTML5 player(in browser, HTML5)
Click here to listen with your own player(launches your MP3 player)

LSGG 242220Z AUTO 35002KT CAVOK 19/14 Q1018 NOSIG

LSGG Flight Activity (Flightaware)

Listeners: 0 out of 2173 total

Geneva Radar Initial North: 134.030

LSGG Radar Initial South (Archives)
Geneva, Switzerland

Feed Status: UP
Listen in your browser - HTML5 player(in browser, HTML5)
Click here to listen with your own player(launches your MP3 player)

LSGG 242220Z AUTO 35002KT CAVOK 19/14 Q1018 NOSIG

LSGG Flight Activity (Flightaware)

Listeners: 0 out of 2173 total

Geneva Radar Initial South: 124.225

LSGG Radar L1 250-280 (Archives)
Geneva, Switzerland

Feed Status: UP
Listen in your browser - HTML5 player(in browser, HTML5)
Click here to listen with your own player(launches your MP3 player)

LSGG 242220Z AUTO 35002KT CAVOK 19/14 Q1018 NOSIG

LSGG Flight Activity (Flightaware)

Listeners: 0 out of 2173 total

Geneva Radar L1 FL250-280: 134.850

LSGG Radar L1/L2/L3/L4/L5 (Archives)
Geneva, Switzerland

Feed Status: UP
Listen in your browser - HTML5 player(in browser, HTML5)
Click here to listen with your own player(launches your MP3 player)

LSGG 242220Z AUTO 35002KT CAVOK 19/14 Q1018 NOSIG

LSGG Flight Activity (Flightaware)

Listeners: 0 out of 2173 total

Geneva Radar L1 FL250-280: 134.850
Geneva Radar L2 FL290-310: 126.050
Geneva Radar L3 FL320-330: 134.315
Geneva Radar L3 FL320-330: 136.015
Geneva Radar L5 FL360-370: 128.155

LSGG Radar L2 290-310 (Archives)
Geneva, Switzerland

Feed Status: UP
Listen in your browser - HTML5 player(in browser, HTML5)
Click here to listen with your own player(launches your MP3 player)

LSGG 242220Z AUTO 35002KT CAVOK 19/14 Q1018 NOSIG

LSGG Flight Activity (Flightaware)

Listeners: 0 out of 2173 total

Geneva Radar L2 FL290-310: 126.050

LSGG Radar L3 320-330 (Archives)
Geneva, Switzerland

Feed Status: UP
Listen in your browser - HTML5 player(in browser, HTML5)
Click here to listen with your own player(launches your MP3 player)

LSGG 242220Z AUTO 35002KT CAVOK 19/14 Q1018 NOSIG

LSGG Flight Activity (Flightaware)

Listeners: 0 out of 2173 total

Geneva Radar L3 FL320-330: 134.315

LSGG Radar L4 340-350 (Archives)
Geneva, Switzerland

Feed Status: UP
Listen in your browser - HTML5 player(in browser, HTML5)
Click here to listen with your own player(launches your MP3 player)

LSGG 242220Z AUTO 35002KT CAVOK 19/14 Q1018 NOSIG

LSGG Flight Activity (Flightaware)

Listeners: 0 out of 2173 total

Geneva Radar L4 FL340-350: 136.015

LSGG Radar L5 360-370 (Archives)
Geneva, Switzerland

Feed Status: UP
Listen in your browser - HTML5 player(in browser, HTML5)
Click here to listen with your own player(launches your MP3 player)

LSGG 242220Z AUTO 35002KT CAVOK 19/14 Q1018 NOSIG

LSGG Flight Activity (Flightaware)

Listeners: 0 out of 2173 total

Geneva Radar L5 FL360-370: 128.155

LSGS Gnd/Twr/App
Sion, Switzerland

Feed Status: DOWN
Offline since: 2024-07-22 20:20:23 UTC

LSGS 242220Z AUTO VRB03KT CAVOK 21/14 Q1017

Alpine Jet Service Handling: 131.675
Sion Airport Handling: 131.475
Sion Approach (IFR ARR MIL OFF): 126.825
Sion Ground: 121.700
Sion Tower: 118.275

LSMD Tower (Archives)
Dubendorf, Switzerland

Feed Status: UP
Listen in your browser - HTML5 player(in browser, HTML5)
Click here to listen with your own player(launches your MP3 player)

LSZH 242220Z AUTO 31004KT 9999 BKN043 15/12 Q1019 NOSIG

LSZH Flight Activity (Flightaware)

Listeners: 0 out of 2173 total

Dubendorf Tower: 118.975

LSMP Arrival (Archives)
Payerne, Switzerland

Feed Status: UP
Listen in your browser - HTML5 player(in browser, HTML5)
Click here to listen with your own player(launches your MP3 player)

LSMP 242220Z AUTO 05002KT 9999NDV FEW046 17/14 Q1019 RMK

LSMP Flight Activity (Flightaware)

Listeners: 0 out of 2173 total

Payerne Arrival: 136.350

LSMP Arrival/Tower (Archives)
Payerne, Switzerland

Feed Status: UP
Listen in your browser - HTML5 player(in browser, HTML5)
Click here to listen with your own player(launches your MP3 player)

LSMP 242220Z AUTO 05002KT 9999NDV FEW046 17/14 Q1019 RMK

LSMP Flight Activity (Flightaware)

Listeners: 0 out of 2173 total

Payerne Arrival: 136.350
Payerne Tower: 128.675

LSMP Tower (Archives)
Payerne, Switzerland

Feed Status: UP
Listen in your browser - HTML5 player(in browser, HTML5)
Click here to listen with your own player(launches your MP3 player)

LSMP 242220Z AUTO 05002KT 9999NDV FEW046 17/14 Q1019 RMK

LSMP Flight Activity (Flightaware)

Listeners: 0 out of 2173 total

Payerne Tower: 128.675

LSMV Heli Tower
Davos, Switzerland

Feed Status: DOWN
Offline since: 2024-03-27 09:38:06 UTC

LSMV Tower: 120.425

LSPM AFIS
Ambri, Switzerland

Feed Status: DOWN
Offline since: 2024-07-02 02:26:40 UTC

Ambri AFIS: 118.525

LSZA Tower (Archives)
Agno, Switzerland

Feed Status: UP
Listen in your browser - HTML5 player(in browser, HTML5)
Click here to listen with your own player(launches your MP3 player)

LSZA 242220Z AUTO VRB01KT 9999 NCD 22/17 Q1014

LSZA Flight Activity (Flightaware)

Listeners: 0 out of 2173 total

Lugano Tower: 120.250

LSZB App/Dep (Archives)
Bern, Switzerland

Feed Status: UP
Listen in your browser - HTML5 player(in browser, HTML5)
Click here to listen with your own player(launches your MP3 player)

LSZB 242220Z AUTO VRB01KT 9999 NCD 16/13 Q1019

LSZB Flight Activity (Flightaware)

Listeners: 0 out of 2173 total

Bern Arrival/Departure: 127.325

LSZB ATIS (Archives)
Bern, Switzerland

Feed Status: UP
Listen in your browser - HTML5 player(in browser, HTML5)
Click here to listen with your own player(launches your MP3 player)

LSZB 242220Z AUTO VRB01KT 9999 NCD 16/13 Q1019

LSZB Flight Activity (Flightaware)

Listeners: 0 out of 2173 total

Bern ATIS: 125.130

LSZB Clearance Delivery (Archives)
Bern, Switzerland

Feed Status: UP
Listen in your browser - HTML5 player(in browser, HTML5)
Click here to listen with your own player(launches your MP3 player)

LSZB 242220Z AUTO VRB01KT 9999 NCD 16/13 Q1019

LSZB Flight Activity (Flightaware)

Listeners: 0 out of 2173 total

Bern Clearance Delivery: 121.905

LSZB Del/Twr/App/Dep (Archives)
Bern, Switzerland

Feed Status: UP
Listen in your browser - HTML5 player(in browser, HTML5)
Click here to listen with your own player(launches your MP3 player)

LSZB 242220Z AUTO VRB01KT 9999 NCD 16/13 Q1019

LSZB Flight Activity (Flightaware)

Listeners: 1 out of 2173 total

Bern Arrival/Departure: 127.325
Bern Clearance Delivery: 121.905
Bern Tower: 121.025

LSZB Tower (Archives)
Bern, Switzerland

Feed Status: UP
Listen in your browser - HTML5 player(in browser, HTML5)
Click here to listen with your own player(launches your MP3 player)

LSZB 242220Z AUTO VRB01KT 9999 NCD 16/13 Q1019

LSZB Flight Activity (Flightaware)

Listeners: 0 out of 2173 total

Bern Tower: 121.025

LSZB Twr/App/Dep (Archives)
Bern, Switzerland

Feed Status: UP
Listen in your browser - HTML5 player(in browser, HTML5)
Click here to listen with your own player(launches your MP3 player)

LSZB 242220Z AUTO VRB01KT 9999 NCD 16/13 Q1019

LSZB Flight Activity (Flightaware)

Listeners: 0 out of 2173 total

Bern Arrival/Departure: 127.325
Bern Tower: 121.025

LSZG Tower (Archives)
Grenchen, Switzerland

Feed Status: UP
Listen in your browser - HTML5 player(in browser, HTML5)
Click here to listen with your own player(launches your MP3 player)

LSZG 242220Z AUTO 05001KT CAVOK 16/13 Q1019

LSZG Flight Activity (Flightaware)

Listeners: 0 out of 2173 total

Grenchen Tower: 120.100

LSZH Approach (East) (Archives)
Zurich, Switzerland

Feed Status: UP
Listen in your browser - HTML5 player(in browser, HTML5)
Click here to listen with your own player(launches your MP3 player)

LSZH 242220Z AUTO 31004KT 9999 BKN043 15/12 Q1019 NOSIG

LSZH Flight Activity (Flightaware)

Listeners: 2 out of 2173 total

Zurich Approach (East): 135.230

LSZH Apron (North) (Archives)
Zurich, Switzerland

Feed Status: UP
Listen in your browser - HTML5 player(in browser, HTML5)
Click here to listen with your own player(launches your MP3 player)

LSZH 242220Z AUTO 31004KT 9999 BKN043 15/12 Q1019 NOSIG

LSZH Flight Activity (Flightaware)

Listeners: 0 out of 2173 total

Zurich Apron (North): 121.855

LSZH Apron (South) (Archives)
Zurich, Switzerland

Feed Status: UP
Listen in your browser - HTML5 player(in browser, HTML5)
Click here to listen with your own player(launches your MP3 player)

LSZH 242220Z AUTO 31004KT 9999 BKN043 15/12 Q1019 NOSIG

LSZH Flight Activity (Flightaware)

Listeners: 1 out of 2173 total

Zurich Apron (South): 121.755

LSZH Clearance Delivery (Archives)
Zurich, Switzerland

Feed Status: UP
Listen in your browser - HTML5 player(in browser, HTML5)
Click here to listen with your own player(launches your MP3 player)

LSZH 242220Z AUTO 31004KT 9999 BKN043 15/12 Q1019 NOSIG

LSZH Flight Activity (Flightaware)

Listeners: 0 out of 2173 total

Zurich Clearance Delivery: 121.925

LSZH Ground (Archives)
Zurich, Switzerland

Feed Status: UP
Listen in your browser - HTML5 player(in browser, HTML5)
Click here to listen with your own player(launches your MP3 player)

LSZH 242220Z AUTO 31004KT 9999 BKN043 15/12 Q1019 NOSIG

LSZH Flight Activity (Flightaware)

Listeners: 0 out of 2173 total

Zurich Ground: 121.905

LSZH Radar East 133.905 (Archives)
Zurich, Switzerland

Feed Status: UP
Listen in your browser - HTML5 player(in browser, HTML5)
Click here to listen with your own player(launches your MP3 player)

LSZH 242220Z AUTO 31004KT 9999 BKN043 15/12 Q1019 NOSIG

LSZH Flight Activity (Flightaware)

Listeners: 0 out of 2173 total

Zurich Radar (Below FL240 East): 133.905

LSZH Radar M1 133.050 (Archives)
Zurich, Switzerland

Feed Status: UP
Listen in your browser - HTML5 player(in browser, HTML5)
Click here to listen with your own player(launches your MP3 player)

LSZH 242220Z AUTO 31004KT 9999 BKN043 15/12 Q1019 NOSIG

LSZH Flight Activity (Flightaware)

Listeners: 0 out of 2173 total

Zurich Radar M1: 133.050

LSZH Radar M2 133.405 (Archives)
Zurich, Switzerland

Feed Status: UP
Listen in your browser - HTML5 player(in browser, HTML5)
Click here to listen with your own player(launches your MP3 player)

LSZH 242220Z AUTO 31004KT 9999 BKN043 15/12 Q1019 NOSIG

LSZH Flight Activity (Flightaware)

Listeners: 0 out of 2173 total

Zurich Radar M2: 133.405

LSZH Radar M3 132.815 (Archives)
Zurich, Switzerland

Feed Status: UP
Listen in your browser - HTML5 player(in browser, HTML5)
Click here to listen with your own player(launches your MP3 player)

LSZH 242220Z AUTO 31004KT 9999 BKN043 15/12 Q1019 NOSIG

LSZH Flight Activity (Flightaware)

Listeners: 0 out of 2173 total

Zurich Radar: 132.815

LSZH Radar M4 134.605 (Archives)
Zurich, Switzerland

Feed Status: UP
Listen in your browser - HTML5 player(in browser, HTML5)
Click here to listen with your own player(launches your MP3 player)

LSZH 242220Z AUTO 31004KT 9999 BKN043 15/12 Q1019 NOSIG

LSZH Flight Activity (Flightaware)

Listeners: 0 out of 2173 total

Zurich Radar M4: 134.605

LSZH Radar M5 132.835 (Archives)
Zurich, Switzerland

Feed Status: UP
Listen in your browser - HTML5 player(in browser, HTML5)
Click here to listen with your own player(launches your MP3 player)

LSZH 242220Z AUTO 31004KT 9999 BKN043 15/12 Q1019 NOSIG

LSZH Flight Activity (Flightaware)

Listeners: 0 out of 2173 total

Zurich Radar M5: 132.835

LSZH Radar M6 133.690 (Archives)
Zurich, Switzerland

Feed Status: UP
Listen in your browser - HTML5 player(in browser, HTML5)
Click here to listen with your own player(launches your MP3 player)

LSZH 242220Z AUTO 31004KT 9999 BKN043 15/12 Q1019 NOSIG

LSZH Flight Activity (Flightaware)

Listeners: 0 out of 2173 total

Zurich Radar M6: 133.690

LSZH Radar North 136.155 (Archives)
Zurich, Switzerland

Feed Status: UP
Listen in your browser - HTML5 player(in browser, HTML5)
Click here to listen with your own player(launches your MP3 player)

LSZH 242220Z AUTO 31004KT 9999 BKN043 15/12 Q1019 NOSIG

LSZH Flight Activity (Flightaware)

Listeners: 0 out of 2173 total

Zurich Radar (Below FL240 North): 136.155

LSZH Radar West 135.680 (Archives)
Zurich, Switzerland

Feed Status: UP
Listen in your browser - HTML5 player(in browser, HTML5)
Click here to listen with your own player(launches your MP3 player)

LSZH 242220Z AUTO 31004KT 9999 BKN043 15/12 Q1019 NOSIG

LSZH Flight Activity (Flightaware)

Listeners: 0 out of 2173 total


LSZH Tower (Archives)
Zurich, Switzerland

Feed Status: UP
Listen in your browser - HTML5 player(in browser, HTML5)
Click here to listen with your own player(launches your MP3 player)

LSZH 242220Z AUTO 31004KT 9999 BKN043 15/12 Q1019 NOSIG

LSZH Flight Activity (Flightaware)

Listeners: 4 out of 2173 total

Zurich Tower: 118.100

LSZH Tower (14/32) (Archives)
Zurich, Switzerland

Feed Status: UP
Listen in your browser - HTML5 player(in browser, HTML5)
Click here to listen with your own player(launches your MP3 player)

LSZH 242220Z AUTO 31004KT 9999 BKN043 15/12 Q1019 NOSIG

LSZH Flight Activity (Flightaware)

Listeners: 2 out of 2173 total

Zurich Tower (Rwy 14 App/32 Takeoff): 120.225

LSZH Twr/Gnd (backup) (Archives)
Zurich, Switzerland

Feed Status: UP
Listen in your browser - HTML5 player(in browser, HTML5)
Click here to listen with your own player(launches your MP3 player)

LSZH 242220Z AUTO 31004KT 9999 BKN043 15/12 Q1019 NOSIG

LSZH Flight Activity (Flightaware)

Listeners: 0 out of 2173 total

Zurich Twr/Gnd (backup): 119.700

LSZL Tower (Archives)
Locarno, Switzerland

Feed Status: UP
Listen in your browser - HTML5 player(in browser, HTML5)
Click here to listen with your own player(launches your MP3 player)

LSZL 242220Z AUTO 05003KT 330V140 9999NDV FEW094 23/16 Q1013 RMK

LSZL Flight Activity (Flightaware)

Listeners: 0 out of 2173 total


LSZN CTAF (Archives)
Zurich, Switzerland

Feed Status: UP
Listen in your browser - HTML5 player(in browser, HTML5)
Click here to listen with your own player(launches your MP3 player)

LSZN Flight Activity (Flightaware)

Listeners: 0 out of 2173 total

Hausen am Albis CTAF: 130.755

LSZR Tower (Archives)
Altenrhein, Switzerland

Feed Status: UP
Listen in your browser - HTML5 player(in browser, HTML5)
Click here to listen with your own player(launches your MP3 player)

LSZR 242220Z AUTO VRB01KT 9999 NCD 18/16 Q1019

LSZR Flight Activity (Flightaware)

Listeners: 0 out of 2173 total

Altenrhein Tower: 135.425

LSZW CTAF (Archives)
Thun, Switzerland

Feed Status: UP
Listen in your browser - HTML5 player(in browser, HTML5)
Click here to listen with your own player(launches your MP3 player)

LSZW Flight Activity (Flightaware)

Listeners: 0 out of 2173 total

Thun CTAF/Info: 123.250

LTAF Tower
Adana, Turkey

Feed Status: DOWN
Offline since: 2023-12-06 10:07:22 UTC

LTAF 242220Z 12004KT 9999 FEW030 29/27 Q1000 NOSIG

Adana Tower: 121.100

LTBA Gnd/Twr/App (Archives)
Istanbul, Turkey

Feed Status: UP
Listen in your browser - HTML5 player(in browser, HTML5)
Click here to listen with your own player(launches your MP3 player)

LTBA 242220Z 06008KT CAVOK 26/20 Q1005

LTBA Flight Activity (Flightaware)

Listeners: 1 out of 2173 total

Istanbul Approach: 126.425
Istanbul Approach: 133.075
Istanbul Tower: 118.100
Istanbul Tower: 118.375

LTFJ Del/Gnd/Twr (Archives)
Istanbul, Turkey

Feed Status: UP
Listen in your browser - HTML5 player(in browser, HTML5)
Click here to listen with your own player(launches your MP3 player)

LTFJ 242220Z 03009KT CAVOK 24/20 Q1006 NOSIG

LTFJ Flight Activity (Flightaware)

Listeners: 1 out of 2173 total

Gokcen Clearance Delivery: 122.625
Gokcen Ground: 121.750
Gokcen Tower: 118.800
Gokcen Tower (West): 120.925
Pegasus Dispatch: 131.750

LUKK Tower/Approach (Archives)
Chisinau, Moldova

Feed Status: UP
Listen in your browser - HTML5 player(in browser, HTML5)
Click here to listen with your own player(launches your MP3 player)

LUKK 242230Z VRB02KT CAVOK 21/18 Q1008 NOSIG

LUKK Flight Activity (Flightaware)

Listeners: 0 out of 2173 total

Chisinau Approach: 133.300
Chisinau Tower: 118.100

LWSK ACC (Lower) (Archives)
Petrovec, North Macedonia, Republic of

Feed Status: UP
Listen in your browser - HTML5 player(in browser, HTML5)
Click here to listen with your own player(launches your MP3 player)

LWSK 242220Z VRB02KT 9999 SCT079 21/18 Q1011 NOSIG

LWSK Flight Activity (Flightaware)

Listeners: 0 out of 2173 total

Skopje Control (Lower): 119.375

LWSK ACC (Upper) (Archives)
Petrovec, North Macedonia, Republic of

Feed Status: UP
Listen in your browser - HTML5 player(in browser, HTML5)
Click here to listen with your own player(launches your MP3 player)

LWSK 242220Z VRB02KT 9999 SCT079 21/18 Q1011 NOSIG

LWSK Flight Activity (Flightaware)

Listeners: 0 out of 2173 total

Skopje Control (Upper): 120.015

LWSK Approach (Archives)
Petrovec, North Macedonia, Republic of

Feed Status: UP
Listen in your browser - HTML5 player(in browser, HTML5)
Click here to listen with your own player(launches your MP3 player)

LWSK 242220Z VRB02KT 9999 SCT079 21/18 Q1011 NOSIG

LWSK Flight Activity (Flightaware)

Listeners: 0 out of 2173 total

Skopje Approach/Departure: 120.300

LWSK ATIS (Archives)
Petrovec, North Macedonia, Republic of

Feed Status: UP
Listen in your browser - HTML5 player(in browser, HTML5)
Click here to listen with your own player(launches your MP3 player)

LWSK 242220Z VRB02KT 9999 SCT079 21/18 Q1011 NOSIG

LWSK Flight Activity (Flightaware)

Listeners: 0 out of 2173 total

Skopje ATIS: 130.125

LWSK Tower (Archives)
Petrovec, North Macedonia, Republic of

Feed Status: UP
Listen in your browser - HTML5 player(in browser, HTML5)
Click here to listen with your own player(launches your MP3 player)

LWSK 242220Z VRB02KT 9999 SCT079 21/18 Q1011 NOSIG

LWSK Flight Activity (Flightaware)

Listeners: 1 out of 2173 total

Skopje Tower: 118.500

LYNI Twr/App (Archives)
Nis, Serbia

Feed Status: UP
Listen in your browser - HTML5 player(in browser, HTML5)
Click here to listen with your own player(launches your MP3 player)

LYNI 242200Z 24003KT CAVOK 20/18 Q1012 NOSIG

LYNI Flight Activity (Flightaware)

Listeners: 0 out of 2173 total

Nis Approach: 119.525
Nis Approach/Tower (Alternate): 136.075
Nis Tower: 118.950

LZIB Gnd/Twr/App (Archives)
Bratislava, Slovakia

Feed Status: UP
Listen in your browser - HTML5 player(in browser, HTML5)
Click here to listen with your own player(launches your MP3 player)

LZIB 242230Z 33006KT CAVOK 20/12 Q1015 NOSIG

LZIB Flight Activity (Flightaware)

Listeners: 1 out of 2173 total

BTS Handling: 131.850
Stefanik Ground: 120.900
Stefanik Ground: 121.700
Stefanik Radar: 134.925
Stefanik Tower: 118.300

LZKZ Gnd/Twr/App (Archives)
Kosice, Slovakia

Feed Status: UP
Listen in your browser - HTML5 player(in browser, HTML5)
Click here to listen with your own player(launches your MP3 player)

LZKZ 242230Z 06007KT CAVOK 17/14 Q1012 NOSIG

LZKZ Flight Activity (Flightaware)

Listeners: 0 out of 2173 total

Kosice Approach: 129.350
Kosice Approach (backup): 119.850
Kosice Ground: 121.700
Kosice Handling: 131.850
Kosice Tower: 120.400

LZNI CTAF (Archives)
Nitra, Slovakia

Feed Status: UP
Listen in your browser - HTML5 player(in browser, HTML5)
Click here to listen with your own player(launches your MP3 player)

LZNI Flight Activity (Flightaware)

Listeners: 0 out of 2173 total

Nitra Traffic Radio: 123.405

LZPE CTAF/UNICOM (Archives)
Prievidza, Slovakia

Feed Status: UP
Listen in your browser - HTML5 player(in browser, HTML5)
Click here to listen with your own player(launches your MP3 player)

LZPE Flight Activity (Flightaware)

Listeners: 0 out of 2173 total

Prievidza CTAF/UNICOM: 123.055

LZPP Ground/Tower (Archives)
Piestany, Slovakia

Feed Status: UP
Listen in your browser - HTML5 player(in browser, HTML5)
Click here to listen with your own player(launches your MP3 player)

LZPP 242200Z 35003KT CAVOK 15/13 Q1015

LZPP Flight Activity (Flightaware)

Listeners: 0 out of 2173 total

Piestany Ground: 121.700
Piestany Tower: 118.575

LZPT CTAF
Partizanske, Slovakia

Feed Status: DOWN
Offline since: 2023-07-03 13:40:39 UTC

Male Bielice CTAF: 123.500

MHLC Gnd/Twr/Center
La Ceiba, Honduras

Feed Status: DOWN
Offline since: 2024-07-19 03:24:05 UTC

MHLC 242200Z 07012G22KT 9999 FEW040 31/25 Q1013 A2992 NOSIG

CENAMER: 123.900
CENAMER: 124.300
Goloson Ground: 121.900
Goloson Tower: 118.500
La Ceiba Radio: 128.900

MHLM Gnd/Twr/App
San Pedro Sula, Honduras

Feed Status: DOWN
Offline since: 2024-05-02 21:45:23 UTC

MHLM 242200Z 05013KT 9999 FEW032TCU FEW034CB 33/24 Q1013 A2991 NOSIG

La Mesa Ground: 121.900
La Mesa Tower: 118.200
San Pedro Sula Approach: 119.700

MHTG ATIS
Tegucigalpa, Honduras

Feed Status: DOWN
Offline since: 2024-07-18 17:40:23 UTC

MHTG 242200Z 13004KT 9999 SCT038 29/17 Q1020 A3012 NOSIG

Toncontin ATIS: 127.750

MHTG Gnd/Twr/App/Ctr/Ops (Archives)
Tegucigalpa, Honduras

Feed Status: UP
Listen in your browser - HTML5 player(in browser, HTML5)
Click here to listen with your own player(launches your MP3 player)

MHTG 242200Z 13004KT 9999 SCT038 29/17 Q1020 A3012 NOSIG

MHTG Flight Activity (Flightaware)

Listeners: 2 out of 2173 total

American Airlines Ops: 130.700
ARINC ACARS: 131.550
Cenamer Center: 123.900
Cenamer Center: 124.300
Cenamer Center: 124.100
CMP Ops: 129.925
Continental Airlines Ops: 129.925
FAH Ground: 122.900
Palmerola (MHPR) Tower: 118.900
Taca Ops: 131.300
Taca Ops Sal: 130.300
Tecnologias Unidas: 133.000
Tegucigalpa RDO: 126.700
Toncontin Approach: 119.100
Toncontin Ground: 121.900
Toncontin Tower: 118.700

MMAN Tower
Monterrey, Mexico

Feed Status: DOWN
Offline since: 2023-12-05 18:41:23 UTC

MMAN 242140Z 31003KT 8SM SCT040 OVC080 26/20 A3010 RMK 8/46/ LWR SC S

Monterrey Tower: 118.600

MMGL Twr/App (Archives)
Guadalajara, Mexico

Feed Status: UP
Listen in your browser - HTML5 player(in browser, HTML5)
Click here to listen with your own player(launches your MP3 player)

MMGL 242149Z 00000KT 7SM BKN025CB BKN100 29/17 A3020 RMK 8/360 HZY CI

MMGL Flight Activity (Flightaware)

Listeners: 2 out of 2173 total

Guadalajara Approach: 120.800
Guadalajara Tower: 118.100

MMHO App/Dep (Archives)
Hermosillo, Mexico

Feed Status: UP
Listen in your browser - HTML5 player(in browser, HTML5)
Click here to listen with your own player(launches your MP3 player)

MMHO 242140Z 27007KT 10SM SCT030 41/20 A2996 RMK 8/100 HZY

MMHO Flight Activity (Flightaware)

Listeners: 0 out of 2173 total

Hermosillo Approach/Departure: 121.400

MMHO Info (Archives)
Hermosillo, Mexico

Feed Status: UP
Listen in your browser - HTML5 player(in browser, HTML5)
Click here to listen with your own player(launches your MP3 player)

MMHO 242140Z 27007KT 10SM SCT030 41/20 A2996 RMK 8/100 HZY

MMHO Flight Activity (Flightaware)

Listeners: 0 out of 2173 total

Hermosillo Info: 122.300

MMHO Tower (Archives)
Hermosillo, Mexico

Feed Status: UP
Listen in your browser - HTML5 player(in browser, HTML5)
Click here to listen with your own player(launches your MP3 player)

MMHO 242140Z 27007KT 10SM SCT030 41/20 A2996 RMK 8/100 HZY

MMHO Flight Activity (Flightaware)

Listeners: 0 out of 2173 total

Hermosillo Tower: 118.700

MMHO Twr/App (Archives)
Hermosillo, Mexico

Feed Status: UP
Listen in your browser - HTML5 player(in browser, HTML5)
Click here to listen with your own player(launches your MP3 player)

MMHO 242140Z 27007KT 10SM SCT030 41/20 A2996 RMK 8/100 HZY

MMHO Flight Activity (Flightaware)

Listeners: 0 out of 2173 total

Hermosillo Approach/Departure: 121.400
Hermosillo Info: 122.300
Hermosillo Tower: 118.700

MMLP Twr/App (Archives)
La Paz, Mexico

Feed Status: UP
Listen in your browser - HTML5 player(in browser, HTML5)
Click here to listen with your own player(launches your MP3 player)

MMLP 242145Z 34008KT 10SM FEW200 36/16 A2995 RMK 8/008 ISOL SC AC

MMLP Flight Activity (Flightaware)

Listeners: 0 out of 2173 total

La Paz Approach: 120.600
La Paz Tower: 118.100

MMMD App/Dep
Merida, Mexico

Feed Status: DOWN
Offline since: 2024-07-24 22:40:05 UTC

MMMD 242141Z 13003KT 6SM BKN020 34/24 A2998 RMK 8/100 HZY

Merida Approach: 121.200

MMMD Merida Center 125.2/128.2
Merida, Mexico

Feed Status: DOWN
Offline since: 2024-07-24 18:30:40 UTC

MMMD 242141Z 13003KT 6SM BKN020 34/24 A2998 RMK 8/100 HZY

Merida Center: 125.200
Merida Center: 128.200

MMMD Merida Center 125.8/123.75
Merida, Mexico

Feed Status: DOWN
Offline since: 2024-07-24 22:40:05 UTC

MMMD 242141Z 13003KT 6SM BKN020 34/24 A2998 RMK 8/100 HZY

Merida Center: 125.800
Merida Center: 123.750

MMMD Tower
Merida, Mexico

Feed Status: DOWN
Offline since: 2024-07-24 22:40:05 UTC

MMMD 242141Z 13003KT 6SM BKN020 34/24 A2998 RMK 8/100 HZY

Merida Tower: 118.300

MMMX Aeromexico Ops (Archives)
Mexico City, Mexico

Feed Status: UP
Listen in your browser - HTML5 player(in browser, HTML5)
Click here to listen with your own player(launches your MP3 player)

MMMX 242145Z 10014KT 6SM VCRA SCT020CB BKN080 OVC220 20/14 A3035 NOSIG RMK 8/963 HZY PCPN E W

MMMX Flight Activity (Flightaware)

Listeners: 1 out of 2173 total

Aeromexico Ops: 131.000

MMMX Approach (Archives)
Mexico City, Mexico

Feed Status: UP
Listen in your browser - HTML5 player(in browser, HTML5)
Click here to listen with your own player(launches your MP3 player)

MMMX 242145Z 10014KT 6SM VCRA SCT020CB BKN080 OVC220 20/14 A3035 NOSIG RMK 8/963 HZY PCPN E W

MMMX Flight Activity (Flightaware)

Listeners: 4 out of 2173 total

Mexico City Approach: 121.200

MMMX Approach (CVJ/PBC) (Archives)
Mexico City, Mexico

Feed Status: UP
Listen in your browser - HTML5 player(in browser, HTML5)
Click here to listen with your own player(launches your MP3 player)

MMMX 242145Z 10014KT 6SM VCRA SCT020CB BKN080 OVC220 20/14 A3035 NOSIG RMK 8/963 HZY PCPN E W

MMMX Flight Activity (Flightaware)

Listeners: 0 out of 2173 total

Mexico City Approach (CVJ/PBC): 119.250

MMMX Approach (Final) (Archives)
Mexico City, Mexico

Feed Status: UP
Listen in your browser - HTML5 player(in browser, HTML5)
Click here to listen with your own player(launches your MP3 player)

MMMX 242145Z 10014KT 6SM VCRA SCT020CB BKN080 OVC220 20/14 A3035 NOSIG RMK 8/963 HZY PCPN E W

MMMX Flight Activity (Flightaware)

Listeners: 1 out of 2173 total

Mexico City Approach (Final): 119.750

MMMX Arrival (North) (Archives)
Mexico City, Mexico

Feed Status: UP
Listen in your browser - HTML5 player(in browser, HTML5)
Click here to listen with your own player(launches your MP3 player)

MMMX 242145Z 10014KT 6SM VCRA SCT020CB BKN080 OVC220 20/14 A3035 NOSIG RMK 8/963 HZY PCPN E W

MMMX Flight Activity (Flightaware)

Listeners: 1 out of 2173 total

Mexico City Arrival (North): 129.650

MMMX Arrival (North/South) (Archives)
Mexico City, Mexico

Feed Status: UP
Listen in your browser - HTML5 player(in browser, HTML5)
Click here to listen with your own player(launches your MP3 player)

MMMX 242145Z 10014KT 6SM VCRA SCT020CB BKN080 OVC220 20/14 A3035 NOSIG RMK 8/963 HZY PCPN E W

MMMX Flight Activity (Flightaware)

Listeners: 0 out of 2173 total

Mexico City Arrival (North): 129.650
Mexico City Arrival (South): 119.100

MMMX Arrival (South) (Archives)
Mexico City, Mexico

Feed Status: UP
Listen in your browser - HTML5 player(in browser, HTML5)
Click here to listen with your own player(launches your MP3 player)

MMMX 242145Z 10014KT 6SM VCRA SCT020CB BKN080 OVC220 20/14 A3035 NOSIG RMK 8/963 HZY PCPN E W

MMMX Flight Activity (Flightaware)

Listeners: 0 out of 2173 total

Mexico City Arrival (South): 119.100

MMMX ATIS (Archives)
Mexico City, Mexico

Feed Status: UP
Listen in your browser - HTML5 player(in browser, HTML5)
Click here to listen with your own player(launches your MP3 player)

MMMX 242145Z 10014KT 6SM VCRA SCT020CB BKN080 OVC220 20/14 A3035 NOSIG RMK 8/963 HZY PCPN E W

MMMX Flight Activity (Flightaware)

Listeners: 1 out of 2173 total

Mexico City ATIS: 127.650

MMMX Center (Southeast) (Archives)
Mexico City, Mexico

Feed Status: UP
Listen in your browser - HTML5 player(in browser, HTML5)
Click here to listen with your own player(launches your MP3 player)

MMMX 242145Z 10014KT 6SM VCRA SCT020CB BKN080 OVC220 20/14 A3035 NOSIG RMK 8/963 HZY PCPN E W

MMMX Flight Activity (Flightaware)

Listeners: 0 out of 2173 total

Mexico Center (Southeast): 128.250

MMMX Center (West)
Mexico City, Mexico

Feed Status: DOWN
Offline since: 2024-07-22 16:49:40 UTC

MMMX 242145Z 10014KT 6SM VCRA SCT020CB BKN080 OVC220 20/14 A3035 NOSIG RMK 8/963 HZY PCPN E W

Mexico Center (West): 125.100

MMMX Clearance Delivery (Archives)
Mexico City, Mexico

Feed Status: UP
Listen in your browser - HTML5 player(in browser, HTML5)
Click here to listen with your own player(launches your MP3 player)

MMMX 242145Z 10014KT 6SM VCRA SCT020CB BKN080 OVC220 20/14 A3035 NOSIG RMK 8/963 HZY PCPN E W

MMMX Flight Activity (Flightaware)

Listeners: 0 out of 2173 total

Mexico City Clearance Delivery: 122.100

MMMX Departure (North) (Archives)
Mexico City, Mexico

Feed Status: UP
Listen in your browser - HTML5 player(in browser, HTML5)
Click here to listen with your own player(launches your MP3 player)

MMMX 242145Z 10014KT 6SM VCRA SCT020CB BKN080 OVC220 20/14 A3035 NOSIG RMK 8/963 HZY PCPN E W

MMMX Flight Activity (Flightaware)

Listeners: 0 out of 2173 total

Mexico City Departure (North): 120.500

MMMX Departure (South) (Archives)
Mexico City, Mexico

Feed Status: UP
Listen in your browser - HTML5 player(in browser, HTML5)
Click here to listen with your own player(launches your MP3 player)

MMMX 242145Z 10014KT 6SM VCRA SCT020CB BKN080 OVC220 20/14 A3035 NOSIG RMK 8/963 HZY PCPN E W

MMMX Flight Activity (Flightaware)

Listeners: 0 out of 2173 total

Mexico City Departure (South): 129.100

MMMX Ground (North) (Archives)
Mexico City, Mexico

Feed Status: UP
Listen in your browser - HTML5 player(in browser, HTML5)
Click here to listen with your own player(launches your MP3 player)

MMMX 242145Z 10014KT 6SM VCRA SCT020CB BKN080 OVC220 20/14 A3035 NOSIG RMK 8/963 HZY PCPN E W

MMMX Flight Activity (Flightaware)

Listeners: 0 out of 2173 total

Mexico City Ground (North): 121.850

MMMX Ground (North/South) (Archives)
Mexico City, Mexico

Feed Status: UP
Listen in your browser - HTML5 player(in browser, HTML5)
Click here to listen with your own player(launches your MP3 player)

MMMX 242145Z 10014KT 6SM VCRA SCT020CB BKN080 OVC220 20/14 A3035 NOSIG RMK 8/963 HZY PCPN E W

MMMX Flight Activity (Flightaware)

Listeners: 0 out of 2173 total

Mexico City Ground (North): 121.850
Mexico City Ground (South): 121.000

MMMX Ground (South) (Archives)
Mexico City, Mexico

Feed Status: UP
Listen in your browser - HTML5 player(in browser, HTML5)
Click here to listen with your own player(launches your MP3 player)

MMMX 242145Z 10014KT 6SM VCRA SCT020CB BKN080 OVC220 20/14 A3035 NOSIG RMK 8/963 HZY PCPN E W

MMMX Flight Activity (Flightaware)

Listeners: 0 out of 2173 total

Mexico City Ground (South): 121.000

MMMX Ground 122.8 (Archives)
Mexico City, Mexico

Feed Status: UP
Listen in your browser - HTML5 player(in browser, HTML5)
Click here to listen with your own player(launches your MP3 player)

MMMX 242145Z 10014KT 6SM VCRA SCT020CB BKN080 OVC220 20/14 A3035 NOSIG RMK 8/963 HZY PCPN E W

MMMX Flight Activity (Flightaware)

Listeners: 0 out of 2173 total

Mexico City Ground: 122.800

MMMX Mexico Center North (Archives)
Mexico City, Mexico

Feed Status: UP
Listen in your browser - HTML5 player(in browser, HTML5)
Click here to listen with your own player(launches your MP3 player)

MMMX 242145Z 10014KT 6SM VCRA SCT020CB BKN080 OVC220 20/14 A3035 NOSIG RMK 8/963 HZY PCPN E W

MMMX Flight Activity (Flightaware)

Listeners: 0 out of 2173 total

Mexico Center North: 133.100

MMMX Military Parade (Escuadron 3) (Archives)
Mexico City, Mexico

Feed Status: UP
Listen in your browser - HTML5 player(in browser, HTML5)
Click here to listen with your own player(launches your MP3 player)

MMMX 242145Z 10014KT 6SM VCRA SCT020CB BKN080 OVC220 20/14 A3035 NOSIG RMK 8/963 HZY PCPN E W

MMMX Flight Activity (Flightaware)

Listeners: 0 out of 2173 total

Military Air Parade (Escuadron 3): 129.250

MMMX Military Parade (Palacio)
Mexico City, Mexico

Feed Status: DOWN
Offline since: 2024-07-22 16:49:40 UTC

MMMX 242145Z 10014KT 6SM VCRA SCT020CB BKN080 OVC220 20/14 A3035 NOSIG RMK 8/963 HZY PCPN E W

Military Air Parade (Palacio): 126.200

MMMX Tower (Archives)
Mexico City, Mexico

Feed Status: UP
Listen in your browser - HTML5 player(in browser, HTML5)
Click here to listen with your own player(launches your MP3 player)

MMMX 242145Z 10014KT 6SM VCRA SCT020CB BKN080 OVC220 20/14 A3035 NOSIG RMK 8/963 HZY PCPN E W

MMMX Flight Activity (Flightaware)

Listeners: 2 out of 2173 total

Mexico City Tower: 124.700
Mexico City Tower: 118.550
Mexico City Tower: 118.700

MMMX Tower (Helicopters) (Archives)
Mexico City, Mexico

Feed Status: UP
Listen in your browser - HTML5 player(in browser, HTML5)
Click here to listen with your own player(launches your MP3 player)

MMMX 242145Z 10014KT 6SM VCRA SCT020CB BKN080 OVC220 20/14 A3035 NOSIG RMK 8/963 HZY PCPN E W

MMMX Flight Activity (Flightaware)

Listeners: 1 out of 2173 total

Mexico City Tower (Helicopters): 118.150

MMMX UNICOM (Archives)
Mexico City, Mexico

Feed Status: UP
Listen in your browser - HTML5 player(in browser, HTML5)
Click here to listen with your own player(launches your MP3 player)

MMMX 242145Z 10014KT 6SM VCRA SCT020CB BKN080 OVC220 20/14 A3035 NOSIG RMK 8/963 HZY PCPN E W

MMMX Flight Activity (Flightaware)

Listeners: 1 out of 2173 total

Mexico City UNICOM: 122.500

MMMX Volaris Ops (Archives)
Mexico City, Mexico

Feed Status: UP
Listen in your browser - HTML5 player(in browser, HTML5)
Click here to listen with your own player(launches your MP3 player)

MMMX 242145Z 10014KT 6SM VCRA SCT020CB BKN080 OVC220 20/14 A3035 NOSIG RMK 8/963 HZY PCPN E W

MMMX Flight Activity (Flightaware)

Listeners: 0 out of 2173 total

Volaris Ops: 130.375

MMMY Tower/Approach (Archives)
Monterrey, Mexico

Feed Status: UP
Listen in your browser - HTML5 player(in browser, HTML5)
Click here to listen with your own player(launches your MP3 player)

MMMY 242140Z 30008KT 5SM SCT025 OVC070 24/22 A3009 RMK 60455 8/46/ HZ -RAE20 OCNL DROPS

MMMY Flight Activity (Flightaware)

Listeners: 4 out of 2173 total

Monterrey Approach/Departure: 119.750
Monterrey Tower: 118.100

MMPC CTAF (Archives)
Pachuca, Mexico

Feed Status: UP
Listen in your browser - HTML5 player(in browser, HTML5)
Click here to listen with your own player(launches your MP3 player)

MMPC Flight Activity (Flightaware)

Listeners: 0 out of 2173 total

Pachuca CTAF/AFIS: 122.900

MMQT Tower/App (Archives)
Queretaro, Mexico

Feed Status: UP
Listen in your browser - HTML5 player(in browser, HTML5)
Click here to listen with your own player(launches your MP3 player)

MMQT 242156Z 35015KT 7SM BKN020CB BKN120 OVC250 22/15 A3034 RMK 8/367 BINOVC

MMQT Flight Activity (Flightaware)

Listeners: 0 out of 2173 total

Queretaro Approach: 127.200
Queretaro Tower: 118.950

MMMX Departure (North) (Archives)
Santa Lucia, Mexico

Feed Status: UP
Listen in your browser - HTML5 player(in browser, HTML5)
Click here to listen with your own player(launches your MP3 player)

MMMX 242145Z 10014KT 6SM VCRA SCT020CB BKN080 OVC220 20/14 A3035 NOSIG RMK 8/963 HZY PCPN E W

MMMX Flight Activity (Flightaware)

Listeners: 0 out of 2173 total

Mexico City Departure (North): 120.500

MMSM Approach (119.0) (Archives)
Santa Lucia, Mexico

Feed Status: UP
Listen in your browser - HTML5 player(in browser, HTML5)
Click here to listen with your own player(launches your MP3 player)

MMMX 242145Z 10014KT 6SM VCRA SCT020CB BKN080 OVC220 20/14 A3035 NOSIG RMK 8/963 HZY PCPN E W

MMMX Flight Activity (Flightaware)

Listeners: 0 out of 2173 total

Santa Lucia Approach: 119.000

MMSM Approach (128.85) (Archives)
Santa Lucia, Mexico

Feed Status: UP
Listen in your browser - HTML5 player(in browser, HTML5)
Click here to listen with your own player(launches your MP3 player)

MMMX 242145Z 10014KT 6SM VCRA SCT020CB BKN080 OVC220 20/14 A3035 NOSIG RMK 8/963 HZY PCPN E W

MMMX Flight Activity (Flightaware)

Listeners: 0 out of 2173 total

Santa Lucia Approach: 128.850

MMSM ATIS (Archives)
Santa Lucia, Mexico

Feed Status: UP
Listen in your browser - HTML5 player(in browser, HTML5)
Click here to listen with your own player(launches your MP3 player)

MMMX 242145Z 10014KT 6SM VCRA SCT020CB BKN080 OVC220 20/14 A3035 NOSIG RMK 8/963 HZY PCPN E W

MMMX Flight Activity (Flightaware)

Listeners: 0 out of 2173 total

Santa Lucia ATIS:

MMSM Clearance Delivery (Archives)
Santa Lucia, Mexico

Feed Status: UP
Listen in your browser - HTML5 player(in browser, HTML5)
Click here to listen with your own player(launches your MP3 player)

MMMX 242145Z 10014KT 6SM VCRA SCT020CB BKN080 OVC220 20/14 A3035 NOSIG RMK 8/963 HZY PCPN E W

MMMX Flight Activity (Flightaware)

Listeners: 0 out of 2173 total

Santa Lucia Clearance Delivery: 121.900

MMSM Ground (Archives)
Santa Lucia, Mexico

Feed Status: UP
Listen in your browser - HTML5 player(in browser, HTML5)
Click here to listen with your own player(launches your MP3 player)

MMMX 242145Z 10014KT 6SM VCRA SCT020CB BKN080 OVC220 20/14 A3035 NOSIG RMK 8/963 HZY PCPN E W

MMMX Flight Activity (Flightaware)

Listeners: 0 out of 2173 total

Santa Lucia Ground: 121.800

MMSM Tower 118.25 (Archives)
Santa Lucia, Mexico

Feed Status: UP
Listen in your browser - HTML5 player(in browser, HTML5)
Click here to listen with your own player(launches your MP3 player)

MMMX 242145Z 10014KT 6SM VCRA SCT020CB BKN080 OVC220 20/14 A3035 NOSIG RMK 8/963 HZY PCPN E W

MMMX Flight Activity (Flightaware)

Listeners: 0 out of 2173 total

Santa Lucia Tower: 118.250

MMSM Tower 118.3 (Archives)
Santa Lucia, Mexico

Feed Status: UP
Listen in your browser - HTML5 player(in browser, HTML5)
Click here to listen with your own player(launches your MP3 player)

MMMX 242145Z 10014KT 6SM VCRA SCT020CB BKN080 OVC220 20/14 A3035 NOSIG RMK 8/963 HZY PCPN E W

MMMX Flight Activity (Flightaware)

Listeners: 0 out of 2173 total

Santa Lucia Tower: 118.300

MMTC Twr/App/Center #1
Torreon, Mexico

Feed Status: DOWN
Offline since: 2024-07-15 06:13:05 UTC

MMTC 242146Z 26008KT 5SM BKN015CB OVC080 24/22 A3021 RMK 60055 8/36/ -RAE38 BINOVC COND VRB

Mazatlan Center: 124.200
Mazatlan Center: 124.400
Mazatlan Center: 128.000
Mexico Center: 123.900
Monterrey Center: 125.600
Monterrey Center: 125.425
Monterrey Center: 127.400
Torreon Approach: 119.500
Torreon Tower: 118.500

MMTC Twr/App/Center #2 (Archives)
Torreon, Mexico

Feed Status: UP
Listen in your browser - HTML5 player(in browser, HTML5)
Click here to listen with your own player(launches your MP3 player)

MMTC 242146Z 26008KT 5SM BKN015CB OVC080 24/22 A3021 RMK 60055 8/36/ -RAE38 BINOVC COND VRB

MMTC Flight Activity (Flightaware)

Listeners: 0 out of 2173 total

Chihuahua Approach: 121.000
Mazatlan Center: 128.000
Mazatlan Center: 124.200
Mexico Center: 123.900
Monterrey Approach: 119.750
Monterrey Center: 127.400
Monterrey Center: 126.400
Monterrey Center: 125.600
Monterrey Center: 125.425
Torreon Approach: 119.600
Torreon Tower: 118.500

MMTJ Approach (Archives)
Tijuana, Mexico

Feed Status: UP
Listen in your browser - HTML5 player(in browser, HTML5)
Click here to listen with your own player(launches your MP3 player)

MMTJ 242143Z 25013KT 10SM SKC 27/17 A3003 RMK HZY DSNT CB E

MMTJ Flight Activity (Flightaware)

Listeners: 0 out of 2173 total

Tijuana Approach: 120.300

MMTJ Twr/Ramp (Archives)
Tijuana, Mexico

Feed Status: UP
Listen in your browser - HTML5 player(in browser, HTML5)
Click here to listen with your own player(launches your MP3 player)

MMTJ 242143Z 25013KT 10SM SKC 27/17 A3003 RMK HZY DSNT CB E

MMTJ Flight Activity (Flightaware)

Listeners: 2 out of 2173 total

Tijuana Ramp: 126.100
Tijuana Tower: 118.100

MPMG Ground
Panama City, Panama

Feed Status: DOWN
Offline since: 2024-01-03 22:57:06 UTC

MPMG 242200Z 19004KT 140V220 9999 FEW008 SCT016CB SCT090 30/26 Q1011 TEMPO TS

Gelabert Ground: 121.700

MPMG Tower
Panama City, Panama

Feed Status: DOWN
Offline since: 2024-02-07 01:20:05 UTC

MPMG 242200Z 19004KT 140V220 9999 FEW008 SCT016CB SCT090 30/26 Q1011 TEMPO TS

Gelabert Tower: 118.300

Panama App/Dep #2 (Archives)
Panama City, Panama

Feed Status: UP
Listen in your browser - HTML5 player(in browser, HTML5)
Click here to listen with your own player(launches your MP3 player)

MPPA 242210Z 00000KT 9999 5000N TS VCSH SCT016CB BKN200 29/26 Q1011

MPPA Flight Activity (Flightaware)

Listeners: 7 out of 2173 total

Panama Approach: 119.700
Panama Departure: 119.200

Panama Approach #1
Panama City, Panama

Feed Status: DOWN
Offline since: 2024-01-03 22:57:06 UTC

MPMG 242200Z 19004KT 140V220 9999 FEW008 SCT016CB SCT090 30/26 Q1011 TEMPO TS

Panama Approach: 119.700

Panama Center #1
Panama City, Panama

Feed Status: DOWN
Offline since: 2024-02-07 01:15:06 UTC

MPMG 242200Z 19004KT 140V220 9999 FEW008 SCT016CB SCT090 30/26 Q1011 TEMPO TS

Panama Center: 134.900
Panama Center (North): 133.300
Panama Center (North): 125.500
Panama Center (South): 123.300
Panama Center (South): 133.000

Panama Center #2 (Archives)
Panama City, Panama

Feed Status: UP
Listen in your browser - HTML5 player(in browser, HTML5)
Click here to listen with your own player(launches your MP3 player)

MPPA 242210Z 00000KT 9999 5000N TS VCSH SCT016CB BKN200 29/26 Q1011

MPPA Flight Activity (Flightaware)

Listeners: 1 out of 2173 total

Panama Center: 134.900
Panama Center (North): 125.500
Panama Center (North): 133.300
Panama Center (South): 123.300
Panama Center (South): 133.000

Panama Traffic Advisory #1
Panama City, Panama

Feed Status: DOWN
Offline since: 2024-02-07 00:15:06 UTC

MPMG 242200Z 19004KT 140V220 9999 FEW008 SCT016CB SCT090 30/26 Q1011 TEMPO TS

Panama Traffic Advisory: 121.200

MPPA Ground (Archives)
Panama City, Panama

Feed Status: UP
Listen in your browser - HTML5 player(in browser, HTML5)
Click here to listen with your own player(launches your MP3 player)

MPPA 242210Z 00000KT 9999 5000N TS VCSH SCT016CB BKN200 29/26 Q1011

MPPA Flight Activity (Flightaware)

Listeners: 0 out of 2173 total

Pacifico Ground: 121.100

MPPA Ground/Tower (Archives)
Panama City, Panama

Feed Status: UP
Listen in your browser - HTML5 player(in browser, HTML5)
Click here to listen with your own player(launches your MP3 player)

MPPA 242210Z 00000KT 9999 5000N TS VCSH SCT016CB BKN200 29/26 Q1011

MPPA Flight Activity (Flightaware)

Listeners: 2 out of 2173 total

Pacifico Ground: 121.100
Pacifico Tower: 118.900

MPPA Radio (Archives)
Panama City, Panama

Feed Status: UP
Listen in your browser - HTML5 player(in browser, HTML5)
Click here to listen with your own player(launches your MP3 player)

MPPA 242210Z 00000KT 9999 5000N TS VCSH SCT016CB BKN200 29/26 Q1011

MPPA Flight Activity (Flightaware)

Listeners: 1 out of 2173 total

Panama Radio: 123.600
Panama Radio: 126.900

MPPA Tower (Archives)
Panama City, Panama

Feed Status: UP
Listen in your browser - HTML5 player(in browser, HTML5)
Click here to listen with your own player(launches your MP3 player)

MPPA 242210Z 00000KT 9999 5000N TS VCSH SCT016CB BKN200 29/26 Q1011

MPPA Flight Activity (Flightaware)

Listeners: 0 out of 2173 total

Pacifico Tower: 118.900

Panama App/Dep #2 (Archives)
Panama City, Panama

Feed Status: UP
Listen in your browser - HTML5 player(in browser, HTML5)
Click here to listen with your own player(launches your MP3 player)

MPPA 242210Z 00000KT 9999 5000N TS VCSH SCT016CB BKN200 29/26 Q1011

MPPA Flight Activity (Flightaware)

Listeners: 7 out of 2173 total

Panama Approach: 119.700
Panama Departure: 119.200

Panama Approach #1
Panama City, Panama

Feed Status: DOWN
Offline since: 2024-01-03 22:57:06 UTC

MPMG 242200Z 19004KT 140V220 9999 FEW008 SCT016CB SCT090 30/26 Q1011 TEMPO TS

Panama Approach: 119.700

Panama Center #1
Panama City, Panama

Feed Status: DOWN
Offline since: 2024-02-07 01:15:06 UTC

MPMG 242200Z 19004KT 140V220 9999 FEW008 SCT016CB SCT090 30/26 Q1011 TEMPO TS

Panama Center: 134.900
Panama Center (North): 133.300
Panama Center (North): 125.500
Panama Center (South): 123.300
Panama Center (South): 133.000

Panama Center #2 (Archives)
Panama City, Panama

Feed Status: UP
Listen in your browser - HTML5 player(in browser, HTML5)
Click here to listen with your own player(launches your MP3 player)

MPPA 242210Z 00000KT 9999 5000N TS VCSH SCT016CB BKN200 29/26 Q1011

MPPA Flight Activity (Flightaware)

Listeners: 1 out of 2173 total

Panama Center: 134.900
Panama Center (North): 125.500
Panama Center (North): 133.300
Panama Center (South): 123.300
Panama Center (South): 133.000

Panama Traffic Advisory #1
Panama City, Panama

Feed Status: DOWN
Offline since: 2024-02-07 00:15:06 UTC

MPMG 242200Z 19004KT 140V220 9999 FEW008 SCT016CB SCT090 30/26 Q1011 TEMPO TS

Panama Traffic Advisory: 121.200

Panama App/Dep #2 (Archives)
Panama City, Panama

Feed Status: UP
Listen in your browser - HTML5 player(in browser, HTML5)
Click here to listen with your own player(launches your MP3 player)

MPPA 242210Z 00000KT 9999 5000N TS VCSH SCT016CB BKN200 29/26 Q1011

MPPA Flight Activity (Flightaware)

Listeners: 7 out of 2173 total

Panama Approach: 119.700
Panama Departure: 119.200

Panama Approach #1
Panama City, Panama

Feed Status: DOWN
Offline since: 2024-01-03 22:57:06 UTC

MPMG 242200Z 19004KT 140V220 9999 FEW008 SCT016CB SCT090 30/26 Q1011 TEMPO TS

Panama Approach: 119.700

Panama Center #1
Panama City, Panama

Feed Status: DOWN
Offline since: 2024-02-07 01:15:06 UTC

MPMG 242200Z 19004KT 140V220 9999 FEW008 SCT016CB SCT090 30/26 Q1011 TEMPO TS

Panama Center: 134.900
Panama Center (North): 133.300
Panama Center (North): 125.500
Panama Center (South): 123.300
Panama Center (South): 133.000

Panama Center #2 (Archives)
Panama City, Panama

Feed Status: UP
Listen in your browser - HTML5 player(in browser, HTML5)
Click here to listen with your own player(launches your MP3 player)

MPPA 242210Z 00000KT 9999 5000N TS VCSH SCT016CB BKN200 29/26 Q1011

MPPA Flight Activity (Flightaware)

Listeners: 1 out of 2173 total

Panama Center: 134.900
Panama Center (North): 125.500
Panama Center (North): 133.300
Panama Center (South): 123.300
Panama Center (South): 133.000

Panama Traffic Advisory #1
Panama City, Panama

Feed Status: DOWN
Offline since: 2024-02-07 00:15:06 UTC

MPMG 242200Z 19004KT 140V220 9999 FEW008 SCT016CB SCT090 30/26 Q1011 TEMPO TS

Panama Traffic Advisory: 121.200

CENAMER/Panama ACC (Archives)
San Jose, Costa Rica

Feed Status: UP
Listen in your browser - HTML5 player(in browser, HTML5)
Click here to listen with your own player(launches your MP3 player)

MROC 242218Z VRB03KT 9999 VCTS FEW005 FEW015CB BKN120 22/20 A3005 RETSRA NOSIG

MROC Flight Activity (Flightaware)

Listeners: 0 out of 2173 total

Central American Center (CENAMER Control): 124.100
Central American Center (CENAMER Control): 123.900
Central American Center (CENAMER Control): 135.500
Panama Center: 133.000

MROC Approach/Control (Archives)
San Jose, Costa Rica

Feed Status: UP
Listen in your browser - HTML5 player(in browser, HTML5)
Click here to listen with your own player(launches your MP3 player)

MROC 242218Z VRB03KT 9999 VCTS FEW005 FEW015CB BKN120 22/20 A3005 RETSRA NOSIG

MROC Flight Activity (Flightaware)

Listeners: 0 out of 2173 total

Coco Approach: 120.500
Coco Approach (Backup): 128.900
Coco Control: 119.600

MROC Del/Gnd/Twr/App/Center/Misc (Archives)
San Jose, Costa Rica

Feed Status: UP
Listen in your browser - HTML5 player(in browser, HTML5)
Click here to listen with your own player(launches your MP3 player)

MROC 242218Z VRB03KT 9999 VCTS FEW005 FEW015CB BKN120 22/20 A3005 RETSRA NOSIG

MROC Flight Activity (Flightaware)

Listeners: 18 out of 2173 total

Coco Center (Control over CR Airspace): 119.600
Coco Clearance Delivery: 121.300
Coco Ground: 121.900
Coco Terminal Control: 120.500
Coco Tower: 118.600
Coco UNICOM: 126.800

MROC Gnd/Twr/App/Center (Archives)
San Jose, Costa Rica

Feed Status: UP
Listen in your browser - HTML5 player(in browser, HTML5)
Click here to listen with your own player(launches your MP3 player)

MROC 242218Z VRB03KT 9999 VCTS FEW005 FEW015CB BKN120 22/20 A3005 RETSRA NOSIG

MROC Flight Activity (Flightaware)

Listeners: 1 out of 2173 total

Central American Center (CENAMER Control): 124.100
Coco Center (Control over CR Airspace): 119.600
Coco Ground: 121.900
Coco Terminal Control: 120.500
Coco Tower: 118.600

MRPV Ground/Tower (Archives)
San Jose, Costa Rica

Feed Status: UP
Listen in your browser - HTML5 player(in browser, HTML5)
Click here to listen with your own player(launches your MP3 player)

MRPV 242200Z 10007KT 9999 FEW040 BKN120 22/18 A3006 NOSIG

MRPV Flight Activity (Flightaware)

Listeners: 1 out of 2173 total

Pavas Ground: 121.700
Pavas Tower: 118.300

MRQP UNICOM/Radio/Center
Quepos, Costa Rica

Feed Status: DOWN
Offline since: 2024-07-22 14:50:05 UTC

Coco Center: 119.600
Coco Radio: 126.800
CTAF/UNICOM: 122.000
CTAF/UNICOM: 123.000

MSSS Gnd/Twr/App (Archives)
San Salvador, El Salvador

Feed Status: UP
Listen in your browser - HTML5 player(in browser, HTML5)
Click here to listen with your own player(launches your MP3 player)

MSSS 242200Z 14007KT 100V180 9999 FEW020 FEW033TCU 30/22 Q1015 A3000 RMK TCU N NW

MSSS Flight Activity (Flightaware)

Listeners: 5 out of 2173 total

CENAMER (airborne only0: 124.100
CENAMER (airborne only0: 133.500
El Salvador Control: 129.200
El Salvador Tower: 118.000
Ilopango Approach: 129.225
Ilopango Ground: 121.900
Ilopango Radio: 127.050
Ilopango Tower: 118.300

MUFH Havana FIR (App/Center)
Havana, Cuba

Feed Status: DOWN
Offline since: 2024-07-24 11:53:40 UTC

Hava Approach: 120.300
Havana Center: 120.250
Havana Center: 123.700
Havana Center: 124.550
Havana Center: 133.700
Havana Center: 135.100

OBBI Gnd/Twr/App (Archives)
Muharraq, Bahrain

Feed Status: UP
Listen in your browser - HTML5 player(in browser, HTML5)
Click here to listen with your own player(launches your MP3 player)

OBBI 242200Z 25006KT CAVOK 37/23 Q0991 NOSIG


Listeners: 2 out of 2173 total

Bahrain Arrival: 127.850
Bahrain Control (Low Central): 124.300
Bahrain Control (Low East): 125.700
Bahrain Control (Low North): 126.700
Bahrain Departure: 119.100
Bahrain Ground: 121.850
Bahrain Tower: 118.500

OKBK Gnd/Twr/App/Radar (Archives)
Kuwait City, Kuwait

Feed Status: UP
Listen in your browser - HTML5 player(in browser, HTML5)
Click here to listen with your own player(launches your MP3 player)

OKBK 230800Z 06008KT 8000 NSC 22/05 Q1012 NOSIG


Listeners: 3 out of 2173 total

Kuwait Approach: 121.300
Kuwait Approach: 124.800
Kuwait Ground: 121.700
Kuwait Radar (Center): 125.300
Kuwait Tower: 118.300

OPKC Gnd/Twr/Radar (Archives)
Karachi, Pakistan

Feed Status: UP
Listen in your browser - HTML5 player(in browser, HTML5)
Click here to listen with your own player(launches your MP3 player)

OPKC 242230Z 24010KT 4000 FU BKN020 29/26 Q0993 NOSIG


Listeners: 2 out of 2173 total

Karachi Ground: 121.600
Karachi Radar: 125.500
Karachi Tower: 118.300

OPLA ATIS (Archives)
Lahore, Pakistan

Feed Status: UP
Listen in your browser - HTML5 player(in browser, HTML5)
Click here to listen with your own player(launches your MP3 player)

OPLA 242225Z 00000KT 4000 FU SCT040 SCT100 32/26 Q0993 NOSIG RMK QFE968 A29.33


Listeners: 0 out of 2173 total

Lahore ATIS: 126.300

OPLA/OPLH Gnd/Twr/App (Archives)
Lahore, Pakistan

Feed Status: UP
Listen in your browser - HTML5 player(in browser, HTML5)
Click here to listen with your own player(launches your MP3 player)

OPLA 242225Z 00000KT 4000 FU SCT040 SCT100 32/26 Q0993 NOSIG RMK QFE968 A29.33


Listeners: 0 out of 2173 total

Lahore Approach: 121.300
Lahore Approach: 125.300
Lahore Control: 127.500
Lahore Ground: 118.400
Lahore Tower: 118.100
Lahore Tower: 121.800
Walton (OPLH) Tower: 119.400

RCKH Del/Gnd/Twr/App
Kaohsiung, Taiwan

Feed Status: DOWN
Offline since: 2024-07-23 08:37:05 UTC

RCKH 242223Z 22017G37KT 180V280 0400 R27/1200N +SHRA SCT002 BKN005 SCT006CB OVC010 26/26 Q0985 TEMPO 1500 SHRA RMK 23017G31KT/R09 CB E-S-W A2909

Kaohsiung Approach: 135.800
Kaohsiung Approach: 128.100
Kaohsiung Approach: 123.100
Kaohsiung Approach: 121.100
Kaohsiung Approach: 120.600
Kaohsiung Approach: 119.500
Kaohsiung Approach: 119.400
Kaohsiung Approach: 124.700
Kaohsiung Clearance Delivery: 121.900
Kaohsiung Clearance Delivery: 121.800
Kaohsiung Ground: 121.900
Kaohsiung Tower: 120.700
Kaohsiung Tower: 118.700
Kaohsiung Tower (Secondary): 121.800

RCSS Tower/App/Dep (Archives)
Taipei, Taiwan

Feed Status: UP
Listen in your browser - HTML5 player(in browser, HTML5)
Click here to listen with your own player(launches your MP3 player)

RCSS 242200Z 11014KT 8000 -SHRA FEW012 SCT030 BKN080 29/25 Q0974 WS R10 NOSIG RMK QFF 974.9HPA A2879 RA AMT 0.4MM

RCSS Flight Activity (Flightaware)

Listeners: 8 out of 2173 total

Emergency/Guard: 121.500
FIR Service (North of Taiwan): 125.500
Songshan Ground: 121.900
Songshan Tower: 118.100
Taipei Arrival/Departure: 119.700
Taipei Arrival/Departure: 119.600
Taipei Arrival/Departure (RCTP): 125.100

RJAA Approach (Archives)
Tokyo, Japan

Feed Status: UP
Listen in your browser - HTML5 player(in browser, HTML5)
Click here to listen with your own player(launches your MP3 player)

RJAA 242200Z VRB02KT 9999 FEW030 SCT190 BKN/// 28/26 Q1007 NOSIG

RJAA Flight Activity (Flightaware)

Listeners: 31 out of 2173 total

Tokyo Approach: 124.400
Tokyo Approach: 127.700

RJAA ATIS (Archives)
Tokyo, Japan

Feed Status: UP
Listen in your browser - HTML5 player(in browser, HTML5)
Click here to listen with your own player(launches your MP3 player)

RJAA 242200Z VRB02KT 9999 FEW030 SCT190 BKN/// 28/26 Q1007 NOSIG

RJAA Flight Activity (Flightaware)

Listeners: 1 out of 2173 total

Narita ATIS: 128.250

RJAA Clearance Delivery (Archives)
Tokyo, Japan

Feed Status: UP
Listen in your browser - HTML5 player(in browser, HTML5)
Click here to listen with your own player(launches your MP3 player)

RJAA 242200Z VRB02KT 9999 FEW030 SCT190 BKN/// 28/26 Q1007 NOSIG

RJAA Flight Activity (Flightaware)

Listeners: 4 out of 2173 total

Narita Clearance Delivery (Asia/Pacific): 121.650
Narita Clearance Delivery (US/Europe): 121.900

RJAA Clearance Delivery #1 (Archives)
Tokyo, Japan

Feed Status: UP
Listen in your browser - HTML5 player(in browser, HTML5)
Click here to listen with your own player(launches your MP3 player)

RJAA 242200Z VRB02KT 9999 FEW030 SCT190 BKN/// 28/26 Q1007 NOSIG

RJAA Flight Activity (Flightaware)

Listeners: 1 out of 2173 total

Narita Clearance Delivery (Asia/Pacific): 121.650

RJAA Clearance Delivery #2 (Archives)
Tokyo, Japan

Feed Status: UP
Listen in your browser - HTML5 player(in browser, HTML5)
Click here to listen with your own player(launches your MP3 player)

RJAA 242200Z VRB02KT 9999 FEW030 SCT190 BKN/// 28/26 Q1007 NOSIG

RJAA Flight Activity (Flightaware)

Listeners: 1 out of 2173 total

Narita Clearance Delivery (US/Europe): 121.900

RJAA Company Channels (Archives)
Tokyo, Japan

Feed Status: UP
Listen in your browser - HTML5 player(in browser, HTML5)
Click here to listen with your own player(launches your MP3 player)

RJAA 242200Z VRB02KT 9999 FEW030 SCT190 BKN/// 28/26 Q1007 NOSIG

RJAA Flight Activity (Flightaware)

Listeners: 0 out of 2173 total

Ops: 130.450
Ops: 130.550
Ops: 130.900
Ops: 131.025
Ops: 131.100
Ops: 131.200
Ops: 131.700
Ops: 131.750

RJAA Departure (Archives)
Tokyo, Japan

Feed Status: UP
Listen in your browser - HTML5 player(in browser, HTML5)
Click here to listen with your own player(launches your MP3 player)

RJAA 242200Z VRB02KT 9999 FEW030 SCT190 BKN/// 28/26 Q1007 NOSIG

RJAA Flight Activity (Flightaware)

Listeners: 4 out of 2173 total

Tokyo Departure: 119.600
Tokyo Departure: 124.200

RJAA Departure #1 (Archives)
Tokyo, Japan

Feed Status: UP
Listen in your browser - HTML5 player(in browser, HTML5)
Click here to listen with your own player(launches your MP3 player)

RJAA 242200Z VRB02KT 9999 FEW030 SCT190 BKN/// 28/26 Q1007 NOSIG

RJAA Flight Activity (Flightaware)

Listeners: 2 out of 2173 total

Tokyo Departure: 124.200

RJAA Departure #2 (Archives)
Tokyo, Japan

Feed Status: UP
Listen in your browser - HTML5 player(in browser, HTML5)
Click here to listen with your own player(launches your MP3 player)

RJAA 242200Z VRB02KT 9999 FEW030 SCT190 BKN/// 28/26 Q1007 NOSIG

RJAA Flight Activity (Flightaware)

Listeners: 2 out of 2173 total

Tokyo Departure: 119.600

RJAA Emergency/Guard (Archives)
Tokyo, Japan

Feed Status: UP
Listen in your browser - HTML5 player(in browser, HTML5)
Click here to listen with your own player(launches your MP3 player)

RJAA 242200Z VRB02KT 9999 FEW030 SCT190 BKN/// 28/26 Q1007 NOSIG

RJAA Flight Activity (Flightaware)

Listeners: 0 out of 2173 total

Emergency/Guard: 121.500

RJAA Ground #1 (Archives)
Tokyo, Japan

Feed Status: UP
Listen in your browser - HTML5 player(in browser, HTML5)
Click here to listen with your own player(launches your MP3 player)

RJAA 242200Z VRB02KT 9999 FEW030 SCT190 BKN/// 28/26 Q1007 NOSIG

RJAA Flight Activity (Flightaware)

Listeners: 5 out of 2173 total

Narita Ground: 121.850

RJAA Ground #2 (Archives)
Tokyo, Japan

Feed Status: UP
Listen in your browser - HTML5 player(in browser, HTML5)
Click here to listen with your own player(launches your MP3 player)

RJAA 242200Z VRB02KT 9999 FEW030 SCT190 BKN/// 28/26 Q1007 NOSIG

RJAA Flight Activity (Flightaware)

Listeners: 1 out of 2173 total

Narita Ground: 121.950

RJAA Radar 119.025 (Archives)
Tokyo, Japan

Feed Status: UP
Listen in your browser - HTML5 player(in browser, HTML5)
Click here to listen with your own player(launches your MP3 player)

RJAA 242200Z VRB02KT 9999 FEW030 SCT190 BKN/// 28/26 Q1007 NOSIG

RJAA Flight Activity (Flightaware)

Listeners: 0 out of 2173 total

Tokyo Radar: 119.025

RJAA Radar 120.2 (Archives)
Tokyo, Japan

Feed Status: UP
Listen in your browser - HTML5 player(in browser, HTML5)
Click here to listen with your own player(launches your MP3 player)

RJAA 242200Z VRB02KT 9999 FEW030 SCT190 BKN/// 28/26 Q1007 NOSIG

RJAA Flight Activity (Flightaware)

Listeners: 1 out of 2173 total

Tokyo Radar: 120.200

RJAA Radar 120.6 (Archives)
Tokyo, Japan

Feed Status: UP
Listen in your browser - HTML5 player(in browser, HTML5)
Click here to listen with your own player(launches your MP3 player)

RJAA 242200Z VRB02KT 9999 FEW030 SCT190 BKN/// 28/26 Q1007 NOSIG

RJAA Flight Activity (Flightaware)

Listeners: 0 out of 2173 total

Tokyo Radar: 120.600

RJAA Radar 132.1 (Archives)
Tokyo, Japan

Feed Status: UP
Listen in your browser - HTML5 player(in browser, HTML5)
Click here to listen with your own player(launches your MP3 player)

RJAA 242200Z VRB02KT 9999 FEW030 SCT190 BKN/// 28/26 Q1007 NOSIG

RJAA Flight Activity (Flightaware)

Listeners: 0 out of 2173 total

Tokyo Radar: 132.100

RJAA Radar 133.35 (Archives)
Tokyo, Japan

Feed Status: UP
Listen in your browser - HTML5 player(in browser, HTML5)
Click here to listen with your own player(launches your MP3 player)

RJAA 242200Z VRB02KT 9999 FEW030 SCT190 BKN/// 28/26 Q1007 NOSIG

RJAA Flight Activity (Flightaware)

Listeners: 0 out of 2173 total

Tokyo Radar: 133.350

RJAA Ramp #1 (Archives)
Tokyo, Japan

Feed Status: UP
Listen in your browser - HTML5 player(in browser, HTML5)
Click here to listen with your own player(launches your MP3 player)

RJAA 242200Z VRB02KT 9999 FEW030 SCT190 BKN/// 28/26 Q1007 NOSIG

RJAA Flight Activity (Flightaware)

Listeners: 1 out of 2173 total

Narita Ramp: 121.600

RJAA Ramp #2 (Archives)
Tokyo, Japan

Feed Status: UP
Listen in your browser - HTML5 player(in browser, HTML5)
Click here to listen with your own player(launches your MP3 player)

RJAA 242200Z VRB02KT 9999 FEW030 SCT190 BKN/// 28/26 Q1007 NOSIG

RJAA Flight Activity (Flightaware)

Listeners: 2 out of 2173 total

Narita Ramp: 121.750

RJAA TCA (Archives)
Tokyo, Japan

Feed Status: UP
Listen in your browser - HTML5 player(in browser, HTML5)
Click here to listen with your own player(launches your MP3 player)

RJAA 242200Z VRB02KT 9999 FEW030 SCT190 BKN/// 28/26 Q1007 NOSIG

RJAA Flight Activity (Flightaware)

Listeners: 1 out of 2173 total

Tokyo TCA (Terminal Control Area): 119.450

RJAA Tokyo Control (Archives)
Tokyo, Japan

Feed Status: UP
Listen in your browser - HTML5 player(in browser, HTML5)
Click here to listen with your own player(launches your MP3 player)

RJAA 242200Z VRB02KT 9999 FEW030 SCT190 BKN/// 28/26 Q1007 NOSIG

RJAA Flight Activity (Flightaware)

Listeners: 4 out of 2173 total

Tokyo Control: 125.900

RJAA Tower #1 (Archives)
Tokyo, Japan

Feed Status: UP
Listen in your browser - HTML5 player(in browser, HTML5)
Click here to listen with your own player(launches your MP3 player)

RJAA 242200Z VRB02KT 9999 FEW030 SCT190 BKN/// 28/26 Q1007 NOSIG

RJAA Flight Activity (Flightaware)

Listeners: 0 out of 2173 total

Narita Tower (Rwy 16R/34L): 118.200

RJAA Tower #2 (Archives)
Tokyo, Japan

Feed Status: UP
Listen in your browser - HTML5 player(in browser, HTML5)
Click here to listen with your own player(launches your MP3 player)

RJAA 242200Z VRB02KT 9999 FEW030 SCT190 BKN/// 28/26 Q1007 NOSIG

RJAA Flight Activity (Flightaware)

Listeners: 1 out of 2173 total

Narita Tower (Rwy 16L/34R): 118.350

RJAA Tower (Both) (Archives)
Tokyo, Japan

Feed Status: UP
Listen in your browser - HTML5 player(in browser, HTML5)
Click here to listen with your own player(launches your MP3 player)

RJAA 242200Z VRB02KT 9999 FEW030 SCT190 BKN/// 28/26 Q1007 NOSIG

RJAA Flight Activity (Flightaware)

Listeners: 5 out of 2173 total

Narita Tower (Rwy 16L/34R): 118.350
Narita Tower (Rwy 16R/34L): 118.200

RJFF App/Radar (Archives)
Fukuoka, Japan

Feed Status: UP
Listen in your browser - HTML5 player(in browser, HTML5)
Click here to listen with your own player(launches your MP3 player)

RJFF 242200Z 15007KT 9999 FEW020 29/25 Q1007 NOSIG

RJFF Flight Activity (Flightaware)

Listeners: 0 out of 2173 total

Fukuoka Approach: 119.650
Fukuoka Radar: 121.125

RJFF Control (Misc) (Archives)
Fukuoka, Japan

Feed Status: UP
Listen in your browser - HTML5 player(in browser, HTML5)
Click here to listen with your own player(launches your MP3 player)

RJFF 242200Z 15007KT 9999 FEW020 29/25 Q1007 NOSIG

RJFF Flight Activity (Flightaware)

Listeners: 0 out of 2173 total

Fukuoka Control (F12): 133.150
Fukuoka Control (F13): 133.600
Fukuoka Control (F14): 135.300
Kobe Control (N52): 135.650
Kobe Control (N53) : 118.900
Kobe Control (N54): 133.850

RJFF Del/Gnd/TCA (Archives)
Fukuoka, Japan

Feed Status: UP
Listen in your browser - HTML5 player(in browser, HTML5)
Click here to listen with your own player(launches your MP3 player)

RJFF 242200Z 15007KT 9999 FEW020 29/25 Q1007 NOSIG

RJFF Flight Activity (Flightaware)

Listeners: 0 out of 2173 total

Fukuoka Approach/TCA: 121.275
Fukuoka Clearance Delivery : 121.925
Fukuoka Ground: 121.700

RJFF Departure (Archives)
Fukuoka, Japan

Feed Status: UP
Listen in your browser - HTML5 player(in browser, HTML5)
Click here to listen with your own player(launches your MP3 player)

RJFF 242200Z 15007KT 9999 FEW020 29/25 Q1007 NOSIG

RJFF Flight Activity (Flightaware)

Listeners: 0 out of 2173 total

Fukuoka Departure: 127.900
Fukuoka Departure (secondary): 119.700
Fukuoka Departure (secondary): 128.450

RJFF Tower (Archives)
Fukuoka, Japan

Feed Status: UP
Listen in your browser - HTML5 player(in browser, HTML5)
Click here to listen with your own player(launches your MP3 player)

RJFF 242200Z 15007KT 9999 FEW020 29/25 Q1007 NOSIG

RJFF Flight Activity (Flightaware)

Listeners: 0 out of 2173 total

Fukuoka Tower: 118.400
Fukuoka Tower: 126.200

RJOO Tower (Archives)
Osaka, Japan

Feed Status: UP
Listen in your browser - HTML5 player(in browser, HTML5)
Click here to listen with your own player(launches your MP3 player)

RJOO 242200Z VRB01KT 9999 FEW020 BKN030 BKN/// 29/24 Q1009

RJOO Flight Activity (Flightaware)

Listeners: 8 out of 2173 total

Osaka Tower: 118.100

RJOY Del/Gnd/Twr (Archives)
Yao, Japan

Feed Status: UP
Listen in your browser - HTML5 player(in browser, HTML5)
Click here to listen with your own player(launches your MP3 player)

RJOY Flight Activity (Flightaware)

Listeners: 2 out of 2173 total

Emergency/Guard: 121.500
Yao Ground: 121.800
Yao Tower: 124.350
Yao Tower: 126.200

RJSF RDO (Archives)
Sukagawa, Japan

Feed Status: UP
Listen in your browser - HTML5 player(in browser, HTML5)
Click here to listen with your own player(launches your MP3 player)

RJSF 242200Z AUTO VRB02KT 9999 FEW050 BKN080 OVC090 24/21 Q1010

RJSF Flight Activity (Flightaware)

Listeners: 2 out of 2173 total

Fukushima Radio: 118.050

RJTT App/Dep (Archives)
Tokyo, Japan

Feed Status: UP
Listen in your browser - HTML5 player(in browser, HTML5)
Click here to listen with your own player(launches your MP3 player)

RJTT 242200Z VRB02KT 9999 FEW020 SCT160 BKN/// 29/25 Q1007 NOSIG

RJTT Flight Activity (Flightaware)

Listeners: 17 out of 2173 total

Tokyo Approach: 119.100
Tokyo Approach: 119.400
Tokyo Departure: 120.800
Tokyo Departure: 126.000

RJTT Approach (Archives)
Tokyo, Japan

Feed Status: UP
Listen in your browser - HTML5 player(in browser, HTML5)
Click here to listen with your own player(launches your MP3 player)

RJTT 242200Z VRB02KT 9999 FEW020 SCT160 BKN/// 29/25 Q1007 NOSIG

RJTT Flight Activity (Flightaware)

Listeners: 4 out of 2173 total

Tokyo Approach: 119.100
Tokyo Approach: 119.400

RJTT ATIS (Archives)
Tokyo, Japan

Feed Status: UP
Listen in your browser - HTML5 player(in browser, HTML5)
Click here to listen with your own player(launches your MP3 player)

RJTT 242200Z VRB02KT 9999 FEW020 SCT160 BKN/// 29/25 Q1007 NOSIG

RJTT Flight Activity (Flightaware)

Listeners: 2 out of 2173 total

Tokyo ATIS: 128.800

RJTT Company Channels (Archives)
Tokyo, Japan

Feed Status: UP
Listen in your browser - HTML5 player(in browser, HTML5)
Click here to listen with your own player(launches your MP3 player)

RJTT 242200Z VRB02KT 9999 FEW020 SCT160 BKN/// 29/25 Q1007 NOSIG

RJTT Flight Activity (Flightaware)

Listeners: 7 out of 2173 total

Company TBD: 128.500
Company TBD: 131.850
Company TBD: 129.725
Company TBD: 129.700
Company TBD: 131.900
Company TBD: 129.850
Company TBD: 128.975
Company TBD: 123.675
Company TBD: 132.075

RJTT Del/Ground (Archives)
Tokyo, Japan

Feed Status: UP
Listen in your browser - HTML5 player(in browser, HTML5)
Click here to listen with your own player(launches your MP3 player)

RJTT 242200Z VRB02KT 9999 FEW020 SCT160 BKN/// 29/25 Q1007 NOSIG

RJTT Flight Activity (Flightaware)

Listeners: 0 out of 2173 total

Tokyo Clearance Delivery: 121.825
Tokyo Ground: 121.700
Tokyo Ground: 118.225
Tokyo Ground: 121.625
Tokyo Ground: 121.975

RJTT Del/Twr/TCA/Gnd (Archives)
Tokyo, Japan

Feed Status: UP
Listen in your browser - HTML5 player(in browser, HTML5)
Click here to listen with your own player(launches your MP3 player)

RJTT 242200Z VRB02KT 9999 FEW020 SCT160 BKN/// 29/25 Q1007 NOSIG

RJTT Flight Activity (Flightaware)

Listeners: 2 out of 2173 total

Tokyo Clearance Delivery: 121.825
Tokyo Ground: 121.975
Tokyo Ground: 121.625
Tokyo Ground: 121.700
Tokyo Ground: 118.225
Tokyo TCA: 124.750
Tokyo Tower: 118.100
Tokyo Tower: 118.575
Tokyo Tower: 118.725
Tokyo Tower: 124.350

RJTT Departure (Archives)
Tokyo, Japan

Feed Status: UP
Listen in your browser - HTML5 player(in browser, HTML5)
Click here to listen with your own player(launches your MP3 player)

RJTT 242200Z VRB02KT 9999 FEW020 SCT160 BKN/// 29/25 Q1007 NOSIG

RJTT Flight Activity (Flightaware)

Listeners: 0 out of 2173 total

Tokyo Departure: 120.800
Tokyo Departure: 126.000

RJTT Tokyo Control (Archives)
Tokyo, Japan

Feed Status: UP
Listen in your browser - HTML5 player(in browser, HTML5)
Click here to listen with your own player(launches your MP3 player)

RJTT 242200Z VRB02KT 9999 FEW020 SCT160 BKN/// 29/25 Q1007 NOSIG

RJTT Flight Activity (Flightaware)

Listeners: 19 out of 2173 total

Tokyo Control: 133.700
Tokyo Control: 125.900
Tokyo Control: 120.500

RJTT Twr/TCA (Archives)
Tokyo, Japan

Feed Status: UP
Listen in your browser - HTML5 player(in browser, HTML5)
Click here to listen with your own player(launches your MP3 player)

RJTT 242200Z VRB02KT 9999 FEW020 SCT160 BKN/// 29/25 Q1007 NOSIG

RJTT Flight Activity (Flightaware)

Listeners: 13 out of 2173 total

Tokyo TCA: 124.750
Tokyo Tower: 118.100
Tokyo Tower: 118.575
Tokyo Tower: 118.725
Tokyo Tower: 124.350

RJTY Approach (Archives)
Tokyo, Japan

Feed Status: UP
Listen in your browser - HTML5 player(in browser, HTML5)
Click here to listen with your own player(launches your MP3 player)

RJTY 242155Z 00000KT 10SM FEW030 BKN160 BKN220 28/20 A2980 RMK AO2A SLP090 T02760201 FZRANO $

RJTY Flight Activity (Flightaware)

Listeners: 4 out of 2173 total

Yokota Approach: 118.300
Yokota APproach: 123.800
Yokota Approach: 120.700

RJTY ATIS (Archives)
Tokyo, Japan

Feed Status: UP
Listen in your browser - HTML5 player(in browser, HTML5)
Click here to listen with your own player(launches your MP3 player)

RJTY 242155Z 00000KT 10SM FEW030 BKN160 BKN220 28/20 A2980 RMK AO2A SLP090 T02760201 FZRANO $

RJTY Flight Activity (Flightaware)

Listeners: 0 out of 2173 total

Yokota ATIS: 126.400

RJTY Ground (Archives)
Tokyo, Japan

Feed Status: UP
Listen in your browser - HTML5 player(in browser, HTML5)
Click here to listen with your own player(launches your MP3 player)

RJTY 242155Z 00000KT 10SM FEW030 BKN160 BKN220 28/20 A2980 RMK AO2A SLP090 T02760201 FZRANO $

RJTY Flight Activity (Flightaware)

Listeners: 5 out of 2173 total

Yokota Ground: 133.200

RJTY Ground/Tower (Archives)
Tokyo, Japan

Feed Status: UP
Listen in your browser - HTML5 player(in browser, HTML5)
Click here to listen with your own player(launches your MP3 player)

RJTY 242155Z 00000KT 10SM FEW030 BKN160 BKN220 28/20 A2980 RMK AO2A SLP090 T02760201 FZRANO $

RJTY Flight Activity (Flightaware)

Listeners: 2 out of 2173 total

Yokota Ground: 133.200
Yokota Tower: 134.300

RJTY Tower (Archives)
Tokyo, Japan

Feed Status: UP
Listen in your browser - HTML5 player(in browser, HTML5)
Click here to listen with your own player(launches your MP3 player)

RJTY 242155Z 00000KT 10SM FEW030 BKN160 BKN220 28/20 A2980 RMK AO2A SLP090 T02760201 FZRANO $

RJTY Flight Activity (Flightaware)

Listeners: 4 out of 2173 total

Yokota Tower: 134.300

RPUX Gnd/Twr (Archives)
Plaridel, Philippines

Feed Status: UP
Listen in your browser - HTML5 player(in browser, HTML5)
Click here to listen with your own player(launches your MP3 player)

METAR NOT AVAILABLE

RPUX Flight Activity (Flightaware)

Listeners: 0 out of 2173 total

Plaridel Ground: 123.550
Plaridel Tower: 122.400

RPUX Ground (Archives)
Plaridel, Philippines

Feed Status: UP
Listen in your browser - HTML5 player(in browser, HTML5)
Click here to listen with your own player(launches your MP3 player)

METAR NOT AVAILABLE

RPUX Flight Activity (Flightaware)

Listeners: 0 out of 2173 total

Plaridel Ground: 123.550

RPUX Tower (Archives)
Plaridel, Philippines

Feed Status: UP
Listen in your browser - HTML5 player(in browser, HTML5)
Click here to listen with your own player(launches your MP3 player)

METAR NOT AVAILABLE

RPUX Flight Activity (Flightaware)

Listeners: 0 out of 2173 total

Plaridel Tower: 122.400

SACO TMA (Archives)
Cordoba, Argentina

Feed Status: UP
Listen in your browser - HTML5 player(in browser, HTML5)
Click here to listen with your own player(launches your MP3 player)

SACO 242200Z 16007KT CAVOK 17/M04 Q1019 NOSIG

SACO Flight Activity (Flightaware)

Listeners: 1 out of 2173 total

Cordoba TMA: 119.100

SACO Tower (Archives)
Cordoba, Argentina

Feed Status: UP
Listen in your browser - HTML5 player(in browser, HTML5)
Click here to listen with your own player(launches your MP3 player)

SACO 242200Z 16007KT CAVOK 17/M04 Q1019 NOSIG

SACO Flight Activity (Flightaware)

Listeners: 1 out of 2173 total

Cordoba Tower: 118.300

SACO Tower (Aux 1) (Archives)
Cordoba, Argentina

Feed Status: UP
Listen in your browser - HTML5 player(in browser, HTML5)
Click here to listen with your own player(launches your MP3 player)

SACO 242200Z 16007KT CAVOK 17/M04 Q1019 NOSIG

SACO Flight Activity (Flightaware)

Listeners: 0 out of 2173 total

Cordoba Tower (Aux 1): 118.550

SACO Tower (Aux 2) (Archives)
Cordoba, Argentina

Feed Status: UP
Listen in your browser - HTML5 player(in browser, HTML5)
Click here to listen with your own player(launches your MP3 player)

SACO 242200Z 16007KT CAVOK 17/M04 Q1019 NOSIG

SACO Flight Activity (Flightaware)

Listeners: 0 out of 2173 total

Cordoba Tower (Aux 2): 119.450

SADL Misc (Archives)
La Plata, Argentina

Feed Status: UP
Listen in your browser - HTML5 player(in browser, HTML5)
Click here to listen with your own player(launches your MP3 player)

METAR NOT AVAILABLE

SADL Flight Activity (Flightaware)

Listeners: 1 out of 2173 total

Air to Air: 123.450
Chascomus: 123.200
Emergency/Guard: 121.500
General: 123.500
La Plata: 119.300
Lobos: 123.300
Planeadores: 123.000
Punta Indio: 130.800
Quilmes: 122.200

SANT Tower/Apps (Archives)
Tucuman, Argentina

Feed Status: UP
Listen in your browser - HTML5 player(in browser, HTML5)
Click here to listen with your own player(launches your MP3 player)

SANT 131600Z 07008KT 040V100 9999 FEW045 33/26 Q1005

SANT Flight Activity (Flightaware)

Listeners: 1 out of 2173 total

Aeroclub Tucuman: 119.000
Aerolineas Argentinas SOC Salta: 131.100
Aerolineas Argentinas SOC Tucuman: 131.950
Air To Air: 123.450
Andes Lineas Aereas: 132.000
Campo Arenal: 130.950
Catamarca Tower: 118.150
Copa Airlines: 129.400
Cordoba Centro Norte: 125.100
Cordoba Centro Sur: 126.500
Emergency/Guard: 121.500
Lan Argentina Operaciones: 131.700
Lan Peru: 131.300
Salta Tower: 128.850
Santiago del Estero Tower: 118.700
Taca Peru: 126.450
Termas de Rio Hondo: 118.200
Termas de Rio Hondo: 119.850
Tucuman Ground: 121.750
Tucuman Ground: 121.750
Tucuman Tower: 118.350
Tucuman Tower: 119.500

SASA Twr/App (Archives)
Salta, Argentina

Feed Status: UP
Listen in your browser - HTML5 player(in browser, HTML5)
Click here to listen with your own player(launches your MP3 player)

SASA 242200Z 04013KT 8000 NSC 19/09 Q1020

SASA Flight Activity (Flightaware)

Listeners: 1 out of 2173 total

Cordoba Approach (North): 128.250
Salta Approach: 124.600
Salta Tower: 126.000
Salta Tower/Ground: 128.850

SAZN Tower (Archives)
Neuquen, Argentina

Feed Status: UP
Listen in your browser - HTML5 player(in browser, HTML5)
Click here to listen with your own player(launches your MP3 player)

SAZN 242200Z 25006KT CAVOK 16/01 Q1018

SAZN Flight Activity (Flightaware)

Listeners: 3 out of 2173 total

Neuquen Tower/Approach: 119.800

SAZS Gnd/Twr/App (Archives)
Rio Negro, Argentina

Feed Status: UP
Listen in your browser - HTML5 player(in browser, HTML5)
Click here to listen with your own player(launches your MP3 player)

SAZS 242200Z 30020KT 9000 VCSH FEW030 BKN036 BKN045 07/02 Q1017

SAZS Flight Activity (Flightaware)

Listeners: 1 out of 2173 total

Bariloche Twr/App: 119.100
Comodoro Rivadavia Control: 125.500
Ezeiza South: 125.200

SBAR Twr/App (Archives)
Aracaju, Brazil

Feed Status: UP
Listen in your browser - HTML5 player(in browser, HTML5)
Click here to listen with your own player(launches your MP3 player)

SBAR 242200Z 11008KT 9999 FEW015 BKN030 25/21 Q1020

SBAR Flight Activity (Flightaware)

Listeners: 0 out of 2173 total

Santa Maria Approach: 120.300
Santa Maria Tower: 118.800

SBBE Twr/App/SBAZ (Archives)
Belem, Brazil

Feed Status: UP
Listen in your browser - HTML5 player(in browser, HTML5)
Click here to listen with your own player(launches your MP3 player)

SBBE 242200Z 34005KT 9999 SCT049 29/23 Q1013

SBBE Flight Activity (Flightaware)

Listeners: 0 out of 2173 total

Amazonica FIR (SBAZ): 126.500
Amazonica FIR (SBAZ): 128.000
Amazonica FIR (SBAZ): 123.950
Amazonica FIR (SBAZ): 126.150
Amazonica FIR (SBAZ): 126.650
Amazonica FIR (SBAZ): 133.700
Belem Approach: 119.050
Belem Approach: 119.500
Belem Tower: 118.700

SBBR Approach (Archives)
Brasilia, Brazil

Feed Status: UP
Listen in your browser - HTML5 player(in browser, HTML5)
Click here to listen with your own player(launches your MP3 player)

SBBR 242200Z 12010KT CAVOK 22/08 Q1024

SBBR Flight Activity (Flightaware)

Listeners: 2 out of 2173 total

Brasilia Approach: 120.650
Brasilia Approach: 129.150
Brasilia Approach: 129.600
Brasilia Approach (Final): 119.200
Brasilia Departure: 119.500
Brasilia Departure: 119.700

SBBR Ground
Brasilia, Brazil

Feed Status: DOWN
Offline since: 2024-07-16 14:52:40 UTC

SBBR 242200Z 12010KT CAVOK 22/08 Q1024

Brasilia Ground: 121.950
Brasilia Ground: 121.800

SBBR Tower
Brasilia, Brazil

Feed Status: DOWN
Offline since: 2024-07-16 14:52:40 UTC

SBBR 242200Z 12010KT CAVOK 22/08 Q1024

Brasilia Tower: 118.100
Brasilia Tower: 181.750
Brasilia Tower: 118.450

SBBV Tower/Approach (Archives)
Boa Vista, Brazil

Feed Status: UP
Listen in your browser - HTML5 player(in browser, HTML5)
Click here to listen with your own player(launches your MP3 player)

SBBV 242200Z 03004KT 9999 FEW035 SCT090 31/22 Q1013

SBBV Flight Activity (Flightaware)

Listeners: 1 out of 2173 total

Boa Vista Approach: 120.100
Boa Vista Tower: 118.100

SBCT Gnd/Twr/App
Curitiba, Brazil

Feed Status: DOWN
Offline since: 2024-07-23 04:13:06 UTC

SBCT 242200Z 12006KT CAVOK 14/10 Q1025

Curitiba Approach: 119.950
Curitiba Ground: 121.900
Curitiba Tower: 118.150
Curitiba Tower: 118.900

SBEG Tower/App (Archives)
Manaus, Brazil

Feed Status: UP
Listen in your browser - HTML5 player(in browser, HTML5)
Click here to listen with your own player(launches your MP3 player)

SBEG 242200Z 11008KT CAVOK 32/21 Q1013

SBEG Flight Activity (Flightaware)

Listeners: 3 out of 2173 total

Emergency/Guard: 121.500
Manaus Approach : 119.250
Manaus Approach: 120.400
Manaus Approach: 119.700
Manaus Tower: 118.300

SBFZ Gnd/Twr/App (Archives)
Fortaleza, Brazil

Feed Status: UP
Listen in your browser - HTML5 player(in browser, HTML5)
Click here to listen with your own player(launches your MP3 player)

SBFZ 242200Z 10013KT 9999 SCT025 27/21 Q1016

SBFZ Flight Activity (Flightaware)

Listeners: 5 out of 2173 total

Ait to Air: 123.450
Ait to Air: 123.400
Fortaleza Approach: 133.000
Fortaleza Approach (backup): 134.550
Fortaleza Ground: 121.950
Fortaleza Tower: 129.000

SBFZ Twr/App/Center (Archives)
Fortaleza, Brazil

Feed Status: UP
Listen in your browser - HTML5 player(in browser, HTML5)
Click here to listen with your own player(launches your MP3 player)

SBFZ 242200Z 10013KT 9999 SCT025 27/21 Q1016

SBFZ Flight Activity (Flightaware)

Listeners: 6 out of 2173 total

ACC-RE (Fortaleza Sector): 125.150
ACC-RE (Fortaleza Sector): 126.350
ACC-RE (Fortaleza Sector): 135.250
Fortaleza Approach: 133.000
Fortaleza Tower: 129.000

SBGO Gnd/Twr/App
Goiania, Brazil

Feed Status: DOWN
Offline since: 2024-07-21 08:24:23 UTC

SBGO 242200Z 10008KT CAVOK 24/08 Q1022

Anapolis Approach: 119.150
Anapolis Approach: 120.550
Anapolis Approach: 133.000
Anapolis Approach: 129.450
Emergency/Guard: 121.500
Goiania Ground: 121.700
Goiania Tower: 118.700
Goiania Tower: 121.050

SBWL Control (Archives)
Ilheus, Brazil

Feed Status: UP
Listen in your browser - HTML5 player(in browser, HTML5)
Click here to listen with your own player(launches your MP3 player)

SBIL 242200Z 20004KT 9999 FEW025 BKN060 25/17 Q1022

SBIL Flight Activity (Flightaware)

Listeners: 0 out of 2173 total

Comandatuba Radio: 130.250
Ilheus Control: 120.100
Recife Center Sector 11: 123.800
Recife Center Sector 13: 133.025
Recife Center Sector 14: 135.300
Self Coordination Frequency (Air to Air): 123.450

SBIZ Info (Archives)
Imperatriz, Brazil

Feed Status: UP
Listen in your browser - HTML5 player(in browser, HTML5)
Click here to listen with your own player(launches your MP3 player)

SBIZ 242100Z 12003KT 9999 FEW028 34/20 Q1014

SBIZ Flight Activity (Flightaware)

Listeners: 1 out of 2173 total

Imperatriz Info: 125.650

SBJP Tower (Archives)
Joao Pessoa, Brazil

Feed Status: UP
Listen in your browser - HTML5 player(in browser, HTML5)
Click here to listen with your own player(launches your MP3 player)

SBJP 242200Z 14006KT 9999 FEW030 23/20 Q1019

SBJP Flight Activity (Flightaware)

Listeners: 0 out of 2173 total

Joao Pessoa Tower: 118.300

SBJP Twr/Control/Airlines
Joao Pessoa, Brazil

Feed Status: DOWN
Offline since: 2024-07-06 21:38:39 UTC

SBJP 242200Z 14006KT 9999 FEW030 23/20 Q1019

AZUL: 130.900
GOL: 131.225
Joao Pessoa Tower: 118.300
Recife Control: 119.500
TAM: 130.500

SBJU Tower/Center
Juazeiro do Norte, Brazil

Feed Status: DOWN
Offline since: 2024-07-24 01:04:40 UTC

SBJU 242200Z 19005KT 9999 FEW020 25/16 Q1019

Pilot-to-Pilot: 123.450
Radio Juazeiro: 131.750
Recife Center: 135.250
Recife Center: 125.150

SBKP Tower #2 (Archives)
Campinas, Brazil

Feed Status: UP
Listen in your browser - HTML5 player(in browser, HTML5)
Click here to listen with your own player(launches your MP3 player)

SBKP 242200Z 21005KT 160V250 CAVOK 24/08 Q1023

SBKP Flight Activity (Flightaware)

Listeners: 2 out of 2173 total

Campinas Tower: 118.250

SBLO Twr/App/Center (Archives)
Londrina, Brazil

Feed Status: UP
Listen in your browser - HTML5 player(in browser, HTML5)
Click here to listen with your own player(launches your MP3 player)

SBLO 242200Z 10003KT CAVOK 24/09 Q1021

SBLO Flight Activity (Flightaware)

Listeners: 0 out of 2173 total

Curitiba Center: 128.350
Curitiba Center: 135.100
Curitiba Center: 125.800
Curitiba Center: 126.950
Emergency/Guard: 121.500
Londrina Approach: 129.700
Londrina Tower: 118.400
UNICOM: 123.450

SBMG Twr/App (Archives)
Maringa, Brazil

Feed Status: UP
Listen in your browser - HTML5 player(in browser, HTML5)
Click here to listen with your own player(launches your MP3 player)

SBMG 242200Z 04007KT CAVOK 23/08 Q1020

SBMG Flight Activity (Flightaware)

Listeners: 2 out of 2173 total

Londrina Approach: 129.700
Maringa Tower: 118.750
UNICOM: 123.450

SBMK RDO/Center
Montes Claros, Brazil

Feed Status: DOWN
Offline since: 2024-07-14 21:49:06 UTC

Brasilia Center (Sector 15): 127.300
Montes Claros RDO: 131.700

SBMO Tower (Archives)
Maceio, Brazil

Feed Status: UP
Listen in your browser - HTML5 player(in browser, HTML5)
Click here to listen with your own player(launches your MP3 player)

SBMO 242200Z 14006KT 9999 FEW013 BKN023 BKN050 23/20 Q1021

SBMO Flight Activity (Flightaware)

Listeners: 1 out of 2173 total


SBMQ Tower/App/Center (Archives)
Macapa, Brazil

Feed Status: UP
Listen in your browser - HTML5 player(in browser, HTML5)
Click here to listen with your own player(launches your MP3 player)

SBMQ 242200Z 06004KT 9999 VCTS FEW027 FEW030CB 30/26 Q1014

SBMQ Flight Activity (Flightaware)

Listeners: 0 out of 2173 total

Amazonico Center: 123.950
Amazonico Center: 128.000
Macapa Approach: 119.000
Macapa Tower: 118.000

SBPA Gnd/Twr/App/Center
Porto Alegre, Brazil

Feed Status: DOWN
Offline since: 2024-07-24 21:11:39 UTC

SBPA 032300Z 13010KT 5000 -DZ BR OVC007 18/16 Q1012

BACO (Canoas) Ground: 121.700
BACO (Canoas) Tower: 118.500
BACO (Canoas) Tower (Mil): 122.800
Curitiba Center (Sector 1/South SBPA): 126.750
Curitiba Center (Sector 1/South SBPA): 127.400
Curitiba Center (Sector 2): 123.725
Curitiba Center (Sector 2): 135.900
Curitiba Center (Sector 3/West SBFL): 127.500
Curitiba Center (Sector 3/West SBFL): 126.100
Curitiba Center (Sector 4/South SBFL): 135.850
Curitiba Center (Sector 4/South SBFL): 128.450
Curitiba Center (Sector 5/East SBCT): 124.400
Curitiba Center (Sector 5/East SBCT): 125.400
Curitiba Center (Sector 6/East SBCT Atlantico): 128.400
Curitiba Center (Sector 6/East SBCT Atlantico): 127.050
Curitiba Center (Sector 9/North SBCT): 132.800
Curitiba Center (Sector 9/North SBCT): 126.500
Emergency/Guard: 121.500
Porto Alegre Approach Sector 1: 120.100
Porto Alegre Approach Sector 2: 120.550
Porto Alegre Approach Sector 3: 128.900
Porto Alegre Approach Sector 4: 119.000
Salgado Filho Ground: 121.900
Salgado Filho Tower: 118.100

SBPB Info (Archives)
Parnaiba, Brazil

Feed Status: UP
Listen in your browser - HTML5 player(in browser, HTML5)
Click here to listen with your own player(launches your MP3 player)

SBPB 242145Z 11007KT 9999 FEW020 27/23 Q1014

SBPB Flight Activity (Flightaware)

Listeners: 2 out of 2173 total

Parnaiba Info: 126.600

SBPL RDO/ACC (Archives)
Petrolina, Brazil

Feed Status: UP
Listen in your browser - HTML5 player(in browser, HTML5)
Click here to listen with your own player(launches your MP3 player)

SBPL 242200Z 16010KT 9999 FEW020 SCT025 26/18 Q1020

SBPL Flight Activity (Flightaware)

Listeners: 3 out of 2173 total

ACC RE Sector 5: 127.500
ACC RE Sector 5: 128.450
ACC RE Sector 6: 125.400
ACC RE Sector 6: 134.900
Air to Air/UNICOM: 123.450
Emergency/Guard: 121.500
Misc: 123.400
Petrolina RDO: 125.700
Recife FIS: 123.625

SBRF App 129.60 (Archives)
Recife, Brazil

Feed Status: UP
Listen in your browser - HTML5 player(in browser, HTML5)
Click here to listen with your own player(launches your MP3 player)

SBRF 242200Z 20008KT 9999 SCT020 SCT060 25/21 Q1019

SBRF Flight Activity (Flightaware)

Listeners: 7 out of 2173 total

Recife Approach: 129.600

SBRF Gol Ops (Archives)
Recife, Brazil

Feed Status: UP
Listen in your browser - HTML5 player(in browser, HTML5)
Click here to listen with your own player(launches your MP3 player)

SBRF 242200Z 20008KT 9999 SCT020 SCT060 25/21 Q1019

SBRF Flight Activity (Flightaware)

Listeners: 0 out of 2173 total

Gol Ops: 131.225

SBRF Ground (Archives)
Recife, Brazil

Feed Status: UP
Listen in your browser - HTML5 player(in browser, HTML5)
Click here to listen with your own player(launches your MP3 player)

SBRF 242200Z 20008KT 9999 SCT020 SCT060 25/21 Q1019

SBRF Flight Activity (Flightaware)

Listeners: 1 out of 2173 total

Recife Ground: 121.850

SBRF LATAM Ops (Archives)
Recife, Brazil

Feed Status: UP
Listen in your browser - HTML5 player(in browser, HTML5)
Click here to listen with your own player(launches your MP3 player)

SBRF 242200Z 20008KT 9999 SCT020 SCT060 25/21 Q1019

SBRF Flight Activity (Flightaware)

Listeners: 0 out of 2173 total

LATAM Ops: 130.500

SBRF Recife ACC (Archives)
Recife, Brazil

Feed Status: UP
Listen in your browser - HTML5 player(in browser, HTML5)
Click here to listen with your own player(launches your MP3 player)

SBRF 242200Z 20008KT 9999 SCT020 SCT060 25/21 Q1019

SBRF Flight Activity (Flightaware)

Listeners: 1 out of 2173 total

Recife Center: 128.700
Recife Center: 133.650
Recife Center: 134.800

SBRF Tower (Archives)
Recife, Brazil

Feed Status: UP
Listen in your browser - HTML5 player(in browser, HTML5)
Click here to listen with your own player(launches your MP3 player)

SBRF 242200Z 20008KT 9999 SCT020 SCT060 25/21 Q1019

SBRF Flight Activity (Flightaware)

Listeners: 3 out of 2173 total

Recife Tower: 125.250
Recife Tower: 118.350
Recife Tower: 118.900

SBSG Tower (Archives)
Sao Goncalo do Amarante, Brazil

Feed Status: UP
Listen in your browser - HTML5 player(in browser, HTML5)
Click here to listen with your own player(launches your MP3 player)

SBSG 242200Z 15005KT 100V180 9999 FEW020 24/17 Q1018

SBSG Flight Activity (Flightaware)

Listeners: 1 out of 2173 total


SBSL Twr/App/FIR
Sao Luis, Brazil

Feed Status: DOWN
Offline since: 2024-05-16 20:29:39 UTC

SBSL 242200Z 20008KT 9999 SCT023 27/24 Q1015

Amazonica Center: 133.700
Sao Luis Approach: 119.100
Sao Luis Tower: 118.900

SBSN Twr/App/ACC (Archives)
Santarem, Brazil

Feed Status: UP
Listen in your browser - HTML5 player(in browser, HTML5)
Click here to listen with your own player(launches your MP3 player)

SBSN 242200Z 09004KT 9999 FEW016 SCT100 28/25 Q1014

SBSN Flight Activity (Flightaware)

Listeners: 2 out of 2173 total

Brasilia Center/ACC: 123.650
Brasilia Center/ACC: 125.050
Santarem Approach: 119.300
Santarem Tower: 118.100

SBSR AFIS/App/Center (Archives)
Sao Jose do Rio Preto, Brazil

Feed Status: UP
Listen in your browser - HTML5 player(in browser, HTML5)
Click here to listen with your own player(launches your MP3 player)

SBSR 242200Z VRB02KT CAVOK 27/03 Q1021

SBSR Flight Activity (Flightaware)

Listeners: 1 out of 2173 total

Academia Approach (North Sector): 119.750
Academia Approach (North Sector): 120.400
Brasilia Center: 135.150
Rio Preto Radio AFIS: 130.850

SBTE Twr/App
Teresina, Brazil

Feed Status: DOWN
Offline since: 2024-07-24 18:42:40 UTC

SBTE 242200Z 00000KT CAVOK 30/19 Q1014

Teresina Approach: 119.600
Teresina Tower: 118.800

SBRE Recife ACC (Archives)
Paulo Afonso, Brazil

Feed Status: UP
Listen in your browser - HTML5 player(in browser, HTML5)
Click here to listen with your own player(launches your MP3 player)

SBRE Flight Activity (Flightaware)

Listeners: 1 out of 2173 total

Recife Center (ACC): 125.400
Recife Center (ACC): 125.450
Recife Center (ACC): 126.850
Recife Center (ACC): 133.650
Recife Center (ACC): 134.500
Recife Center (ACC): 134.900

SBUF AFIS/Center (Archives)
Paulo Afonso, Brazil

Feed Status: UP
Listen in your browser - HTML5 player(in browser, HTML5)
Click here to listen with your own player(launches your MP3 player)

SBUF 242200Z AUTO 14007KT CAVOK 24/16 Q1020

SBUF Flight Activity (Flightaware)

Listeners: 1 out of 2173 total

Paulo Afonso Radio: 125.850
Recife Center: 133.650
Recife Center: 134.500
Recife Center: 125.450

SBQV AFIS
Vitoria da Conquista, Brazil

Feed Status: DOWN
Offline since: 2023-09-11 01:59:23 UTC

Conquista AFIS: 130.850
Despacho Azul: 131.875
Despacho Passaredo: 132.000

SBVT Tower/Approach
Vitoria, Brazil

Feed Status: DOWN
Offline since: 2024-07-24 22:40:39 UTC

SBVT 242200Z 16003KT CAVOK 22/19 Q1024

SBVT Control Approach: 119.850
SBVT Tower: 118.100

SCEL Gnd/Twr/Radar (Archives)
Santiago, Chile

Feed Status: UP
Listen in your browser - HTML5 player(in browser, HTML5)
Click here to listen with your own player(launches your MP3 player)

SCEL 242200Z VRB02KT 8000 NSC 17/02 Q1025 NOSIG

SCEL Flight Activity (Flightaware)

Listeners: 8 out of 2173 total

Santiago Authorizations: 121.700
Santiago Control (Lat 3323S North): 128.100
Santiago Control (Lat 3323S South): 126.300
Santiago Ground (Primary): 122.200
Santiago Ground (Secondary): 122.500
Santiago Radar: 125.400
Santiago Radar: 135.400
Santiago Radar (Arrival, Primary): 129.700
Santiago Radar (Arrival, Secondary): 119.700
Santiago Radar (Arrival, Secondary): 123.800
Santiago Radar (Departure, Primary): 121.100
Santiago Radar (Departure, Secondary): 123.800
Santiago Radar (Information, Primary): 122.400
Santiago Radar (Information, Secondary): 120.800
Santiago Radar (Information, Secondary): 123.800
Santiago Tower (Primary): 118.100
Santiago Tower (Secondary): 118.350
SCTB Tobalaba Tower: 118.700

SEGU App/Dep/Info (Archives)
Guayaquil, Ecuador

Feed Status: UP
Listen in your browser - HTML5 player(in browser, HTML5)
Click here to listen with your own player(launches your MP3 player)

SEGU 242200Z 16006KT 130V190 9999 FEW026 31/19 Q1011 NOSIG RMK A2986

SEGU Flight Activity (Flightaware)

Listeners: 0 out of 2173 total

Guayaquil Approach: 120.700
Guayaquil Approach (Secondary): 119.300
Guayaquil Info: 126.900

SEGU Gnd/Twr (Archives)
Guayaquil, Ecuador

Feed Status: UP
Listen in your browser - HTML5 player(in browser, HTML5)
Click here to listen with your own player(launches your MP3 player)

SEGU 242200Z 16006KT 130V190 9999 FEW026 31/19 Q1011 NOSIG RMK A2986

SEGU Flight Activity (Flightaware)

Listeners: 0 out of 2173 total

Guayaquil Ground: 121.900
Guayaquil Ground (Secondary): 121.700
Guayaquil Tower: 118.300
Guayaquil Tower (Secondary): 118.900

SEGU Gnd/Twr/App
Guayaquil, Ecuador

Feed Status: DOWN
Offline since: 2023-10-27 06:00:40 UTC

SEGU 242200Z 16006KT 130V190 9999 FEW026 31/19 Q1011 NOSIG RMK A2986

Guayaquil Approach: 120.700
Guayaquil Ground: 121.900
Guayaquil Tower: 118.300

SEGU Guayaquil Center (Archives)
Guayaquil, Ecuador

Feed Status: UP
Listen in your browser - HTML5 player(in browser, HTML5)
Click here to listen with your own player(launches your MP3 player)

SEGU 242200Z 16006KT 130V190 9999 FEW026 31/19 Q1011 NOSIG RMK A2986

SEGU Flight Activity (Flightaware)

Listeners: 0 out of 2173 total

Guayaquil Center: 127.950
Guayaquil Center: 128.300
Guayaquil Center (Secondary): 128.000
Guayaquil Center (Secondary): 123.900

SMZO Tower (Archives)
Paramaribo, Suriname

Feed Status: UP
Listen in your browser - HTML5 player(in browser, HTML5)
Click here to listen with your own player(launches your MP3 player)

SMZO 242200Z 08008KT 9999 FEW025 29/24 Q1014 NOSIG

SMZO Flight Activity (Flightaware)

Listeners: 0 out of 2173 total

Zorg en Hoop Tower: 120.100

SNRZ Area (Archives)
Oliveira, Brazil

Feed Status: UP
Listen in your browser - HTML5 player(in browser, HTML5)
Click here to listen with your own player(launches your MP3 player)

SNRZ Flight Activity (Flightaware)

Listeners: 0 out of 2173 total

Azul: 130.900
Brasilia ACC-BS (Air Control Center): 133.450
Brasilia ACC-BS (Air Control Center): 135.550
Brasilia ACC-BS (Air Control Center): 126.150
Brasilia ACC-BS (Air Control Center): 126.800
Brasilia ACC-BS (Air Control Center): 125.050
Brasilia ACC-BS (Air Control Center): 126.500
Brasilia ACC-BS (Air Control Center): 122.650
Brasilia ACC-BS (Air Control Center): 126.550
Brasilia ACC-BS (Air Control Center): 123.350
Brasilia ACC-BS (Air Control Center): 124.750
Brasilia ACC-BS (Air Control Center): 134.750
Brasilia ACC-BS (Air Control Center): 133.600
Brasilia ACC-BS (Air Control Center): 124.800
Brasilia ACC-BS (Air Control Center): 124.250
Brasilia ACC-BS (Air Control Center): 127.300
Brasilia ACC-BS (Air Control Center): 127.000
Brasilia ACC-BS (Air Control Center): 124.250
Brasilia ACC-BS (Air Control Center): 127.300
Brasilia ACC-BS (Air Control Center): 127.000
Brasilia ACC-BS (Air Control Center): 133.450
Brasilia ACC-BS (Air Control Center): 135.550
Brasilia ACC-BS (Air Control Center): 126.150
Brasilia ACC-BS (Air Control Center): 126.800
Brasilia ACC-BS (Air Control Center): 125.050
Brasilia ACC-BS (Air Control Center): 126.500
Brasilia ACC-BS (Air Control Center): 122.650
Brasilia ACC-BS (Air Control Center): 126.550
Brasilia ACC-BS (Air Control Center): 123.350
Brasilia ACC-BS (Air Control Center): 124.750
Brasilia ACC-BS (Air Control Center): 134.750
Brasilia ACC-BS (Air Control Center): 133.600
Brasilia ACC-BS (Air Control Center): 124.800
Curitiba ACC-CW: 126.500
Curitiba ACC-CW: 134.750
Curitiba ACC-CW: 124.000
Curitiba ACC-CW: 125.350
Emergency: 121.500
Emergency: 121.500
GOL Coordination: 131.225
TAM Coordination: 130.500
TAM Maintenance: 130.600
Trip Coordination: 131.375

SPJC Approach (Archives)
Lima, Peru

Feed Status: UP
Listen in your browser - HTML5 player(in browser, HTML5)
Click here to listen with your own player(launches your MP3 player)

SPJC 242200Z 23005KT 200V260 9999 SCT010 OVC020 17/13 Q1016 NOSIG RMK PP000

SPJC Flight Activity (Flightaware)

Listeners: 1 out of 2173 total

Lima Approach: 119.700

SPJC Ground (Archives)
Lima, Peru

Feed Status: UP
Listen in your browser - HTML5 player(in browser, HTML5)
Click here to listen with your own player(launches your MP3 player)

SPJC 242200Z 23005KT 200V260 9999 SCT010 OVC020 17/13 Q1016 NOSIG RMK PP000

SPJC Flight Activity (Flightaware)

Listeners: 0 out of 2173 total

Lima Ground: 121.900

SPJC Tower (Archives)
Lima, Peru

Feed Status: UP
Listen in your browser - HTML5 player(in browser, HTML5)
Click here to listen with your own player(launches your MP3 player)

SPJC 242200Z 23005KT 200V260 9999 SCT010 OVC020 17/13 Q1016 NOSIG RMK PP000

SPJC Flight Activity (Flightaware)

Listeners: 1 out of 2173 total

Lima Tower: 118.100

SPQU Ground/Tower
Arequipa, Peru

Feed Status: DOWN
Offline since: 2024-07-11 06:13:40 UTC

SPQU 242200Z 28013KT CAVOK 18/M07 Q1030 NOSIG RMK TX21.6 PP000

Arequipa Alternate: 118.200
Arequipa Ground: 121.900
Arequipa Tower: 118.700
Emergency/Guard: 121.500

SPQU Misc
Arequipa, Peru

Feed Status: DOWN
Offline since: 2024-07-11 06:13:40 UTC

SPQU 242200Z 28013KT CAVOK 18/M07 Q1030 NOSIG RMK TX21.6 PP000

Emergency/Guard: 121.500
Ilo Tower: 126.900
Iquique ACC: 128.700
Radar Sur-dos: 128.800
Tacna Tower: 118.400

SPST Tower (Archives)
Tarapoto, Peru

Feed Status: UP
Listen in your browser - HTML5 player(in browser, HTML5)
Click here to listen with your own player(launches your MP3 player)

SPST 242200Z 16006KT 9999 FEW015 29/20 Q1014 RMK TX35.0 PP000

SPST Flight Activity (Flightaware)

Listeners: 0 out of 2173 total

Tarapoto Tower: 118.400

SSBL Air to Air
Blumenau, Brazil

Feed Status: DOWN
Offline since: 2024-06-02 07:20:05 UTC

Air to Air: 123.450

SUAA Tower (Archives)
Montevideo, Uruguay

Feed Status: UP
Listen in your browser - HTML5 player(in browser, HTML5)
Click here to listen with your own player(launches your MP3 player)

SUAA 242200Z 36005KT 9000 TS OVC080 17/15 Q1014

SUAA Flight Activity (Flightaware)

Listeners: 1 out of 2173 total

Adami Tower: 118.400
Adami Tower (backup): 122.100
Emergency/Guard: 121.500

SUCM AFIS/SUCA/SADF Twr (Archives)
Carmelo, Uruguay

Feed Status: UP
Listen in your browser - HTML5 player(in browser, HTML5)
Click here to listen with your own player(launches your MP3 player)

METAR NOT AVAILABLE

SUCM Flight Activity (Flightaware)

Listeners: 1 out of 2173 total

Carmelo AFIS: 118.300
Carmelo AFIS (backup): 122.100
Colonia Tower (SUCA): 120.800
San Fernando Tower (SADF): 120.700

SUDU Twr/App/FIR
Durazno, Uruguay

Feed Status: DOWN
Offline since: 2024-06-23 01:24:40 UTC

SUDU 241700Z 01010KT CAVOK 26/16 Q1014

Durazno Twr/App: 120.400
Durazno Twr/App: 126.200
Montevideo Control - Centro (Central): 126.300

SUGA Twr/Info (Archives)
Pando, Uruguay

Feed Status: UP
Listen in your browser - HTML5 player(in browser, HTML5)
Click here to listen with your own player(launches your MP3 player)

SUGA Flight Activity (Flightaware)

Listeners: 2 out of 2173 total

SUGA Info: 126.200
SUGA Tower: 118.500

SULS Tower (Archives)
Punta del Este, Uruguay

Feed Status: UP
Listen in your browser - HTML5 player(in browser, HTML5)
Click here to listen with your own player(launches your MP3 player)

SULS 242200Z VRB01KT CAVOK 16/13 Q1014

SULS Flight Activity (Flightaware)

Listeners: 1 out of 2173 total

SULS A/G: 122.100
SULS Tower: 118.300

SUMO Tower
Melo, Uruguay

Feed Status: DOWN
Offline since: 2023-05-06 13:19:23 UTC

SUMO 191500Z 05006KT 9999 FEW030 BKN200 33/16 Q1010

Melo Ramp: 122.100
Melo Tower: 118.600

Montevideo Control (Antena Este) (Archives)
Montevideo, Uruguay

Feed Status: UP
Listen in your browser - HTML5 player(in browser, HTML5)
Click here to listen with your own player(launches your MP3 player)

SUMU 242200Z 00000KT 9000 FEW046 OVC100 18/16 Q1013 NOSIG

SUMU Flight Activity (Flightaware)

Listeners: 3 out of 2173 total

Montevideo Control: 128.500
Montevideo Control: 126.300

SUMU App/Dep (Archives)
Montevideo, Uruguay

Feed Status: UP
Listen in your browser - HTML5 player(in browser, HTML5)
Click here to listen with your own player(launches your MP3 player)

SUMU 242200Z 00000KT 9000 FEW046 OVC100 18/16 Q1013 NOSIG

SUMU Flight Activity (Flightaware)

Listeners: 2 out of 2173 total

SUMU Approach: 119.200
SUMU Approach: 120.200
SUMU Control: 128.500

SUMU Twr/App
Montevideo, Uruguay

Feed Status: DOWN
Offline since: 2024-07-24 19:10:40 UTC

SUMU 242200Z 00000KT 9000 FEW046 OVC100 18/16 Q1013 NOSIG

SUMU Approach: 119.200
SUMU Tower: 118.100

SUMU Twr/Info (Archives)
Montevideo, Uruguay

Feed Status: UP
Listen in your browser - HTML5 player(in browser, HTML5)
Click here to listen with your own player(launches your MP3 player)

SUMU 242200Z 00000KT 9000 FEW046 OVC100 18/16 Q1013 NOSIG

SUMU Flight Activity (Flightaware)

Listeners: 1 out of 2173 total

SUMU Info: 121.800
SUMU Tower: 118.100

SUPE CTAF (Archives)
Punta del Este, Uruguay

Feed Status: UP
Listen in your browser - HTML5 player(in browser, HTML5)
Click here to listen with your own player(launches your MP3 player)

SULS 242200Z VRB01KT CAVOK 16/13 Q1014

SULS Flight Activity (Flightaware)

Listeners: 1 out of 2173 total

Air to Air: 123.450
SUPE CTAF: 118.700

SUPU AFIS (Archives)
Paysandu, Uruguay

Feed Status: UP
Listen in your browser - HTML5 player(in browser, HTML5)
Click here to listen with your own player(launches your MP3 player)

SUPU 040900Z 10005KT 9999 FEW020TCU BKN070 FEW200 23/23 Q1010

SUPU Flight Activity (Flightaware)

Listeners: 1 out of 2173 total

Paysandu AFIS: 118.200
Paysandu AFIS: 118.700

SURV Tower/Ramp
Rivera, Uruguay

Feed Status: DOWN
Offline since: 2024-07-08 09:33:23 UTC

SURV 110000Z 16002KT CAVOK 19/11 Q1020

Rivera Flying Club Ops: 118.100
Rivera Ramp/Tower: 118.000
Rivera Ramp/Tower: 122.100

SUSO Tower/Ramp (Archives)
Salto, Uruguay

Feed Status: UP
Listen in your browser - HTML5 player(in browser, HTML5)
Click here to listen with your own player(launches your MP3 player)

SUSO 242100Z 07005KT 7000 FEW023 FEW033TCU BKN083 22/15 Q1013

SUSO Flight Activity (Flightaware)

Listeners: 1 out of 2173 total


SVMI/SVZM FIR
Maiquetia, Venezuela

Feed Status: DOWN
Offline since: 2024-03-23 12:45:22 UTC

Approach: 120.100
Emergency/Guard: 121.500
Emergency/Guard: 243.000
Maiquetia ACC S135 Aux: 123.800
Maiquetia ACC S246 Aux: 128.100
Maiquetia ACC Sector S1: 128.500
Maiquetia ACC Sector S2: 125.200
Maiquetia ACC Sector S3: 126.600
Maiquetia ACC Sector S4: 126.000
Maiquetia ACC Sector S5: 128.700
Maiquetia ACC Sector S6: 127.950

SVPR Twr/App/FIR (Archives)
Ciudad Guayana, Venezuela

Feed Status: UP
Listen in your browser - HTML5 player(in browser, HTML5)
Click here to listen with your own player(launches your MP3 player)

SVPR Flight Activity (Flightaware)

Listeners: 0 out of 2173 total

Emergency/Guard: 121.500
FIR 6: 126.000
Guayana Approach (Primary): 119.500
Guayana Approach (Secondary): 120.300
Guayana Tower (Primary): 118.000
Guayana Tower (Secondary): 123.500
SMC: 121.900

TBPB Gnd/Twr/Radar/Center (Archives)
Bridgetown, Barbados

Feed Status: UP
Listen in your browser - HTML5 player(in browser, HTML5)
Click here to listen with your own player(launches your MP3 player)

TBPB 242200Z 08014KT 9999 FEW018 BKN040 28/25 Q1016 NOSIG

TBPB Flight Activity (Flightaware)

Listeners: 0 out of 2173 total

Adams Approach/Departure: 129.350
Adams Approach/Departure: 128.850
Adams Ground: 121.900
Adams Tower: 118.700
Piarco Center: 123.700

TNCS Info/TFFJ Twr (Archives)
Gustavia, Saint Barthelemy

Feed Status: UP
Listen in your browser - HTML5 player(in browser, HTML5)
Click here to listen with your own player(launches your MP3 player)

TNCS Flight Activity (Flightaware)

Listeners: 0 out of 2173 total

Saba Tower: 118.250
St. Barths Tower: 118.450

TNCA Twr/App/Apron (Archives)
Oranjestad, Aruba

Feed Status: UP
Listen in your browser - HTML5 player(in browser, HTML5)
Click here to listen with your own player(launches your MP3 player)

TNCA 242200Z 08020KT 9999 FEW018 31/25 Q1013 NOSIG

TNCA Flight Activity (Flightaware)

Listeners: 1 out of 2173 total

Beatrix Ground (Apron): 121.600
Beatrix Tower: 118.000
Beatrix Twr/App: 120.900
Emergency/Guard: 121.500
Search/Rescue: 123.100

TNCB ATIS (Archives)
Kralendijk, Bonaire

Feed Status: UP
Listen in your browser - HTML5 player(in browser, HTML5)
Click here to listen with your own player(launches your MP3 player)

TNCB 242155Z 08018KT 050V110 9999 FEW017 30/25 Q1014

TNCB Flight Activity (Flightaware)

Listeners: 0 out of 2173 total

Bonaire ATIS: 132.300

TNCB Tower (Archives)
Kralendijk, Bonaire

Feed Status: UP
Listen in your browser - HTML5 player(in browser, HTML5)
Click here to listen with your own player(launches your MP3 player)

TNCB 242155Z 08018KT 050V110 9999 FEW017 30/25 Q1014

TNCB Flight Activity (Flightaware)

Listeners: 2 out of 2173 total

Bonaire Tower: 118.700

TNCC ATIS (Archives)
Willemstad, Curacao

Feed Status: UP
Listen in your browser - HTML5 player(in browser, HTML5)
Click here to listen with your own player(launches your MP3 player)

TNCC 242201Z 11013KT 9999 FEW018 30/25 Q1014 NOSIG=

TNCC Flight Activity (Flightaware)

Listeners: 0 out of 2173 total

Hato ATIS: 132.600

TNCC Control (Archives)
Willemstad, Curacao

Feed Status: UP
Listen in your browser - HTML5 player(in browser, HTML5)
Click here to listen with your own player(launches your MP3 player)

TNCC 242201Z 11013KT 9999 FEW018 30/25 Q1014 NOSIG=

TNCC Flight Activity (Flightaware)

Listeners: 0 out of 2173 total

Curacao Control: 124.100
Curacao Control: 127.100

TNCC Terminal (Archives)
Willemstad, Curacao

Feed Status: UP
Listen in your browser - HTML5 player(in browser, HTML5)
Click here to listen with your own player(launches your MP3 player)

TNCC 242201Z 11013KT 9999 FEW018 30/25 Q1014 NOSIG=

TNCC Flight Activity (Flightaware)

Listeners: 0 out of 2173 total

Curacao Terminal (1700-2300Z): 119.800

TNCC Tower (Archives)
Willemstad, Curacao

Feed Status: UP
Listen in your browser - HTML5 player(in browser, HTML5)
Click here to listen with your own player(launches your MP3 player)

TNCC 242201Z 11013KT 9999 FEW018 30/25 Q1014 NOSIG=

TNCC Flight Activity (Flightaware)

Listeners: 4 out of 2173 total

Hato Tower: 118.300

TNCE Info (Archives)
Oranjestad, Sint Eustatius

Feed Status: UP
Listen in your browser - HTML5 player(in browser, HTML5)
Click here to listen with your own player(launches your MP3 player)

TNCE 242155Z AUTO 10012KT 060V120 //// // ///////// 30/24 Q1019 RE//

TNCE Flight Activity (Flightaware)

Listeners: 0 out of 2173 total

Statia Info: 118.100

TNCM Tower (Archives)
Philipsburg, Saint Martin

Feed Status: UP
Listen in your browser - HTML5 player(in browser, HTML5)
Click here to listen with your own player(launches your MP3 player)

TNCM 242200Z 07010KT 9999 FEW018 30/27 Q1021 NOSIG

TNCM Flight Activity (Flightaware)

Listeners: 1 out of 2173 total

Juliana Tower (TNCM): 118.700

TNCS Info/TFFJ Twr (Archives)
Hell's Gate, Saba

Feed Status: UP
Listen in your browser - HTML5 player(in browser, HTML5)
Click here to listen with your own player(launches your MP3 player)

TNCS Flight Activity (Flightaware)

Listeners: 0 out of 2173 total

Saba Tower: 118.250
St. Barths Tower: 118.450

TTCP Gnd/Twr/App (Archives)
Scarborough, Trinidad and Tobago

Feed Status: UP
Listen in your browser - HTML5 player(in browser, HTML5)
Click here to listen with your own player(launches your MP3 player)

TTCP 242200Z 04008KT 9999 FEW022 30/24 Q1015 NOSIG

TTCP Flight Activity (Flightaware)

Listeners: 0 out of 2173 total

Piarco Approach: 119.000
Robinson Ground: 121.700
Robinson Tower: 118.400

TTPP Apron/Gnd/Twr (Archives)
Port of Spain, Trinidad and Tobago

Feed Status: UP
Listen in your browser - HTML5 player(in browser, HTML5)
Click here to listen with your own player(launches your MP3 player)

TTPP 242200Z 11005KT 9999 FEW020 29/25 Q1015 NOSIG

TTPP Flight Activity (Flightaware)

Listeners: 4 out of 2173 total

Piarco Apron: 121.750
Piarco Ground: 121.900
Piarco Tower: 118.100

TTPP Piarco App/Center (Archives)
Port of Spain, Trinidad and Tobago

Feed Status: UP
Listen in your browser - HTML5 player(in browser, HTML5)
Click here to listen with your own player(launches your MP3 player)

TTPP 242200Z 11005KT 9999 FEW020 29/25 Q1015 NOSIG

TTPP Flight Activity (Flightaware)

Listeners: 3 out of 2173 total

Piarco Approach: 119.550
Piarco Approach: 119.000
Piarco Approach (backup): 124.000
Piarco Center: 123.700
Piarco Center (Oceanic): 126.500
Piarco Center (South Sector): 125.400
Piarco Center Oceanic (Backup): 133.100

TXKF ATIS (Archives)
Hamilton, Bermuda

Feed Status: UP
Listen in your browser - HTML5 player(in browser, HTML5)
Click here to listen with your own player(launches your MP3 player)

TXKF 242155Z 16004KT 130V200 9999 FEW020 FEW160 29/23 Q1028

TXKF Flight Activity (Flightaware)

Listeners: 0 out of 2173 total

Bermuda ATIS: 119.600

TXKF Del/Gnd/Twr/CTAF (Archives)
Hamilton, Bermuda

Feed Status: UP
Listen in your browser - HTML5 player(in browser, HTML5)
Click here to listen with your own player(launches your MP3 player)

TXKF 242155Z 16004KT 130V200 9999 FEW020 FEW160 29/23 Q1028

TXKF Flight Activity (Flightaware)

Listeners: 0 out of 2173 total

Bermuda CTAF: 122.800
Bermuda Ground/Clearance: 124.500
Bermuda Tower: 118.100

TXKF Tower (Archives)
Hamilton, Bermuda

Feed Status: UP
Listen in your browser - HTML5 player(in browser, HTML5)
Click here to listen with your own player(launches your MP3 player)

TXKF 242155Z 16004KT 130V200 9999 FEW020 FEW160 29/23 Q1028

TXKF Flight Activity (Flightaware)

Listeners: 0 out of 2173 total

Bermuda Tower: 118.100

ZNY Sector 81 (Bermuda)/App (Archives)
Hamilton, Bermuda

Feed Status: UP
Listen in your browser - HTML5 player(in browser, HTML5)
Click here to listen with your own player(launches your MP3 player)

TXKF 242155Z 16004KT 130V200 9999 FEW020 FEW160 29/23 Q1028

TXKF Flight Activity (Flightaware)

Listeners: 1 out of 2173 total

New York Approach: 119.100
New York Center (BDA81 Bermuda Sector): 128.500

UHHH Gnd/Twr/App/Radar/Control (Archives)
Khabarovsk, Russia

Feed Status: UP
Listen in your browser - HTML5 player(in browser, HTML5)
Click here to listen with your own player(launches your MP3 player)

UHHH 242200Z 05006MPS 9999 FEW010 19/15 Q1009 R05L/090060 NOSIG RMK QFE750/1000

UHHH Flight Activity (Flightaware)

Listeners: 2 out of 2173 total

Emergency/Guard: 121.500
Khabarovsk Approach: 125.200
Khabarovsk Control Sector 2: 124.500
Khabarovsk Control Sector 3: 128.800
Khabarovsk Control Sector 3: 127.100
Khabarovsk Control Sector 4: 128.300
Khabarovsk Control Sector 4: 134.700
Khabarovsk Ground: 121.800
Khabarovsk Radar: 120.300
Khabarovsk Tower: 119.300

UNNT Gnd/Twr/App/Radar/Misc (Archives)
Novosibirsk, Russia

Feed Status: UP
Listen in your browser - HTML5 player(in browser, HTML5)
Click here to listen with your own player(launches your MP3 player)

UNNT 242200Z 13002MPS 9999 FEW040CB 20/19 Q1000 R25/090070 R16/090070 NOSIG RMK QFE740/0987

UNNT Flight Activity (Flightaware)

Listeners: 14 out of 2173 total

ACC_Novosibirsk-Control [5th military channel]: 128.500
ACC_Novosibirsk-Control [Southeast]: 126.100
ACC_Novosibirsk-Control [West]: 127.000
GPA_Kristallik [Severniy airfield]: 123.425
GPA_Sernisiy [Chkalovskiy airfield]: 124.750
GPA_Tomsk Information 1: 134.500
MIL_3 [3rd military channel]: 130.750
MIL_Larek [Shilovo facility]: 123.750
MIL_Maneken [Chkalovskiy airfield]: 123.550
MIL_Novosibirsk-1 [1st military channel]: 124.000
MIL_Noyabr' 31: 124.900
MIL_Trimaran: 124.500
SP_Air-to-Air: 123.450
SP_Air-to-Air 2: 123.400
SP_Common backup frequency: 129.000
SP_Emergency: 121.500
SP_Emergency 2: 123.100
SP_Flyoff: 124.375
SURF_Boarding: 163.425
SURF_Duty chart: 163.800
SURF_O&D Service: 163.325
SURF_Search & Rescue: 164.000
SURF_Security: 163.750
SURF_Tower surf: 163.650
SURF_Vehicles: 163.850
UNNT_Backup frequency: 127.100
UNNT_Novosibirsk-Approach: 127.500
UNNT_Novosibirsk-Ground: 121.700
UNNT_Novosibirsk-Radar: 122.000
UNNT_Novosibirsk-Tower: 118.500
UNNT_Novosibirsk-Transit: 131.600
UNNT_S7 FOCC: 131.925

UNOO Gnd/Tower/App
Omsk, Russia

Feed Status: DOWN
Offline since: 2024-07-21 12:31:23 UTC

UNOO 242200Z 30004MPS 9999 BKN018 BKN030CB 14/10 Q1003 R25/CLRD60 NOSIG RMK QFE744

Aerodrom Kalachevo: 123.300
Aerodrom Marianovka: 123.000
Emergency/Guard: 121.500
Novosibirsk Control (Sector 7): 132.500
Novosibirsk Control (Sector 8): 132.900
Omsk Approach (FL060-FL265): 131.200
Omsk Apron: 118.800
Omsk Start/Radar: 119.000
Omsk Taxiing: 121.700
Omsk Transit: 131.700
UNOS/OMSK-Severny: 124.000

UNTT Gnd/Info/Radar/Control
Tomsk, Russia

Feed Status: DOWN
Offline since: 2024-01-31 10:16:23 UTC

Common Backup Frequency: 129.000
Emergency/Guard: 121.500
Kemerovo Approach: 125.500
Novosibirsk Control (Sector 3): 129.300
Novosibirsk Control (Sector 5): 132.300
Novosibirsk Control (Sector 9): 134.400
Tomsk Ground: 118.800
Tomsk Information (Sector 3): 129.800
Tomsk Tower: 127.300
Tomsk Transit: 131.875
Troynik (Golovino): 122.400

URSS Gnd/Twr/App (Archives)
Sochi, Russia

Feed Status: UP
Listen in your browser - HTML5 player(in browser, HTML5)
Click here to listen with your own player(launches your MP3 player)

URSS 242200Z 04005MPS 9999 NSC 22/18 Q1004 R02/010070 R06/010070 NOSIG RMK R06/08006MPS QFE752

URSS Flight Activity (Flightaware)

Listeners: 8 out of 2173 total

Sochi Approach: 118.300
Sochi Approach: 119.700
Sochi District (Small Aircraft): 118.500
Sochi Start: 121.200
Sochi Taxi: 119.000
Sochi Tower: 124.600

USDD Gnd/Twr/App/Control (Archives)
Salekhard, Russia

Feed Status: UP
Listen in your browser - HTML5 player(in browser, HTML5)
Click here to listen with your own player(launches your MP3 player)

USDD 150530Z 05007MPS 9999 -SHRA BKN009CB 09/07 Q1002 R04/290060 NOSIG RMK QFE746/0994

USDD Flight Activity (Flightaware)

Listeners: 0 out of 2173 total

Salekhard Control: 132.300
Salekhard Ground: 118.800
Salekhard Info: 125.200
Salekhard Krug: 120.800
Salekhard Tower: 118.600
Salekhard Transit: 131.700

USTR Gnd/Twr/App (Archives)
Tyumen, Russia

Feed Status: UP
Listen in your browser - HTML5 player(in browser, HTML5)
Click here to listen with your own player(launches your MP3 player)

USTR 242200Z 02002MPS 330V040 CAVOK 11/08 Q1007 R30/090065 R03/090065 TEMPO 2100 BR SCT005

USTR Flight Activity (Flightaware)

Listeners: 2 out of 2173 total

Tyumen Approach: 126.100
Tyumen Control: 132.600
Tyumen Control: 133.600
Tyumen Info (Regional): 133.400
Tyumen Start: 118.200
Tyumen Transit: 131.800

UUEE Twr/App/Radar
Moscow, Russia

Feed Status: DOWN
Offline since: 2023-08-19 16:35:40 UTC

UUEE 242200Z 31003MPS CAVOK 19/14 Q1010 R06R/CLRD62 R06C/CLRD62 NOSIG

Sheremetyevo Radar (low altitude): 119.300
Sheremetyevo Radar/Arrival: 122.700
Sheremetyevo Radar/Departure: 126.600
Sheremetyevo Tower: 131.500

VCBI App/Center
Colombo, Sri Lanka

Feed Status: DOWN
Offline since: 2024-02-19 06:20:39 UTC

VCBI 242210Z 21006KT 9999 BKN016 28/26 Q1007 NOSIG

Colombo Center: 124.900
Colombo/Ratmalana Approach: 119.100

VHHH App/Dep/Dir/Zone (Archives)
Hong Kong, Hong Kong

Feed Status: UP
Listen in your browser - HTML5 player(in browser, HTML5)
Click here to listen with your own player(launches your MP3 player)

VHHH 242230Z 23011KT 9999 FEW015 30/26 Q0993 NOSIG

VHHH Flight Activity (Flightaware)

Listeners: 10 out of 2173 total

Emergency/Guard: 121.500
Hong Kong Approach: 119.100
Hong Kong Approach: 119.350
Hong Kong Departure: 123.800
Hong Kong Departure: 122.000
Hong Kong Departure: 124.050
Hong Kong Director: 119.500
Hong Kong Director: 119.350
Hong Kong Zone: 120.600

VHHH Twr/App/Dep/Dir/Zone
Hong Kong, Hong Kong

Feed Status: DOWN
Offline since: 2024-04-30 16:30:40 UTC

VHHH 242230Z 23011KT 9999 FEW015 30/26 Q0993 NOSIG

Hong Kong Departure: 122.000
Hong Kong Information: 122.400
Hong Kong Radar (East): 118.925
Hong Kong Radar (South): 132.150
Hong Kong Radar (Terminal Departure Central): 123.475
Hong Kong Radar (Terminal East): 126.500
Hong Kong Radar (Terminal West) : 127.550

VTSS Approach
Songkhla, Thailand

Feed Status: DOWN
Offline since: 2024-03-05 20:01:06 UTC

VTSS 242200Z VRB02KT 5000 BR FEW020 BKN100 25/24 Q1005 NOSIG

Hat Yai Approach: 126.700

WBKK Gnd/Twr/Radar/Control (Archives)
Kota Kinabalu, Malaysia

Feed Status: UP
Listen in your browser - HTML5 player(in browser, HTML5)
Click here to listen with your own player(launches your MP3 player)

WBKK 242200Z VRB02KT 9999 FEW014 25/23 Q1007 NOSIG


Listeners: 2 out of 2173 total

Kinabalu Director: 119.100
Kinabalu Ground: 121.600
Kinabalu Radar: 126.100
Kinabalu Radar: 132.450
Kinabalu Radar: 128.300
Kinabalu Tower: 118.300

WBKS Approach
Sandakan, Malaysia

Feed Status: DOWN
Offline since: 2024-07-07 16:22:39 UTC

WBKS 242200Z VRB02KT 9999 FEW016 26/25 Q1006

Sandakan Approach/Departure: 123.200

WBKS Emergency/Guard
Sandakan, Malaysia

Feed Status: DOWN
Offline since: 2024-07-07 16:22:39 UTC

WBKS 242200Z VRB02KT 9999 FEW016 26/25 Q1006

Emergency/Guard: 121.500

WBKS Gnd/Twr/App/Guard
Sandakan, Malaysia

Feed Status: DOWN
Offline since: 2024-07-07 16:22:39 UTC

WBKS 242200Z VRB02KT 9999 FEW016 26/25 Q1006

Emergency/Guard: 121.500
Sandakan Approach/Departure: 123.200
Sandakan Ground: 121.900
Sandakan Tower: 122.050

WBKS Ground
Sandakan, Malaysia

Feed Status: DOWN
Offline since: 2024-07-07 16:22:39 UTC

WBKS 242200Z VRB02KT 9999 FEW016 26/25 Q1006

Sandakan Ground: 121.900

WBKS Tower
Sandakan, Malaysia

Feed Status: DOWN
Offline since: 2024-07-07 16:22:39 UTC

WBKS 242200Z VRB02KT 9999 FEW016 26/25 Q1006

Sandakan Tower: 122.050

WMKB Radar (Archives)
Penang, Malaysia

Feed Status: UP
Listen in your browser - HTML5 player(in browser, HTML5)
Click here to listen with your own player(launches your MP3 player)

WMKB 242200Z VRB02KT 6000 FEW024 27/24 Q1005 NOSIG


Listeners: 1 out of 2173 total

Butterworth Radar: 125.925

WSSS Del/Gnd/App/Radar (Archives)
Singapore, Singapore

Feed Status: UP
Listen in your browser - HTML5 player(in browser, HTML5)
Click here to listen with your own player(launches your MP3 player)

WSSS 242230Z 12007KT 9999 SCT016 BKN300 28/25 Q1007 NOSIG


Listeners: 7 out of 2173 total

Seletar Tower: 118.450
Seletar Tower: 130.200
Sembawabg Tower: 129.700
Singapore Approach/Departure (P): 120.300
Singapore Approach/Departure (S): 124.600
Singapore Arrival: 119.300
Singapore Clearance Delivery: 121.650
Singapore Radar: 124.050
Singapore Radar: 133.800
Singapore Radar (P): 133.250
Singapore Radar (P): 123.700
Singapore Radar (P): 134.200
Singapore Radar (P): 134.400
Singapore Radar (S): 127.300
Singapore Radar (S): 128.100
Singapore Radar (S): 135.800
Singapore Radar (S): 133.350

YADG CTAF (Archives)
Sellicks Hill, South Australia, Australia

Feed Status: UP
Listen in your browser - HTML5 player(in browser, HTML5)
Click here to listen with your own player(launches your MP3 player)

YADG Flight Activity (Flightaware)

Listeners: 0 out of 2173 total

Aldinga CTAF: 127.150

YBAF Gnd/Twr
Brisbane, Queensland, Australia

Feed Status: DOWN
Offline since: 2024-07-23 05:41:06 UTC

Archerfield Ground: 119.900
Archerfield Tower (North): 123.600
Archerfield Tower/CTAF (South): 118.100

YBAF Ground
Brisbane, Queensland, Australia

Feed Status: DOWN
Offline since: 2024-07-23 05:41:06 UTC

Archerfield Ground: 119.900

YBAF Tower (North) (Archives)
Brisbane, Queensland, Australia

Feed Status: UP
Listen in your browser - HTML5 player(in browser, HTML5)
Click here to listen with your own player(launches your MP3 player)

YBBN 242200Z 21003KT 9999 FEW040 16/15 Q1024

YBBN Flight Activity (Flightaware)

Listeners: 0 out of 2173 total

Archerfield Tower (North): 123.600

YBAF Tower (North/South)
Brisbane, Queensland, Australia

Feed Status: DOWN
Offline since: 2024-07-23 05:41:06 UTC

Archerfield Tower (North): 123.600
Archerfield Tower/CTAF (South): 118.100

YBAF Tower (South)
Brisbane, Queensland, Australia

Feed Status: DOWN
Offline since: 2024-07-23 05:41:06 UTC

Archerfield Tower/CTAF (South): 118.100

YBAF Tower (South) (Archives)
Brisbane, Queensland, Australia

Feed Status: UP
Listen in your browser - HTML5 player(in browser, HTML5)
Click here to listen with your own player(launches your MP3 player)

YBBN 242200Z 21003KT 9999 FEW040 16/15 Q1024

YBBN Flight Activity (Flightaware)

Listeners: 1 out of 2173 total

Archerfield Tower (South): 118.100

YBAS Tower/Center (Archives)
Alice Springs, Northern Territory, Australia

Feed Status: UP
Listen in your browser - HTML5 player(in browser, HTML5)
Click here to listen with your own player(launches your MP3 player)

YBAS 242200Z AUTO 28009KT 9999 // NCD 08/02 Q1017 RF00.0/000.0

YBAS Flight Activity (Flightaware)

Listeners: 1 out of 2173 total

Alice Tower/CTAF: 118.300
Melbourne Center (above FL280): 128.850
Melbourne Center (below FL280): 119.800

YBBN Approach (North) (Archives)
Brisbane, Queensland, Australia

Feed Status: UP
Listen in your browser - HTML5 player(in browser, HTML5)
Click here to listen with your own player(launches your MP3 player)

YBBN 242200Z 21003KT 9999 FEW040 16/15 Q1024

YBBN Flight Activity (Flightaware)

Listeners: 1 out of 2173 total

Brisbane Approach (North): 124.700

YBBN Approach (South) (Archives)
Brisbane, Queensland, Australia

Feed Status: UP
Listen in your browser - HTML5 player(in browser, HTML5)
Click here to listen with your own player(launches your MP3 player)

YBBN 242200Z 21003KT 9999 FEW040 16/15 Q1024

YBBN Flight Activity (Flightaware)

Listeners: 0 out of 2173 total

Brisbane Approach (South): 125.600

YBBN Area Air-to-Air (Archives)
Brisbane, Queensland, Australia

Feed Status: UP
Listen in your browser - HTML5 player(in browser, HTML5)
Click here to listen with your own player(launches your MP3 player)

YBBN 242200Z 21003KT 9999 FEW040 16/15 Q1024

YBBN Flight Activity (Flightaware)

Listeners: 0 out of 2173 total

Air to Air: 123.450

YBBN ATIS (Archives)
Brisbane, Queensland, Australia

Feed Status: UP
Listen in your browser - HTML5 player(in browser, HTML5)
Click here to listen with your own player(launches your MP3 player)

YBBN 242200Z 21003KT 9999 FEW040 16/15 Q1024

YBBN Flight Activity (Flightaware)

Listeners: 0 out of 2173 total

Brisbane ATIS: 125.500

YBBN Brisbane Center (128.6) (Archives)
Brisbane, Queensland, Australia

Feed Status: UP
Listen in your browser - HTML5 player(in browser, HTML5)
Click here to listen with your own player(launches your MP3 player)

YSSY 242200Z 03003KT CAVOK 17/06 Q1019

YSSY Flight Activity (Flightaware)

Listeners: 2 out of 2173 total

Brisbane Center: 128.600

YBBN Brisbane Center (129.000) (Archives)
Brisbane, Queensland, Australia

Feed Status: UP
Listen in your browser - HTML5 player(in browser, HTML5)
Click here to listen with your own player(launches your MP3 player)

YBBN 242200Z 21003KT 9999 FEW040 16/15 Q1024

YBBN Flight Activity (Flightaware)

Listeners: 0 out of 2173 total

Brisbane Center (East of Brisbane): 134.300
Brisbane Center (Mount Glorious): 123.000
Brisbane Center (Mount Glorious): 129.000

YBBN Brisbane Center - Gold Coast (Archives)
Brisbane, Queensland, Australia

Feed Status: UP
Listen in your browser - HTML5 player(in browser, HTML5)
Click here to listen with your own player(launches your MP3 player)

YBBN 242200Z 21003KT 9999 FEW040 16/15 Q1024

YBBN Flight Activity (Flightaware)

Listeners: 0 out of 2173 total

Brisbane Center (Gold Coast): 119.500

YBBN Brisbane Center 01 (Archives)
Brisbane, Queensland, Australia

Feed Status: UP
Listen in your browser - HTML5 player(in browser, HTML5)
Click here to listen with your own player(launches your MP3 player)

YBBN 242200Z 21003KT 9999 FEW040 16/15 Q1024

YBBN Flight Activity (Flightaware)

Listeners: 0 out of 2173 total

Brisbane Center 01: 125.700

YBBN Departure (North) (Archives)
Brisbane, Queensland, Australia

Feed Status: UP
Listen in your browser - HTML5 player(in browser, HTML5)
Click here to listen with your own player(launches your MP3 player)

YBBN 242200Z 21003KT 9999 FEW040 16/15 Q1024

YBBN Flight Activity (Flightaware)

Listeners: 0 out of 2173 total

Brisbane Departure (North): 123.500

YBBN Ground (Archives)
Brisbane, Queensland, Australia

Feed Status: UP
Listen in your browser - HTML5 player(in browser, HTML5)
Click here to listen with your own player(launches your MP3 player)

YBBN 242200Z 21003KT 9999 FEW040 16/15 Q1024

YBBN Flight Activity (Flightaware)

Listeners: 0 out of 2173 total

Brisbane Ground: 124.050

YBBN Tower (North) (Archives)
Brisbane, Queensland, Australia

Feed Status: UP
Listen in your browser - HTML5 player(in browser, HTML5)
Click here to listen with your own player(launches your MP3 player)

YBBN 242200Z 21003KT 9999 FEW040 16/15 Q1024

YBBN Flight Activity (Flightaware)

Listeners: 0 out of 2173 total

Brisbane Tower (North): 118.000

YBBN Tower (South) (Archives)
Brisbane, Queensland, Australia

Feed Status: UP
Listen in your browser - HTML5 player(in browser, HTML5)
Click here to listen with your own player(launches your MP3 player)

YBBN 242200Z 21003KT 9999 FEW040 16/15 Q1024

YBBN Flight Activity (Flightaware)

Listeners: 0 out of 2173 total

Brisbane Tower (South): 120.500

YBBN Twr/App/Dep
Brisbane, Queensland, Australia

Feed Status: DOWN
Offline since: 2024-07-22 01:21:05 UTC

YBBN 242200Z 21003KT 9999 FEW040 16/15 Q1024

Brisbane Approach: 123.500
Brisbane Approach/Departure (North): 124.700
Brisbane Approach/Departure (South): 125.600
Brisbane Departure: 128.300
Brisbane Departure: 133.450
Brisbane Tower: 120.500

YBCG Approach (Archives)
Gold Coast City, Queensland, Australia

Feed Status: UP
Listen in your browser - HTML5 player(in browser, HTML5)
Click here to listen with your own player(launches your MP3 player)

YBCG 242200Z AUTO 26005KT 9999 // NCD 15/15 Q1023 RF00.0/003.6

YBCG Flight Activity (Flightaware)

Listeners: 0 out of 2173 total

Brisbane Approach: 123.500

YBCG Area CTAF (Archives)
Gold Coast City, Queensland, Australia

Feed Status: UP
Listen in your browser - HTML5 player(in browser, HTML5)
Click here to listen with your own player(launches your MP3 player)

YBCG 242200Z AUTO 26005KT 9999 // NCD 15/15 Q1023 RF00.0/003.6

YBCG Flight Activity (Flightaware)

Listeners: 0 out of 2173 total

YBCG Training/YTYH/YMUR : 127.550

YBCG Brisbane Centre (Archives)
Gold Coast City, Queensland, Australia

Feed Status: UP
Listen in your browser - HTML5 player(in browser, HTML5)
Click here to listen with your own player(launches your MP3 player)

YBCG 242200Z AUTO 26005KT 9999 // NCD 15/15 Q1023 RF00.0/003.6

YBCG Flight Activity (Flightaware)

Listeners: 1 out of 2173 total

Brisbane Centre/Radar: 119.500

YBCG Ground (Archives)
Gold Coast City, Queensland, Australia

Feed Status: UP
Listen in your browser - HTML5 player(in browser, HTML5)
Click here to listen with your own player(launches your MP3 player)

YBCG 242200Z AUTO 26005KT 9999 // NCD 15/15 Q1023 RF00.0/003.6

YBCG Flight Activity (Flightaware)

Listeners: 1 out of 2173 total

Gold Coast Ground: 121.800

YBCG Ground/Tower (Archives)
Gold Coast City, Queensland, Australia

Feed Status: UP
Listen in your browser - HTML5 player(in browser, HTML5)
Click here to listen with your own player(launches your MP3 player)

YBCG 242200Z AUTO 26005KT 9999 // NCD 15/15 Q1023 RF00.0/003.6

YBCG Flight Activity (Flightaware)

Listeners: 0 out of 2173 total

Gold Coast Ground: 121.800
Gold Coast Tower: 118.700

YBCG Tower #1 (Archives)
Gold Coast City, Queensland, Australia

Feed Status: UP
Listen in your browser - HTML5 player(in browser, HTML5)
Click here to listen with your own player(launches your MP3 player)

YBCG 242200Z AUTO 26005KT 9999 // NCD 15/15 Q1023 RF00.0/003.6

YBCG Flight Activity (Flightaware)

Listeners: 0 out of 2173 total

Gold Coast Tower: 118.700

YBCG Tower #2 (Archives)
Gold Coast City, Queensland, Australia

Feed Status: UP
Listen in your browser - HTML5 player(in browser, HTML5)
Click here to listen with your own player(launches your MP3 player)

YBBN 242200Z 21003KT 9999 FEW040 16/15 Q1024

YBBN Flight Activity (Flightaware)

Listeners: 0 out of 2173 total

Gold Coast Tower: 118.700

YBCS App/Dep #1 (Archives)
Cairns, Queensland, Australia

Feed Status: UP
Listen in your browser - HTML5 player(in browser, HTML5)
Click here to listen with your own player(launches your MP3 player)

YBCS 242225Z AUTO 18008KT 050V220 9999 -SHRA FEW036 BKN046 OVC051 21/19 Q1017

YBCS Flight Activity (Flightaware)

Listeners: 0 out of 2173 total

Cairns Approach/Departure: 118.400

YBCS App/Dep #2 (Archives)
Cairns, Queensland, Australia

Feed Status: UP
Listen in your browser - HTML5 player(in browser, HTML5)
Click here to listen with your own player(launches your MP3 player)

YBCS 242225Z AUTO 18008KT 050V220 9999 -SHRA FEW036 BKN046 OVC051 21/19 Q1017

YBCS Flight Activity (Flightaware)

Listeners: 0 out of 2173 total

Cairns Approach/Departure: 126.100

YBCS App/Dep (all) (Archives)
Cairns, Queensland, Australia

Feed Status: UP
Listen in your browser - HTML5 player(in browser, HTML5)
Click here to listen with your own player(launches your MP3 player)

YBCS 242225Z AUTO 18008KT 050V220 9999 -SHRA FEW036 BKN046 OVC051 21/19 Q1017

YBCS Flight Activity (Flightaware)

Listeners: 0 out of 2173 total

Cairns Approach/Departure: 126.100
Cairns Approach/Departure: 118.400

YBCS Brisbane Centre (Archives)
Cairns, Queensland, Australia

Feed Status: UP
Listen in your browser - HTML5 player(in browser, HTML5)
Click here to listen with your own player(launches your MP3 player)

YBCS 242225Z AUTO 18008KT 050V220 9999 -SHRA FEW036 BKN046 OVC051 21/19 Q1017

YBCS Flight Activity (Flightaware)

Listeners: 1 out of 2173 total

Brisbane Centre: 121.200

YBCS Emergency/Guard (Archives)
Cairns, Queensland, Australia

Feed Status: UP
Listen in your browser - HTML5 player(in browser, HTML5)
Click here to listen with your own player(launches your MP3 player)

YBCS 242225Z AUTO 18008KT 050V220 9999 -SHRA FEW036 BKN046 OVC051 21/19 Q1017

YBCS Flight Activity (Flightaware)

Listeners: 0 out of 2173 total

Emergency/Guard: 121.500

YBCS Ground (Archives)
Cairns, Queensland, Australia

Feed Status: UP
Listen in your browser - HTML5 player(in browser, HTML5)
Click here to listen with your own player(launches your MP3 player)

YBCS 242225Z AUTO 18008KT 050V220 9999 -SHRA FEW036 BKN046 OVC051 21/19 Q1017

YBCS Flight Activity (Flightaware)

Listeners: 0 out of 2173 total

Cairns Ground: 121.700

YBCS Ground/Tower (Archives)
Cairns, Queensland, Australia

Feed Status: UP
Listen in your browser - HTML5 player(in browser, HTML5)
Click here to listen with your own player(launches your MP3 player)

YBCS 242225Z AUTO 18008KT 050V220 9999 -SHRA FEW036 BKN046 OVC051 21/19 Q1017

YBCS Flight Activity (Flightaware)

Listeners: 0 out of 2173 total

Cairns Ground: 121.700
Cairns Tower: 124.900

YBCS Tower (Archives)
Cairns, Queensland, Australia

Feed Status: UP
Listen in your browser - HTML5 player(in browser, HTML5)
Click here to listen with your own player(launches your MP3 player)

YBCS 242225Z AUTO 18008KT 050V220 9999 -SHRA FEW036 BKN046 OVC051 21/19 Q1017

YBCS Flight Activity (Flightaware)

Listeners: 0 out of 2173 total

Cairns Tower: 124.900

YBCV CTAF/Brisbane Center (Archives)
Charleville, Queensland, Australia

Feed Status: UP
Listen in your browser - HTML5 player(in browser, HTML5)
Click here to listen with your own player(launches your MP3 player)

YBCV 151208Z AUTO 20005KT 9999 // NCD 19/07 Q1012

YBCV Flight Activity (Flightaware)

Listeners: 1 out of 2173 total

Brisbane Center: 124.800
Charleville CTAF/UNICOM: 126.700

YBDG Center (Archives)
Bendigo, Victoria, Australia

Feed Status: UP
Listen in your browser - HTML5 player(in browser, HTML5)
Click here to listen with your own player(launches your MP3 player)

YBDG Flight Activity (Flightaware)

Listeners: 2 out of 2173 total

Melbourne Center: 126.800

YBDG CTAF (Archives)
Bendigo, Victoria, Australia

Feed Status: UP
Listen in your browser - HTML5 player(in browser, HTML5)
Click here to listen with your own player(launches your MP3 player)

YBDG Flight Activity (Flightaware)

Listeners: 0 out of 2173 total

Bendigo CTAF: 119.300

YBOK Del/Gnd/Twr/App (Archives)
Oakey, Queensland, Australia

Feed Status: UP
Listen in your browser - HTML5 player(in browser, HTML5)
Click here to listen with your own player(launches your MP3 player)

YBOK Flight Activity (Flightaware)

Listeners: 4 out of 2173 total

Brisbane Center/FSS: 121.200
Oakey Approach: 125.400
Oakey Approach: 123.700
Oakey Approach (Final): 135.850
Oakey Clearance Delivery: 133.350
Oakey CTAF (+YTWB/YBWW): 127.650
Oakey Ground: 121.900
Oakey Tower: 120.100

YBSS CTAF
Bacchus Marsh, Victoria, Australia

Feed Status: DOWN
Offline since: 2023-06-18 22:13:40 UTC

Bacchus Marsh CTAF: 118.800

YBSS Glider 122.5
Bacchus Marsh, Victoria, Australia

Feed Status: DOWN
Offline since: 2023-06-21 20:25:06 UTC

Bacchus Marsh Glider Chat: 122.500

YBSS Glider 122.7
Bacchus Marsh, Victoria, Australia

Feed Status: DOWN
Offline since: 2023-06-21 20:25:06 UTC

Bacchus Marsh Glider Chat: 122.700

YBSS Glider 122.9
Bacchus Marsh, Victoria, Australia

Feed Status: DOWN
Offline since: 2023-06-21 17:45:06 UTC

Bacchus Marsh Glider Chat: 122.900

YBCG Tower (Archives)
Marcoola, Queensland, Australia

Feed Status: UP
Listen in your browser - HTML5 player(in browser, HTML5)
Click here to listen with your own player(launches your MP3 player)

YBBN 242200Z 21003KT 9999 FEW040 16/15 Q1024

YBBN Flight Activity (Flightaware)

Listeners: 0 out of 2173 total


YBTL Approach/Departure (Archives)
Townsville, Queensland, Australia

Feed Status: UP
Listen in your browser - HTML5 player(in browser, HTML5)
Click here to listen with your own player(launches your MP3 player)

YBTL 242200Z AUTO 00000KT 9999 // BKN026 OVC036 19/15 Q1019

YBTL Flight Activity (Flightaware)

Listeners: 0 out of 2173 total

Townsville Approach/Departure: 126.800

YBTL ATIS (Archives)
Townsville, Queensland, Australia

Feed Status: UP
Listen in your browser - HTML5 player(in browser, HTML5)
Click here to listen with your own player(launches your MP3 player)

YBTL 242200Z AUTO 00000KT 9999 // BKN026 OVC036 19/15 Q1019

YBTL Flight Activity (Flightaware)

Listeners: 0 out of 2173 total

Townsville ATIS: 133.500

YBTL Brisbane Center (Archives)
Townsville, Queensland, Australia

Feed Status: UP
Listen in your browser - HTML5 player(in browser, HTML5)
Click here to listen with your own player(launches your MP3 player)

YBTL 242200Z AUTO 00000KT 9999 // BKN026 OVC036 19/15 Q1019

YBTL Flight Activity (Flightaware)

Listeners: 2 out of 2173 total

Brisbane Center: 120.550

YBTL Clearance Delivery (Archives)
Townsville, Queensland, Australia

Feed Status: UP
Listen in your browser - HTML5 player(in browser, HTML5)
Click here to listen with your own player(launches your MP3 player)

YBTL 242200Z AUTO 00000KT 9999 // BKN026 OVC036 19/15 Q1019

YBTL Flight Activity (Flightaware)

Listeners: 0 out of 2173 total

Townsville Clearance Delivery: 128.100

YBTL Ground (Archives)
Townsville, Queensland, Australia

Feed Status: UP
Listen in your browser - HTML5 player(in browser, HTML5)
Click here to listen with your own player(launches your MP3 player)

YBTL 242200Z AUTO 00000KT 9999 // BKN026 OVC036 19/15 Q1019

YBTL Flight Activity (Flightaware)

Listeners: 0 out of 2173 total

Townsville Ground: 119.450

YBTL Tower (Archives)
Townsville, Queensland, Australia

Feed Status: UP
Listen in your browser - HTML5 player(in browser, HTML5)
Click here to listen with your own player(launches your MP3 player)

YBTL 242200Z AUTO 00000KT 9999 // BKN026 OVC036 19/15 Q1019

YBTL Flight Activity (Flightaware)

Listeners: 0 out of 2173 total

Townsville Tower: 118.300

YCAB CTAF (Archives)
Caboolture, Queensland, Australia

Feed Status: UP
Listen in your browser - HTML5 player(in browser, HTML5)
Click here to listen with your own player(launches your MP3 player)

YBBN 242200Z 21003KT 9999 FEW040 16/15 Q1024

YBBN Flight Activity (Flightaware)

Listeners: 0 out of 2173 total

Caboolture CTAF: 125.850

YCDR/YCAB CTAF/Unicom (Archives)
Caboolture, Queensland, Australia

Feed Status: UP
Listen in your browser - HTML5 player(in browser, HTML5)
Click here to listen with your own player(launches your MP3 player)

YCDR Flight Activity (Flightaware)

Listeners: 0 out of 2173 total

Caloundra/Caboolture CTAF: 125.850
UNICOM (used for aerodromes outside CTAF area): 126.700

YCDR/YCAB CTAF/Unicom (Archives)
Caloundra, Queensland, Australia

Feed Status: UP
Listen in your browser - HTML5 player(in browser, HTML5)
Click here to listen with your own player(launches your MP3 player)

YCDR Flight Activity (Flightaware)

Listeners: 0 out of 2173 total

Caloundra/Caboolture CTAF: 125.850
UNICOM (used for aerodromes outside CTAF area): 126.700

YGAW CTAF (Archives)
Gawler, South Australia, Australia

Feed Status: UP
Listen in your browser - HTML5 player(in browser, HTML5)
Click here to listen with your own player(launches your MP3 player)

METAR NOT AVAILABLE

YGAW Flight Activity (Flightaware)

Listeners: 0 out of 2173 total

Gawler CTAF: 126.550

YGTH AWIS
Griffith, New South Wales, Australia

Feed Status: DOWN
Offline since: 2024-03-13 00:30:06 UTC

YGTH 141229Z AUTO 23016KT 9999 DZ SCT023 BKN028 BKN040 15/14 Q1010

Griffith AWIS Weather: 132.950

YGTH CTAF
Griffith, New South Wales, Australia

Feed Status: DOWN
Offline since: 2024-03-13 00:30:06 UTC

YGTH 141229Z AUTO 23016KT 9999 DZ SCT023 BKN028 BKN040 15/14 Q1010

Griffith CTAF: 126.550

YHEC CTAF (Archives)
Norwell, Queensland, Australia

Feed Status: UP
Listen in your browser - HTML5 player(in browser, HTML5)
Click here to listen with your own player(launches your MP3 player)

YBBN 242200Z 21003KT 9999 FEW040 16/15 Q1024

YBBN Flight Activity (Flightaware)

Listeners: 0 out of 2173 total

Heck Field CTAF: 119.000

YIVL CTAF/Center (Archives)
Inverell, New South Wales, Australia

Feed Status: UP
Listen in your browser - HTML5 player(in browser, HTML5)
Click here to listen with your own player(launches your MP3 player)

YIVL Flight Activity (Flightaware)

Listeners: 1 out of 2173 total

Brisbane Center: 132.350
Brisbane Center: 127.100
Brisbane Center: 130.900
Brisbane Center (high alt SE Inverell): 130.100
Brisbane Center (high alt): 133.000
Brisbane Center (NE Inverell): 134.200
Brisbane Center (North and East Inverell): 127.200
Brisbane Center (North Inverell high alt): 135.600
Brisbane Center (North Inverell): 121.200
Brisbane Center (SE Inverell): 125.750
Inverell CTAF: 126.700
Tamworth Tower: 119.400

YMAV Del/App (Archives)
Avalon, Victoria, Australia

Feed Status: UP
Listen in your browser - HTML5 player(in browser, HTML5)
Click here to listen with your own player(launches your MP3 player)

YMAV 242200Z AUTO 30010KT 9999 -RA SCT031 BKN038 BKN053 11/09 Q1009

YMAV Flight Activity (Flightaware)

Listeners: 2 out of 2173 total

Avalon Clearance Delivery: 120.100
Melbourne Approach/Departure: 133.550

YMHB Twr/Centre/Misc (Archives)
Cambridge, Tasmania, Australia

Feed Status: UP
Listen in your browser - HTML5 player(in browser, HTML5)
Click here to listen with your own player(launches your MP3 player)

YMHB 242200Z 35014KT 9999 FEW050 BKN240 14/06 Q0996 RF00.0/000.0

YMHB Flight Activity (Flightaware)

Listeners: 2 out of 2173 total

Air to Air: 123.450
Area CTAF: 126.700
Fire Operations: 119.100
Helicopter Resources Company: 126.400
Hobart Approach: 125.550
Hobart Tower: 118.100
Jetstar Company: 130.925
Launceston Approach: 123.800
Launceston Tower: 118.700
Melbourne Centre: 126.500
Qantas Company: 129.500
Rotor Lift Company: 131.600
Virgin Company: 130.350

YMML Twr/App/Center (Archives)
Melbourne, Victoria, Australia

Feed Status: UP
Listen in your browser - HTML5 player(in browser, HTML5)
Click here to listen with your own player(launches your MP3 player)

YMML 242200Z 02015KT CAVOK 11/06 Q1009

YMML Flight Activity (Flightaware)

Listeners: 5 out of 2173 total

Air Ambulance: 132.750
DSE & Other Company: 119.100
Essendon Tower: 125.100
Inter-Pilot: 123.450
Jetstar Company: 130.925
Melbourne ACD: 127.200
Melbourne Approach: 132.000
Melbourne Centre: 130.300
Melbourne Centre: 128.500
Melbourne Centre: 126.800
Melbourne Centre: 125.800
Melbourne Centre: 125.700
Melbourne Centre: 125.200
Melbourne Centre: 123.750
Melbourne Centre: 122.400
Melbourne Departure: 118.900
Melbourne Departure: 129.400
Melbourne Tower: 120.500
Moorabbin Tower (East): 118.100
Moorabbin Tower (West): 123.000
Police Air Wing: 131.600
Qantas Company: 130.850
Qantas Company: 129.500
Rex Company: 126.450
Royal Victorian Aero Club Company: 128.700
Royal Victorian Aero Club Company: 133.400

YPAD Del/Gnd/Twr/App (Archives)
Adelaide, South Australia, Australia

Feed Status: UP
Listen in your browser - HTML5 player(in browser, HTML5)
Click here to listen with your own player(launches your MP3 player)

YPAD 242200Z 34008KT 9999 FEW008 11/09 Q1012

YPAD Flight Activity (Flightaware)

Listeners: 2 out of 2173 total

Adelaide Approach (East of Adelaide): 118.200
Adelaide Approach (East of Adelaide): 130.450
Adelaide Approach (Kangaroo Island): 123.050
Adelaide Approach (North of Adelaide): 128.600
Adelaide Approach (West of Adelaide): 124.200
Adelaide Clearance Delivery: 126.100
Adelaide Ground: 121.700
Adelaide Tower: 120.500

YPAD Gnd/Twr/App/Center (Archives)
Adelaide, South Australia, Australia

Feed Status: UP
Listen in your browser - HTML5 player(in browser, HTML5)
Click here to listen with your own player(launches your MP3 player)

YPAD 242200Z 34008KT 9999 FEW008 11/09 Q1012

YPAD Flight Activity (Flightaware)

Listeners: 4 out of 2173 total

Adelaide Approach (East of Adelaide): 118.200
Adelaide Approach (East of Adelaide): 130.450
Adelaide Approach (Kangaroo Island): 123.050
Adelaide Approach (North of Adelaide): 128.600
Adelaide Approach (West of Adelaide): 124.200
Adelaide Clearance Delivery: 126.100
Adelaide Ground: 121.700
Adelaide Tower: 120.500
Flight Watch: 135.750
Melbourne Centre: 124.300
Melbourne Centre ( East of Adelaide): 125.300
Melbourne Centre ( Pt Augusta, Pt Pirie, Whyalla): 123.900
Melbourne Centre (Mildura): 122.100
Melbourne Centre (North of Adelaide): 122.400
Melbourne Centre (Pt Lincoln): 125.900
Melbourne Centre (West of Adelaide ): 127.050

YPDN Gnd/Twr/App/Dep (Archives)
Darwin, Northern Territory, Australia

Feed Status: UP
Listen in your browser - HTML5 player(in browser, HTML5)
Click here to listen with your own player(launches your MP3 player)

YPDN 242200Z 15003KT 9999 FEW010 23/21 Q1013

YPDN Flight Activity (Flightaware)

Listeners: 8 out of 2173 total

Darwin Approach: 134.100
Darwin Arrival: 125.200
Darwin Departure: 119.550
Darwin Ground: 121.800
Darwin Tower: 133.100

YPJT Gnd/Twr (Archives)
Perth, Western Australia, Australia

Feed Status: UP
Listen in your browser - HTML5 player(in browser, HTML5)
Click here to listen with your own player(launches your MP3 player)

YPJT 242200Z AUTO 05005KT 9000 // SCT060 BKN071 09/08 Q1017

YPJT Flight Activity (Flightaware)

Listeners: 0 out of 2173 total

Jandakot Ground: 124.300
Jandakot Tower: 119.400
Jandakot Tower/CTAF: 118.100

YPJT Perth Center (Archives)
Perth, Western Australia, Australia

Feed Status: UP
Listen in your browser - HTML5 player(in browser, HTML5)
Click here to listen with your own player(launches your MP3 player)

YPJT 242200Z AUTO 05005KT 9000 // SCT060 BKN071 09/08 Q1017

YPJT Flight Activity (Flightaware)

Listeners: 2 out of 2173 total

Perth Center: 135.250

YPMQ CTAF (Archives)
Port Macquarie, New South Wales, Australia

Feed Status: UP
Listen in your browser - HTML5 player(in browser, HTML5)
Click here to listen with your own player(launches your MP3 player)

YPMQ Flight Activity (Flightaware)

Listeners: 1 out of 2173 total

Port Macquarie CTAF/Multicom: 118.100

YPPH Approach #1 (Archives)
Perth, Western Australia, Australia

Feed Status: UP
Listen in your browser - HTML5 player(in browser, HTML5)
Click here to listen with your own player(launches your MP3 player)

YPPH 242200Z 05007KT 9999 VCSH FEW032 SCT044 11/10 Q1017 RF00.0/004.6

YPPH Flight Activity (Flightaware)

Listeners: 2 out of 2173 total

Perth Approach: 123.600

YPPH Approach #2 (Archives)
Perth, Western Australia, Australia

Feed Status: UP
Listen in your browser - HTML5 player(in browser, HTML5)
Click here to listen with your own player(launches your MP3 player)

YPPH 242200Z 05007KT 9999 VCSH FEW032 SCT044 11/10 Q1017 RF00.0/004.6

YPPH Flight Activity (Flightaware)

Listeners: 0 out of 2173 total

Perth Approach: 123.600

YPPH Departure (Archives)
Perth, Western Australia, Australia

Feed Status: UP
Listen in your browser - HTML5 player(in browser, HTML5)
Click here to listen with your own player(launches your MP3 player)

YPPH 242200Z 05007KT 9999 VCSH FEW032 SCT044 11/10 Q1017 RF00.0/004.6

YPPH Flight Activity (Flightaware)

Listeners: 2 out of 2173 total

Perth Departure: 118.700

YPPH Ground (Archives)
Perth, Western Australia, Australia

Feed Status: UP
Listen in your browser - HTML5 player(in browser, HTML5)
Click here to listen with your own player(launches your MP3 player)

YPPH 242200Z 05007KT 9999 VCSH FEW032 SCT044 11/10 Q1017 RF00.0/004.6

YPPH Flight Activity (Flightaware)

Listeners: 3 out of 2173 total

Perth Ground: 121.700

YPPH Tower #1 (Archives)
Perth, Western Australia, Australia

Feed Status: UP
Listen in your browser - HTML5 player(in browser, HTML5)
Click here to listen with your own player(launches your MP3 player)

YPPH 242200Z 05007KT 9999 VCSH FEW032 SCT044 11/10 Q1017 RF00.0/004.6

YPPH Flight Activity (Flightaware)

Listeners: 2 out of 2173 total

Perth Tower: 127.400

YPPH Tower #2 (Archives)
Perth, Western Australia, Australia

Feed Status: UP
Listen in your browser - HTML5 player(in browser, HTML5)
Click here to listen with your own player(launches your MP3 player)

YPPH 242200Z 05007KT 9999 VCSH FEW032 SCT044 11/10 Q1017 RF00.0/004.6

YPPH Flight Activity (Flightaware)

Listeners: 0 out of 2173 total

Perth Tower: 127.400

YSBK ATIS (Archives)
Bankstown, New South Wales, Australia

Feed Status: UP
Listen in your browser - HTML5 player(in browser, HTML5)
Click here to listen with your own player(launches your MP3 player)

YSBK Flight Activity (Flightaware)

Listeners: 1 out of 2173 total

Bankstown ATIS: 120.900

YSBK R405A VFR (Archives)
Bankstown, New South Wales, Australia

Feed Status: UP
Listen in your browser - HTML5 player(in browser, HTML5)
Click here to listen with your own player(launches your MP3 player)

YSBK Flight Activity (Flightaware)

Listeners: 0 out of 2173 total

Bankstown R405A VFR Access Lane YSBK/YSSY: 120.800

YSBK Tower (Archives)
Bankstown, New South Wales, Australia

Feed Status: UP
Listen in your browser - HTML5 player(in browser, HTML5)
Click here to listen with your own player(launches your MP3 player)

YSBK Flight Activity (Flightaware)

Listeners: 1 out of 2173 total

Bankstown Tower: 132.800

Melbourne Center (124.1) (Archives)
Canberra, Australian Capital Territory, Australia

Feed Status: UP
Listen in your browser - HTML5 player(in browser, HTML5)
Click here to listen with your own player(launches your MP3 player)

YSCB 242200Z AUTO 33014KT 9999 // ////// 08/04 Q1018 RF00.0/000.0

YSCB Flight Activity (Flightaware)

Listeners: 0 out of 2173 total

Melbourne Center: 124.100

Melbourne Center (128.4) (Archives)
Canberra, Australian Capital Territory, Australia

Feed Status: UP
Listen in your browser - HTML5 player(in browser, HTML5)
Click here to listen with your own player(launches your MP3 player)

YSCB 242200Z AUTO 33014KT 9999 // ////// 08/04 Q1018 RF00.0/000.0

YSCB Flight Activity (Flightaware)

Listeners: 0 out of 2173 total

Melbourne Center: 128.400

YSCB App/Dep (Archives)
Canberra, Australian Capital Territory, Australia

Feed Status: UP
Listen in your browser - HTML5 player(in browser, HTML5)
Click here to listen with your own player(launches your MP3 player)

YSCB 242200Z AUTO 33014KT 9999 // ////// 08/04 Q1018 RF00.0/000.0

YSCB Flight Activity (Flightaware)

Listeners: 0 out of 2173 total

Canberra Approach/Departure (East): 124.500
Canberra Approach/Departure (West): 125.900

YSCB App/Dep (East) (Archives)
Canberra, Australian Capital Territory, Australia

Feed Status: UP
Listen in your browser - HTML5 player(in browser, HTML5)
Click here to listen with your own player(launches your MP3 player)

YSCB 242200Z AUTO 33014KT 9999 // ////// 08/04 Q1018 RF00.0/000.0

YSCB Flight Activity (Flightaware)

Listeners: 0 out of 2173 total

Canberra Approach/Departure (East): 124.500

YSCB App/Dep (West) (Archives)
Canberra, Australian Capital Territory, Australia

Feed Status: UP
Listen in your browser - HTML5 player(in browser, HTML5)
Click here to listen with your own player(launches your MP3 player)

YSCB 242200Z AUTO 33014KT 9999 // ////// 08/04 Q1018 RF00.0/000.0

YSCB Flight Activity (Flightaware)

Listeners: 0 out of 2173 total

Canberra Approach/Departure (West): 125.900

YSCB ATIS (Archives)
Canberra, Australian Capital Territory, Australia

Feed Status: UP
Listen in your browser - HTML5 player(in browser, HTML5)
Click here to listen with your own player(launches your MP3 player)

YSCB 242200Z AUTO 33014KT 9999 // ////// 08/04 Q1018 RF00.0/000.0

YSCB Flight Activity (Flightaware)

Listeners: 0 out of 2173 total

Canberra ATIS: 127.450

YSCB Tower (Archives)
Canberra, Australian Capital Territory, Australia

Feed Status: UP
Listen in your browser - HTML5 player(in browser, HTML5)
Click here to listen with your own player(launches your MP3 player)

YSCB 242200Z AUTO 33014KT 9999 // ////// 08/04 Q1018 RF00.0/000.0

YSCB Flight Activity (Flightaware)

Listeners: 0 out of 2173 total

Canberra Tower: 118.700

YSCB Twr/App/Dep (Archives)
Canberra, Australian Capital Territory, Australia

Feed Status: UP
Listen in your browser - HTML5 player(in browser, HTML5)
Click here to listen with your own player(launches your MP3 player)

YSCB 242200Z AUTO 33014KT 9999 // ////// 08/04 Q1018 RF00.0/000.0

YSCB Flight Activity (Flightaware)

Listeners: 0 out of 2173 total

Canberra Approach/Departure (East): 124.500
Canberra Approach/Departure (West): 125.900
Canberra Tower: 118.700

YSCN Tower/CTAF (Archives)
Camden, New South Wales, Australia

Feed Status: UP
Listen in your browser - HTML5 player(in browser, HTML5)
Click here to listen with your own player(launches your MP3 player)

YSCN Flight Activity (Flightaware)

Listeners: 1 out of 2173 total

Camden Tower/CTAF: 120.100

Brisbane Center (124.625/YSSY) (Archives)
Sydney, New South Wales, Australia

Feed Status: UP
Listen in your browser - HTML5 player(in browser, HTML5)
Click here to listen with your own player(launches your MP3 player)

YSSY 242200Z 03003KT CAVOK 17/06 Q1019

YSSY Flight Activity (Flightaware)

Listeners: 3 out of 2173 total

Brisbane Center: 124.625

Brisbane Center (124.95/YSSY) (Archives)
Sydney, New South Wales, Australia

Feed Status: UP
Listen in your browser - HTML5 player(in browser, HTML5)
Click here to listen with your own player(launches your MP3 player)

YSSY 242200Z 03003KT CAVOK 17/06 Q1019

YSSY Flight Activity (Flightaware)

Listeners: 1 out of 2173 total

Brisbane Center: 124.950

Brisbane Center (125.0/YSSY) (Archives)
Sydney, New South Wales, Australia

Feed Status: UP
Listen in your browser - HTML5 player(in browser, HTML5)
Click here to listen with your own player(launches your MP3 player)

YSSY 242200Z 03003KT CAVOK 17/06 Q1019

YSSY Flight Activity (Flightaware)

Listeners: 0 out of 2173 total

Brisbane Center: 125.000

Brisbane Center (128.6/YSSY) (Archives)
Sydney, New South Wales, Australia

Feed Status: UP
Listen in your browser - HTML5 player(in browser, HTML5)
Click here to listen with your own player(launches your MP3 player)

YSSY 242200Z 03003KT CAVOK 17/06 Q1019

YSSY Flight Activity (Flightaware)

Listeners: 2 out of 2173 total

Brisbane Center: 128.600

YSSY Approach (North/East) (Archives)
Sydney, New South Wales, Australia

Feed Status: UP
Listen in your browser - HTML5 player(in browser, HTML5)
Click here to listen with your own player(launches your MP3 player)

YSSY 242200Z 03003KT CAVOK 17/06 Q1019

YSSY Flight Activity (Flightaware)

Listeners: 0 out of 2173 total

Sydney Approach (North/East): 124.400

YSSY Approach (South) (Archives)
Sydney, New South Wales, Australia

Feed Status: UP
Listen in your browser - HTML5 player(in browser, HTML5)
Click here to listen with your own player(launches your MP3 player)

YSSY 242200Z 03003KT CAVOK 17/06 Q1019

YSSY Flight Activity (Flightaware)

Listeners: 0 out of 2173 total

Sydney Approach (South/West): 128.300

YSSY ATIS (Archives)
Sydney, New South Wales, Australia

Feed Status: UP
Listen in your browser - HTML5 player(in browser, HTML5)
Click here to listen with your own player(launches your MP3 player)

YSSY 242200Z 03003KT CAVOK 17/06 Q1019

YSSY Flight Activity (Flightaware)

Listeners: 0 out of 2173 total

Sydney ATIS: 118.550

YSSY Center (South/West) (Archives)
Sydney, New South Wales, Australia

Feed Status: UP
Listen in your browser - HTML5 player(in browser, HTML5)
Click here to listen with your own player(launches your MP3 player)

YSSY 242200Z 03003KT CAVOK 17/06 Q1019

YSSY Flight Activity (Flightaware)

Listeners: 0 out of 2173 total

Sydney Center: 124.550

YSSY Del/Gnd (Archives)
Sydney, New South Wales, Australia

Feed Status: UP
Listen in your browser - HTML5 player(in browser, HTML5)
Click here to listen with your own player(launches your MP3 player)

YSSY 242200Z 03003KT CAVOK 17/06 Q1019

YSSY Flight Activity (Flightaware)

Listeners: 3 out of 2173 total

Sydney Clearance Delivery: 133.800
Sydney Ground (East of Rwys 16R/34L): 121.700
Sydney Ground (West of Rwys 16R/34L): 126.500

YSSY Departure (North/East) (Archives)
Sydney, New South Wales, Australia

Feed Status: UP
Listen in your browser - HTML5 player(in browser, HTML5)
Click here to listen with your own player(launches your MP3 player)

YSSY 242200Z 03003KT CAVOK 17/06 Q1019

YSSY Flight Activity (Flightaware)

Listeners: 0 out of 2173 total

Sydney Departure (North/East): 123.000

YSSY Departure (South/West) (Archives)
Sydney, New South Wales, Australia

Feed Status: UP
Listen in your browser - HTML5 player(in browser, HTML5)
Click here to listen with your own player(launches your MP3 player)

YSSY 242200Z 03003KT CAVOK 17/06 Q1019

YSSY Flight Activity (Flightaware)

Listeners: 1 out of 2173 total

Sydney Departure (Rte S, W and NW): 129.700

YSSY Director (East) (Archives)
Sydney, New South Wales, Australia

Feed Status: UP
Listen in your browser - HTML5 player(in browser, HTML5)
Click here to listen with your own player(launches your MP3 player)

YSSY 242200Z 03003KT CAVOK 17/06 Q1019

YSSY Flight Activity (Flightaware)

Listeners: 0 out of 2173 total

Sydney Director (East): 125.300

YSSY Tower (Both) (Archives)
Sydney, New South Wales, Australia

Feed Status: UP
Listen in your browser - HTML5 player(in browser, HTML5)
Click here to listen with your own player(launches your MP3 player)

YSSY 242200Z 03003KT CAVOK 17/06 Q1019

YSSY Flight Activity (Flightaware)

Listeners: 4 out of 2173 total

Sydney Tower (Rwy 16L/34R): 124.700
Sydney Tower (Rwy 16R/34L, Rwy 07/25): 120.500

YSSY Tower (Rwy 16L/34R) (Archives)
Sydney, New South Wales, Australia

Feed Status: UP
Listen in your browser - HTML5 player(in browser, HTML5)
Click here to listen with your own player(launches your MP3 player)

YSSY 242200Z 03003KT CAVOK 17/06 Q1019

YSSY Flight Activity (Flightaware)

Listeners: 2 out of 2173 total

Sydney Tower (Rwy 16L/34R): 124.700

YSSY Tower (Rwys 16R/34L,7/25) (Archives)
Sydney, New South Wales, Australia

Feed Status: UP
Listen in your browser - HTML5 player(in browser, HTML5)
Click here to listen with your own player(launches your MP3 player)

YSSY 242200Z 03003KT CAVOK 17/06 Q1019

YSSY Flight Activity (Flightaware)

Listeners: 2 out of 2173 total

Sydney Tower (Rwy 16R/34L, Rwy 07/25): 120.500

YSTW Gnd/Twr/Center (Archives)
Tamworth, New South Wales, Australia

Feed Status: UP
Listen in your browser - HTML5 player(in browser, HTML5)
Click here to listen with your own player(launches your MP3 player)

YSTW 242200Z AUTO 10003KT 9999 // FEW050 02/02 Q1024 RF00.0/000.0

YSTW Flight Activity (Flightaware)

Listeners: 1 out of 2173 total

Brisbane Center: 127.100
Tamworth Ground: 121.900
Tamworth Tower: 118.250
Tamworth Tower: 119.400

YWBN CTAF/Center (Archives)
Wedderburn, New South Wales, Australia

Feed Status: UP
Listen in your browser - HTML5 player(in browser, HTML5)
Click here to listen with your own player(launches your MP3 player)

YWBN Flight Activity (Flightaware)

Listeners: 0 out of 2173 total

Sydney Center: 124.550
Wedderburn CTAF/Multicom: 122.550

YWYY CTAF/Center (Archives)
Burnie, Tasmania, Australia

Feed Status: UP
Listen in your browser - HTML5 player(in browser, HTML5)
Click here to listen with your own player(launches your MP3 player)

METAR NOT AVAILABLE

YWYY Flight Activity (Flightaware)

Listeners: 0 out of 2173 total

General multicom freq for undesignated ALAs or landing strips: 126.700
Georgetown CTAF (YGTO): 127.30
King Island CTAF (YKII): 126.850
Melbourne Centre (DEVONPORT - Covers Devonport): 120.700
Melbourne Centre (KING ISLAND): 123.900
Melbourne Centre (MT READ - Covers West Coast of Tasmania): 123.950
Melbourne Centre (TABLE CAPE - Covers North West Coast of Tasmania): 122.600
Smithton CTAF (SIO/YSMI): 119.100
Strahan/Queenstown CTAF (YSRN): 124.200
Wynyard CTAF (YWYY/BWT) - Devonport CTAF (DPO/YDPO): 126.900